[[{"header":{"parameterUnit":"m.s-1","parameterCategory":1,"la1":31.0,"la2":29.5877,"lo1":-88.7671,"lo2":-86.6584,"dx":0.0162,"dy":0.0185,"nx":115,"ny":88,"refTime":"2023-01-11T18:00:00:Z","depth":0,"parameterNumber":2,"parameterNumberName":"U-component_of_WINDS"},"data":[0.0,0.0,0.0,0.0,0.0,0.0,0.0,0.0,0.0,0.0,0.0,0.0,0.0,0.0,0.0,0.0,0.0,0.0,0.0,0.0,0.0,0.0,0.0,0.0,0.0,0.0,0.0,0.0,0.0,0.0,0.0,0.0,0.0,0.0,0.0,0.0,0.0,0.0,0.0,0.0,0.0,0.0,0.0,0.0,0.0,0.0,0.0,0.0,0.0,0.0,0.0,0.0,0.0,0.0,0.0,0.0,0.0,0.0,0.0,0.0,0.0,0.0,0.0,0.0,0.0,0.0,0.0,0.0,0.0,0.0,0.0,0.0,0.0,0.0,0.0,0.0,0.0,0.0,0.0,0.0,0.0,0.0,0.0,0.0,0.0,0.0,0.0,0.0,0.0,0.0,0.0,0.0,0.0,0.0,0.0,0.0,0.0,0.0,0.0,0.0,0.0,0.0,0.0,0.0,0.0,0.0,0.0,0.0,0.0,0.0,0.0,0.0,0.0,0.0,0.0,0.0,0.0,0.0,0.0,0.0,0.0,0.0,0.0,0.0,0.0,0.0,0.0,0.0,0.0,0.0,0.0,0.0,0.0,0.0,0.0,0.0,0.0,0.0,0.0,0.0,0.0,0.0,0.0,0.0,0.0,0.0,0.0,0.0,0.0,0.0,0.0,0.0,0.0,0.0,0.0,0.0,0.0,0.0,0.0,0.0,0.0,0.0,0.0,0.0,0.0,0.0,0.0,0.0,0.0,0.0,0.0,0.0,0.0,0.0,0.0,0.0,0.0,0.0,0.0,0.0,0.0,0.0,0.0,0.0,0.0,0.0,0.0,0.0,0.0,0.0,0.0,0.0,0.0,0.0,0.0,0.0,0.0,0.0,0.0,0.0,0.0,0.0,0.0,0.0,0.0,0.0,0.0,0.0,0.0,0.0,0.0,0.0,0.0,0.0,0.0,0.0,0.0,0.0,0.0,0.0,0.0,0.0,0.0,0.0,0.0,0.0,0.0,0.0,0.0,0.0,0.0,0.0,0.0,0.0,0.0,0.0,0.0,0.0,0.0,0.0,0.0,0.0,0.0,0.0,0.0,0.0,0.0,0.0,0.0,0.0,0.0,0.0,0.0,0.0,0.0,0.0,0.0,0.0,0.0,0.0,0.0,0.0,0.0,0.0,0.0,0.0,0.0,0.0,0.0,0.0,0.0,0.0,0.0,0.0,0.0,0.0,0.0,0.0,0.0,0.0,0.0,0.0,0.0,0.0,0.0,0.0,0.0,0.0,0.0,0.0,0.0,0.0,0.0,0.0,0.0,0.0,0.0,0.0,0.0,0.0,0.0,0.0,0.0,0.0,0.0,0.0,0.0,0.0,0.0,0.0,0.0,0.0,0.0,0.0,0.0,0.0,0.0,0.0,0.0,0.0,0.0,0.0,0.0,0.0,0.0,0.0,0.0,0.0,0.0,0.0,0.0,0.0,0.0,0.0,0.0,0.0,0.0,0.0,0.0,0.0,0.0,0.0,0.0,0.0,0.0,0.0,0.0,0.0,0.0,0.0,0.0,0.0,0.0,0.0,0.0,0.0,0.0,0.0,0.0,0.0,0.0,0.0,0.0,0.0,0.0,0.0,0.0,0.0,0.0,0.0,0.0,0.0,0.0,0.0,0.0,0.0,0.0,0.0,0.0,0.0,0.0,0.0,0.0,0.0,0.0,0.0,0.0,0.0,0.0,0.0,0.0,0.0,0.0,0.0,0.0,0.0,0.0,0.0,0.0,0.0,0.0,0.0,0.0,0.0,0.0,0.0,0.0,0.0,0.0,0.0,0.0,0.0,0.0,0.0,0.0,0.0,0.0,0.0,0.0,0.0,0.0,0.0,0.0,0.0,0.0,0.0,0.0,0.0,0.0,0.0,0.0,0.0,0.0,0.0,0.0,0.0,0.0,0.0,0.0,0.0,0.0,0.0,0.0,0.0,0.0,0.0,0.0,0.0,0.0,0.0,0.0,0.0,0.0,0.0,0.0,0.0,0.0,0.0,0.0,0.0,0.0,0.0,0.0,0.0,0.0,0.0,0.0,0.0,0.0,0.0,0.0,0.0,0.0,0.0,0.0,0.0,0.0,0.0,0.0,0.0,0.0,0.0,0.0,0.0,0.0,0.0,0.0,0.0,0.0,0.0,0.0,0.0,0.0,0.0,0.0,0.0,0.0,0.0,0.0,0.0,0.0,0.0,0.0,0.0,0.0,0.0,0.0,0.0,0.0,0.0,0.0,0.0,0.0,0.0,0.0,0.0,0.0,0.0,0.0,0.0,0.0,0.0,0.0,0.0,0.0,0.0,0.0,0.0,0.0,0.0,0.0,0.0,0.0,0.0,0.0,0.0,0.0,0.0,0.0,0.0,0.0,0.0,0.0,0.0,0.0,0.0,0.0,0.0,0.0,0.0,0.0,0.0,0.0,0.0,0.0,0.0,0.0,0.0,0.0,0.0,0.0,0.0,0.0,0.0,0.0,0.0,0.0,0.0,0.0,0.0,0.0,0.0,0.0,0.0,0.0,0.0,0.0,0.0,0.0,0.0,0.0,0.0,0.0,0.0,0.0,0.0,0.0,0.0,0.0,0.0,0.0,0.0,0.0,0.0,0.0,0.0,0.0,0.0,0.0,0.0,0.0,0.0,0.0,0.0,0.0,0.0,0.0,0.0,0.0,0.0,0.0,0.0,0.0,0.0,0.0,0.0,0.0,0.0,0.0,0.0,0.0,0.0,0.0,0.0,0.0,0.0,0.0,0.0,0.0,0.0,0.0,0.0,0.0,0.0,0.0,0.0,0.0,0.0,0.0,0.0,0.0,0.0,0.0,0.0,0.0,0.0,0.0,0.0,0.0,0.0,0.0,0.0,0.0,0.0,0.0,0.0,0.0,0.0,0.0,0.0,0.0,0.0,0.0,0.0,0.0,0.0,0.0,0.0,0.0,0.0,0.0,0.0,0.0,0.0,0.0,0.0,0.0,0.0,0.0,0.0,0.0,0.0,0.0,0.0,0.0,0.0,0.0,0.0,0.0,0.0,0.0,0.0,0.0,0.0,0.0,0.0,0.0,0.0,0.0,0.0,0.0,0.0,0.0,0.0,0.0,0.0,0.0,0.0,0.0,0.0,0.0,0.0,0.0,0.0,0.0,0.0,0.0,0.0,0.0,0.0,0.0,0.0,0.0,0.0,0.0,0.0,0.0,0.0,0.0,0.0,0.0,0.0,0.0,0.0,0.0,0.0,0.0,0.0,0.0,0.0,0.0,0.0,0.0,0.0,0.0,0.0,0.0,0.0,0.0,0.0,0.0,0.0,0.0,0.0,0.0,0.0,0.0,0.0,0.0,0.0,0.0,0.0,0.0,0.0,0.0,0.0,0.0,0.0,0.0,0.0,0.0,0.0,0.0,0.0,0.0,0.0,0.0,0.0,0.0,0.0,0.0,0.0,0.0,0.0,0.0,0.0,0.0,0.0,0.0,0.0,0.0,0.0,0.0,0.0,0.0,0.0,0.0,0.0,0.0,0.0,0.0,0.0,0.0,0.0,0.0,0.0,0.0,0.0,0.0,0.0,0.0,0.0,0.0,0.0,0.0,0.0,0.0,0.0,0.0,0.0,0.0,0.0,0.0,0.0,0.0,0.0,0.0,0.0,0.0,0.0,0.0,0.0,0.0,0.0,0.0,0.0,0.0,0.0,0.0,0.0,0.0,0.0,0.0,0.0,0.0,0.0,0.0,0.0,0.0,0.0,0.0,0.0,0.0,0.0,0.0,0.0,0.0,0.0,0.0,0.0,0.0,0.0,0.0,0.0,0.0,0.0,0.0,0.0,0.0,0.0,0.0,0.0,0.0,0.0,0.0,0.0,0.0,0.0,0.0,0.0,0.0,0.0,0.0,0.0,0.0,0.0,0.0,0.0,0.0,0.0,0.0,0.0,0.0,0.0,0.0,0.0,0.0,0.0,0.0,0.0,0.0,0.0,0.0,0.0,0.0,0.0,0.0,0.0,0.0,0.0,0.0,0.0,0.0,0.0,0.0,0.0,0.0,0.0,0.0,0.0,0.0,0.0,0.0,0.0,0.0,0.0,0.0,0.0,0.0,0.0,0.0,0.0,0.0,0.0,0.0,0.0,0.0,0.0,0.0,0.0,0.0,0.0,0.0,0.0,0.0,0.0,0.0,0.0,0.0,0.0,0.0,0.0,0.0,0.0,0.0,0.0,0.0,0.0,0.0,0.0,0.0,0.0,3.8358,0.0,0.0,0.0,3.7698,0.0,0.0,0.0,0.0,0.0,0.0,0.0,0.0,0.0,0.0,0.0,0.0,0.0,0.0,0.0,0.0,0.0,0.0,0.0,0.0,0.0,0.0,0.0,0.0,0.0,0.0,0.0,0.0,0.0,0.0,0.0,0.0,0.0,0.0,0.0,0.0,0.0,0.0,0.0,0.0,0.0,0.0,0.0,0.0,0.0,0.0,0.0,0.0,0.0,0.0,0.0,0.0,0.0,0.0,0.0,0.0,0.0,0.0,0.0,0.0,0.0,0.0,0.0,0.0,0.0,0.0,0.0,0.0,0.0,0.0,0.0,0.0,0.0,0.0,0.0,0.0,0.0,0.0,0.0,0.0,0.0,0.0,0.0,0.0,0.0,0.0,0.0,0.0,0.0,0.0,0.0,0.0,0.0,0.0,0.0,0.0,0.0,0.0,0.0,0.0,0.0,0.0,0.0,0.0,0.0,0.0,0.0,0.0,0.0,0.0,3.8689,3.8689,3.8689,3.8322,3.7544,0.0,0.0,0.0,0.0,0.0,0.0,0.0,0.0,0.0,0.0,0.0,0.0,0.0,0.0,0.0,0.0,0.0,0.0,0.0,0.0,0.0,0.0,0.0,0.0,0.0,0.0,0.0,0.0,0.0,0.0,0.0,0.0,0.0,0.0,0.0,0.0,0.0,0.0,0.0,0.0,0.0,0.0,0.0,0.0,0.0,0.0,0.0,0.0,0.0,0.0,0.0,0.0,0.0,0.0,0.0,0.0,0.0,0.0,0.0,0.0,0.0,0.0,0.0,0.0,0.0,0.0,0.0,0.0,0.0,0.0,0.0,0.0,0.0,0.0,0.0,0.0,0.0,0.0,0.0,0.0,0.0,0.0,0.0,0.0,0.0,0.0,0.0,0.0,0.0,0.0,0.0,0.0,0.0,0.0,0.0,0.0,0.0,0.0,0.0,0.0,0.0,0.0,0.0,0.0,0.0,0.0,0.0,0.0,0.0,0.0,0.0,0.0,3.8689,3.8322,3.7551,0.0,0.0,0.0,0.0,0.0,0.0,0.0,0.0,0.0,0.0,0.0,0.0,0.0,0.0,0.0,0.0,0.0,0.0,0.0,0.0,0.0,0.0,0.0,0.0,0.0,0.0,0.0,0.0,0.0,0.0,0.0,0.0,0.0,0.0,0.0,0.0,0.0,0.0,0.0,0.0,0.0,0.0,0.0,0.0,0.0,0.0,0.0,0.0,0.0,0.0,0.0,0.0,0.0,0.0,0.0,0.0,0.0,0.0,0.0,0.0,0.0,0.0,0.0,0.0,0.0,0.0,0.0,0.0,0.0,0.0,0.0,0.0,0.0,0.0,0.0,0.0,0.0,0.0,0.0,0.0,0.0,0.0,0.0,0.0,0.0,0.0,0.0,0.0,0.0,0.0,0.0,0.0,0.0,0.0,0.0,0.0,0.0,0.0,0.0,0.0,0.0,0.0,0.0,0.0,0.0,0.0,0.0,0.0,0.0,0.0,3.8689,3.8689,3.8689,0.0,3.7551,0.0,0.0,0.0,0.0,0.0,0.0,0.0,0.0,0.0,0.0,0.0,0.0,0.0,0.0,0.0,0.0,0.0,0.0,0.0,0.0,0.0,0.0,0.0,0.0,0.0,0.0,0.0,0.0,0.0,0.0,0.0,0.0,0.0,0.0,0.0,0.0,0.0,0.0,0.0,0.0,0.0,0.0,0.0,0.0,0.0,0.0,0.0,0.0,0.0,0.0,0.0,0.0,0.0,0.0,0.0,0.0,0.0,0.0,0.0,0.0,0.0,0.0,0.0,0.0,0.0,0.0,0.0,0.0,0.0,0.0,0.0,0.0,0.0,0.0,0.0,0.0,0.0,0.0,0.0,0.0,0.0,0.0,0.0,0.0,0.0,0.0,0.0,0.0,0.0,0.0,0.0,0.0,0.0,0.0,0.0,0.0,0.0,0.0,0.0,0.0,0.0,0.0,0.0,0.0,0.0,0.0,0.0,0.0,0.0,0.0,3.8689,3.8689,3.8689,3.8322,0.0,0.0,0.0,0.0,0.0,0.0,0.0,0.0,0.0,0.0,0.0,0.0,0.0,0.0,0.0,0.0,0.0,0.0,0.0,0.0,0.0,0.0,0.0,0.0,0.0,0.0,0.0,0.0,0.0,0.0,0.0,0.0,0.0,0.0,0.0,0.0,0.0,0.0,0.0,0.0,0.0,0.0,0.0,0.0,0.0,0.0,0.0,0.0,0.0,0.0,0.0,0.0,0.0,0.0,0.0,0.0,0.0,0.0,0.0,0.0,0.0,0.0,0.0,0.0,0.0,0.0,0.0,0.0,0.0,0.0,0.0,0.0,0.0,0.0,0.0,0.0,0.0,0.0,0.0,0.0,0.0,0.0,0.0,0.0,0.0,0.0,0.0,0.0,0.0,0.0,0.0,0.0,0.0,0.0,0.0,0.0,0.0,0.0,0.0,0.0,0.0,0.0,0.0,0.0,0.0,0.0,0.0,0.0,0.0,0.0,3.8615,3.9019,3.9019,3.9019,3.8652,3.7845,0.0,0.0,0.0,0.0,0.0,0.0,0.0,0.0,0.0,0.0,0.0,0.0,0.0,0.0,0.0,0.0,0.0,0.0,0.0,0.0,0.0,0.0,0.0,0.0,0.0,0.0,0.0,0.0,0.0,0.0,0.0,0.0,0.0,0.0,0.0,0.0,0.0,0.0,0.0,0.0,0.0,0.0,0.0,0.0,0.0,0.0,0.0,0.0,0.0,0.0,0.0,0.0,0.0,0.0,0.0,0.0,0.0,0.0,0.0,0.0,0.0,0.0,0.0,0.0,0.0,0.0,0.0,0.0,0.0,0.0,0.0,0.0,0.0,0.0,0.0,0.0,0.0,0.0,0.0,0.0,0.0,0.0,0.0,0.0,0.0,0.0,0.0,0.0,0.0,0.0,0.0,0.0,0.0,0.0,0.0,0.0,0.0,0.0,0.0,0.0,0.0,0.0,0.0,0.0,0.0,0.0,0.0,0.0,3.8652,3.9423,3.9827,3.9827,3.9827,3.946,0.0,0.0,0.0,0.0,0.0,0.0,0.0,0.0,0.0,0.0,0.0,0.0,0.0,0.0,0.0,0.0,0.0,0.0,0.0,0.0,0.0,0.0,0.0,0.0,0.0,0.0,0.0,0.0,0.0,0.0,0.0,0.0,0.0,0.0,0.0,0.0,0.0,0.0,0.0,0.0,0.0,0.0,0.0,0.0,0.0,0.0,0.0,0.0,0.0,0.0,0.0,0.0,0.0,0.0,0.0,0.0,0.0,0.0,0.0,0.0,0.0,0.0,0.0,0.0,0.0,0.0,0.0,0.0,0.0,0.0,0.0,0.0,0.0,0.0,0.0,0.0,0.0,0.0,0.0,0.0,0.0,0.0,0.0,0.0,0.0,0.0,0.0,0.0,0.0,0.0,0.0,0.0,0.0,0.0,0.0,0.0,0.0,0.0,0.0,0.0,0.0,0.0,0.0,0.0,0.0,0.0,0.0,0.0,0.0,3.9423,4.0267,4.0671,4.0671,4.0157,3.9753,0.0,0.0,0.0,0.0,0.0,0.0,0.0,0.0,0.0,0.0,0.0,0.0,0.0,0.0,0.0,0.0,0.0,0.0,0.0,0.0,0.0,0.0,0.0,0.0,0.0,0.0,0.0,0.0,0.0,0.0,0.0,0.0,0.0,0.0,0.0,0.0,0.0,0.0,0.0,0.0,0.0,0.0,0.0,0.0,0.0,0.0,0.0,0.0,0.0,0.0,0.0,0.0,0.0,0.0,0.0,0.0,0.0,0.0,0.0,0.0,0.0,0.0,0.0,0.0,0.0,0.0,0.0,0.0,0.0,0.0,0.0,0.0,0.0,0.0,0.0,0.0,0.0,0.0,0.0,0.0,0.0,0.0,0.0,0.0,0.0,0.0,0.0,0.0,0.0,0.0,0.0,0.0,0.0,0.0,0.0,0.0,0.0,0.0,0.0,0.0,0.0,0.0,0.0,0.0,0.0,0.0,0.0,0.0,0.0,4.1001,4.1882,4.2286,4.2249,4.1479,4.0818,0.0,0.0,0.0,0.0,0.0,0.0,0.0,0.0,0.0,0.0,0.0,0.0,0.0,0.0,0.0,0.0,0.0,0.0,0.0,0.0,0.0,0.0,0.0,0.0,0.0,0.0,0.0,0.0,0.0,0.0,0.0,0.0,0.0,0.0,0.0,0.0,0.0,0.0,0.0,0.0,0.0,0.0,0.0,0.0,0.0,0.0,0.0,0.0,0.0,0.0,0.0,0.0,0.0,0.0,0.0,0.0,0.0,0.0,0.0,0.0,0.0,0.0,0.0,0.0,0.0,0.0,0.0,0.0,0.0,0.0,0.0,0.0,0.0,0.0,0.0,0.0,0.0,0.0,0.0,0.0,0.0,0.0,0.0,0.0,0.0,0.0,0.0,0.0,0.0,0.0,0.0,0.0,0.0,0.0,0.0,0.0,0.0,0.0,0.0,0.0,0.0,0.0,0.0,0.0,0.0,0.0,0.0,0.0,4.1185,4.3424,4.4305,4.4745,4.4709,4.3901,4.2763,0.0,0.0,0.0,0.0,0.0,0.0,0.0,0.0,0.0,0.0,0.0,0.0,0.0,0.0,0.0,0.0,0.0,0.0,0.0,0.0,0.0,0.0,0.0,0.0,0.0,0.0,0.0,0.0,0.0,0.0,0.0,0.0,0.0,0.0,0.0,0.0,0.0,0.0,0.0,0.0,0.0,0.0,0.0,0.0,0.0,0.0,0.0,0.0,0.0,0.0,0.0,0.0,0.0,0.0,0.0,0.0,0.0,0.0,0.0,0.0,0.0,0.0,0.0,0.0,0.0,0.0,0.0,0.0,0.0,0.0,0.0,0.0,0.0,0.0,0.0,0.0,0.0,0.0,0.0,0.0,0.0,0.0,0.0,0.0,0.0,0.0,0.0,0.0,0.0,0.0,0.0,0.0,0.0,0.0,0.0,0.0,0.0,0.0,0.0,0.0,0.0,0.0,0.0,0.0,0.0,0.0,0.0,0.0,0.0,4.5186,4.6507,4.7205,4.7168,4.5847,4.4672,0.0,0.0,0.0,0.0,0.0,0.0,0.0,0.0,0.0,0.0,0.0,0.0,0.0,0.0,0.0,0.0,0.0,0.0,0.0,0.0,0.0,0.0,0.0,0.0,0.0,0.0,0.0,0.0,0.0,0.0,0.0,0.0,0.0,0.0,0.0,0.0,0.0,0.0,0.0,0.0,0.0,0.0,0.0,0.0,0.0,0.0,0.0,0.0,0.0,0.0,0.0,0.0,0.0,0.0,0.0,0.0,0.0,0.0,0.0,0.0,0.0,0.0,0.0,0.0,0.0,0.0,0.0,0.0,0.0,0.0,0.0,0.0,0.0,0.0,0.0,0.0,0.0,0.0,0.0,0.0,0.0,0.0,0.0,0.0,0.0,0.0,0.0,0.0,0.0,0.0,0.0,0.0,0.0,0.0,0.0,0.0,0.0,0.0,0.0,0.0,0.0,0.0,0.0,0.0,0.0,0.0,0.0,0.0,0.0,4.9994,5.0655,5.1022,5.1022,4.9481,4.7682,4.5663,0.0,0.0,0.0,0.0,0.0,0.0,0.0,0.0,0.0,0.0,0.0,0.0,0.0,0.0,0.0,0.0,0.0,0.0,0.0,0.0,0.0,0.0,0.0,0.0,0.0,0.0,0.0,0.0,0.0,0.0,0.0,0.0,0.0,0.0,0.0,0.0,0.0,0.0,0.0,0.0,0.0,0.0,0.0,0.0,0.0,0.0,0.0,0.0,0.0,0.0,0.0,0.0,0.0,0.0,0.0,0.0,0.0,0.0,0.0,0.0,0.0,0.0,0.0,0.0,0.0,0.0,0.0,0.0,0.0,0.0,0.0,0.0,0.0,0.0,0.0,0.0,0.0,0.0,0.0,0.0,0.0,0.0,0.0,0.0,0.0,0.0,0.0,0.0,0.0,0.0,0.0,0.0,0.0,0.0,0.0,0.0,0.0,0.0,0.0,0.0,0.0,0.0,0.0,0.0,0.0,0.0,0.0,0.0,5.7042,5.6455,5.6051,5.5794,5.4216,5.1536,0.0,0.0,0.0,0.0,0.0,0.0,0.0,0.0,0.0,0.0,0.0,0.0,0.0,0.0,0.0,0.0,0.0,0.0,0.0,0.0,0.0,0.0,0.0,0.0,0.0,0.0,0.0,0.0,0.0,0.0,0.0,0.0,0.0,0.0,0.0,0.0,0.0,0.0,0.0,0.0,0.0,0.0,0.0,0.0,0.0,0.0,0.0,0.0,0.0,0.0,0.0,0.0,0.0,0.0,0.0,0.0,0.0,0.0,0.0,0.0,0.0,0.0,0.0,0.0,0.0,0.0,0.0,0.0,0.0,0.0,0.0,0.0,0.0,0.0,0.0,0.0,0.0,0.0,0.0,0.0,0.0,0.0,0.0,0.0,0.0,0.0,0.0,0.0,0.0,0.0,0.0,0.0,0.0,0.0,0.0,0.0,0.0,0.0,0.0,0.0,0.0,0.0,0.0,0.0,0.0,0.0,0.0,0.0,0.0,6.0236,6.1924,6.163,5.9208,5.7132,5.4675,0.0,0.0,0.0,0.0,0.0,0.0,0.0,0.0,0.0,0.0,0.0,0.0,0.0,0.0,0.0,0.0,0.0,0.0,0.0,0.0,0.0,0.0,0.0,0.0,0.0,0.0,0.0,0.0,0.0,0.0,0.0,0.0,0.0,0.0,0.0,0.0,0.0,0.0,0.0,0.0,0.0,0.0,0.0,0.0,0.0,0.0,0.0,0.0,0.0,0.0,0.0,0.0,0.0,0.0,0.0,0.0,0.0,0.0,0.0,0.0,0.0,0.0,0.0,0.0,0.0,0.0,0.0,0.0,0.0,0.0,0.0,0.0,0.0,0.0,0.0,0.0,0.0,0.0,0.0,0.0,0.0,0.0,0.0,0.0,0.0,0.0,0.0,0.0,0.0,0.0,0.0,0.0,0.0,0.0,0.0,0.0,0.0,0.0,0.0,0.0,0.0,0.0,0.0,0.0,0.0,0.0,0.0,0.0,5.9391,6.2585,6.5262,6.5693,6.3811,6.0739,5.7641,0.0,0.0,0.0,0.0,0.0,0.0,0.0,0.0,0.0,0.0,0.0,0.0,0.0,0.0,0.0,0.0,0.0,0.0,0.0,0.0,0.0,0.0,0.0,0.0,0.0,0.0,0.0,0.0,0.0,0.0,0.0,0.0,0.0,0.0,0.0,0.0,0.0,0.0,0.0,0.0,0.0,0.0,0.0,0.0,0.0,0.0,0.0,0.0,0.0,0.0,0.0,0.0,0.0,0.0,0.0,0.0,0.0,0.0,0.0,0.0,0.0,0.0,0.0,0.0,0.0,0.0,0.0,0.0,0.0,0.0,0.0,0.0,0.0,0.0,0.0,0.0,0.0,0.0,0.0,0.0,0.0,0.0,0.0,0.0,0.0,0.0,0.0,0.0,0.0,0.0,0.0,0.0,0.0,0.0,0.0,0.0,0.0,0.0,0.0,0.0,0.0,0.0,0.0,0.0,0.0,0.0,0.0,0.0,6.1006,6.4163,6.6914,6.8346,6.8283,6.4456,6.0478,0.0,0.0,0.0,0.0,0.0,0.0,0.0,0.0,0.0,0.0,0.0,0.0,0.0,0.0,0.0,0.0,0.0,0.0,0.0,0.0,0.0,0.0,0.0,0.0,0.0,0.0,0.0,0.0,0.0,0.0,0.0,0.0,0.0,0.0,0.0,0.0,0.0,0.0,0.0,0.0,0.0,0.0,0.0,0.0,0.0,0.0,0.0,0.0,0.0,0.0,0.0,0.0,0.0,0.0,0.0,0.0,0.0,0.0,0.0,0.0,0.0,0.0,0.0,0.0,0.0,0.0,0.0,0.0,0.0,0.0,0.0,0.0,0.0,0.0,0.0,0.0,0.0,0.0,0.0,0.0,0.0,0.0,0.0,0.0,0.0,0.0,0.0,0.0,0.0,0.0,0.0,0.0,0.0,0.0,0.0,0.0,0.0,0.0,0.0,0.0,0.0,0.0,0.0,0.0,0.0,0.0,0.0,0.0,6.2401,6.4971,6.6875,6.8033,6.8394,6.5948,6.2981,0.0,0.0,0.0,0.0,0.0,0.0,0.0,0.0,0.0,0.0,0.0,0.0,0.0,0.0,0.0,0.0,0.0,0.0,0.0,0.0,0.0,0.0,0.0,0.0,0.0,0.0,0.0,0.0,0.0,0.0,0.0,0.0,0.0,0.0,0.0,0.0,0.0,0.0,0.0,0.0,0.0,0.0,0.0,0.0,0.0,0.0,0.0,0.0,5.1499,0.0,0.0,0.0,0.0,0.0,0.0,0.0,0.0,0.0,0.0,0.0,0.0,0.0,0.0,0.0,0.0,0.0,0.0,0.0,0.0,0.0,0.0,0.0,0.0,0.0,0.0,0.0,0.0,0.0,0.0,0.0,0.0,0.0,0.0,0.0,0.0,0.0,0.0,0.0,0.0,0.0,0.0,0.0,0.0,0.0,0.0,0.0,0.0,0.0,0.0,0.0,0.0,0.0,0.0,0.0,0.0,0.0,0.0,0.0,6.398,6.6366,6.806,6.8902,6.8914,6.7664,6.5312,0.0,0.0,0.0,0.0,0.0,0.0,0.0,0.0,0.0,0.0,0.0,0.0,0.0,0.0,0.0,0.0,0.0,0.0,0.0,0.0,0.0,0.0,0.0,0.0,0.0,0.0,0.0,0.0,0.0,0.0,0.0,0.0,0.0,0.0,0.0,0.0,0.0,0.0,0.0,0.0,0.0,0.0,0.0,0.0,0.0,0.0,0.0,0.0,0.0,0.0,0.0,0.0,0.0,0.0,0.0,0.0,0.0,0.0,0.0,0.0,0.0,0.0,0.0,0.0,0.0,0.0,0.0,0.0,0.0,0.0,0.0,0.0,0.0,0.0,0.0,0.0,0.0,0.0,0.0,0.0,0.0,0.0,0.0,0.0,0.0,0.0,0.0,0.0,0.0,0.0,0.0,0.0,0.0,0.0,0.0,0.0,0.0,0.0,0.0,0.0,0.0,0.0,0.0,0.0,0.0,0.0,0.0,6.2401,6.5485,6.7998,6.9581,7.0247,6.9916,6.9355,6.7311,6.3728,0.0,0.0,0.0,0.0,0.0,0.0,0.0,0.0,0.0,0.0,0.0,0.0,0.0,0.0,0.0,0.0,0.0,0.0,0.0,0.0,0.0,0.0,0.0,0.0,0.0,0.0,0.0,0.0,0.0,0.0,0.0,0.0,0.0,0.0,0.0,0.0,0.0,0.0,4.6728,5.0215,0.0,0.0,0.0,0.0,0.0,0.0,0.0,0.0,5.7042,0.0,0.0,0.0,0.0,0.0,0.0,0.0,0.0,0.0,0.0,0.0,0.0,0.0,0.0,0.0,0.0,0.0,0.0,0.0,0.0,0.0,0.0,0.0,0.0,0.0,0.0,0.0,0.0,0.0,0.0,0.0,0.0,0.0,0.0,0.0,0.0,0.0,0.0,0.0,0.0,0.0,0.0,0.0,0.0,0.0,0.0,0.0,0.0,0.0,0.0,0.0,0.0,0.0,0.0,0.0,0.0,6.1961,6.4053,6.6623,6.9596,7.0346,7.0843,7.1133,7.0067,6.8412,6.5998,0.0,0.0,0.0,0.0,0.0,0.0,0.0,0.0,0.0,0.0,0.0,0.0,0.0,0.0,0.0,0.0,0.0,0.0,0.0,0.0,0.0,0.0,0.0,0.0,0.0,0.0,0.0,0.0,0.0,0.0,0.0,0.0,0.0,0.0,0.0,0.0,0.0,0.0,0.0,5.3739,5.5868,0.0,0.0,0.0,0.0,0.0,0.0,0.0,0.0,5.9465,0.0,0.0,0.0,0.0,0.0,0.0,0.0,0.0,0.0,0.0,0.0,0.0,0.0,0.0,0.0,0.0,0.0,0.0,0.0,0.0,0.0,0.0,0.0,0.0,0.0,0.0,0.0,0.0,0.0,0.0,0.0,0.0,0.0,0.0,0.0,0.0,0.0,0.0,0.0,0.0,0.0,0.0,0.0,0.0,0.0,0.0,0.0,0.0,0.0,0.0,0.0,0.0,0.0,0.0,0.0,6.2904,6.675,6.9562,7.1041,7.1797,7.2215,7.2094,7.0761,6.8821,0.0,0.0,0.0,0.0,0.0,0.0,0.0,0.0,0.0,0.0,0.0,0.0,0.0,0.0,0.0,0.0,0.0,0.0,0.0,0.0,0.0,0.0,0.0,0.0,0.0,0.0,0.0,0.0,0.0,0.0,0.0,0.0,0.0,0.0,0.0,0.0,0.0,0.0,0.0,0.0,5.6455,5.8657,6.1924,0.0,0.0,0.0,0.0,0.0,0.0,6.4016,6.2658,0.0,0.0,0.0,0.0,0.0,0.0,0.0,0.0,0.0,0.0,0.0,0.0,0.0,0.0,0.0,0.0,0.0,0.0,0.0,0.0,0.0,0.0,0.0,0.0,0.0,0.0,0.0,0.0,0.0,0.0,0.0,0.0,0.0,0.0,0.0,0.0,0.0,0.0,0.0,0.0,0.0,0.0,0.0,0.0,0.0,0.0,0.0,0.0,0.0,0.0,0.0,0.0,0.0,0.0,0.0,6.407,6.9335,7.236,7.2755,7.3747,7.4086,7.3665,7.1864,6.9527,0.0,0.0,0.0,0.0,0.0,0.0,0.0,0.0,0.0,0.0,0.0,0.0,0.0,0.0,0.0,0.0,0.0,0.0,0.0,0.0,0.0,0.0,0.0,0.0,0.0,0.0,0.0,0.0,0.0,0.0,0.0,0.0,0.0,0.0,0.0,0.0,0.0,0.0,0.0,0.0,0.0,6.13,6.5007,6.398,0.0,0.0,0.0,0.0,6.7247,6.6953,0.0,0.0,0.0,0.0,0.0,0.0,0.0,0.0,0.0,0.0,0.0,0.0,0.0,0.0,0.0,0.0,0.0,0.0,0.0,0.0,0.0,0.0,0.0,0.0,0.0,0.0,0.0,0.0,0.0,0.0,0.0,0.0,0.0,0.0,0.0,0.0,0.0,0.0,0.0,0.0,0.0,0.0,0.0,0.0,0.0,0.0,0.0,0.0,0.0,0.0,0.0,0.0,0.0,0.0,0.0,0.0,6.7252,7.0843,7.3501,7.5224,7.627,7.6828,7.6748,7.4029,7.135,0.0,0.0,0.0,0.0,0.0,0.0,0.0,0.0,0.0,0.0,0.0,0.0,0.0,0.0,0.0,0.0,0.0,0.0,0.0,0.0,0.0,0.0,0.0,0.0,0.0,0.0,0.0,0.0,0.0,0.0,0.0,0.0,0.0,0.0,0.0,0.0,0.0,0.0,0.0,0.0,0.0,6.3356,6.5999,6.6696,6.7063,0.0,0.0,6.9706,7.0624,7.066,0.0,0.0,0.0,0.0,0.0,0.0,0.0,0.0,0.0,0.0,0.0,0.0,0.0,0.0,0.0,0.0,0.0,0.0,0.0,0.0,0.0,0.0,0.0,0.0,0.0,0.0,0.0,0.0,0.0,0.0,0.0,0.0,0.0,0.0,0.0,0.0,0.0,0.0,0.0,0.0,0.0,0.0,0.0,0.0,0.0,0.0,0.0,0.0,0.0,0.0,0.0,0.0,0.0,0.0,0.0,6.4921,6.8565,7.3634,7.6348,7.663,7.7821,7.8179,7.7684,7.5014,7.2448,0.0,0.0,0.0,0.0,0.0,0.0,0.0,0.0,0.0,0.0,0.0,0.0,0.0,0.0,0.0,0.0,0.0,0.0,0.0,0.0,0.0,0.0,0.0,0.0,0.0,0.0,0.0,0.0,0.0,0.0,0.0,0.0,0.0,0.0,0.0,0.0,0.0,0.0,0.0,0.0,0.0,0.0,6.8054,6.8825,0.0,0.0,0.0,7.0917,7.1248,0.0,0.0,0.0,0.0,0.0,0.0,0.0,0.0,0.0,0.0,0.0,0.0,0.0,0.0,0.0,0.0,0.0,0.0,0.0,0.0,0.0,0.0,0.0,0.0,0.0,0.0,0.0,0.0,0.0,0.0,0.0,0.0,0.0,0.0,0.0,0.0,0.0,0.0,0.0,0.0,0.0,0.0,0.0,0.0,0.0,0.0,0.0,0.0,0.0,0.0,0.0,0.0,0.0,0.0,0.0,0.0,0.0,7.0271,7.6233,7.9071,7.8614,7.9628,7.9895,7.9245,7.68,0.0,0.0,0.0,0.0,0.0,0.0,0.0,0.0,0.0,0.0,0.0,0.0,0.0,0.0,0.0,0.0,0.0,0.0,0.0,0.0,0.0,0.0,0.0,0.0,0.0,0.0,0.0,4.265,0.0,0.0,0.0,0.0,0.0,0.0,0.0,0.0,0.0,0.0,0.0,0.0,0.0,0.0,6.6292,6.9889,7.0917,7.1725,0.0,0.0,7.2532,7.2496,7.2679,7.1872,0.0,0.0,0.0,0.0,0.0,0.0,0.0,0.0,0.0,0.0,0.0,0.0,0.0,0.0,0.0,0.0,0.0,0.0,0.0,0.0,0.0,0.0,0.0,0.0,0.0,0.0,0.0,0.0,0.0,0.0,0.0,0.0,0.0,0.0,0.0,0.0,0.0,0.0,0.0,0.0,0.0,0.0,0.0,0.0,0.0,0.0,0.0,0.0,0.0,0.0,0.0,0.0,0.0,0.0,0.0,7.3541,7.8052,8.0883,8.1799,8.2449,8.2722,8.2607,8.0238,7.7373,0.0,0.0,0.0,0.0,0.0,0.0,0.0,0.0,0.0,0.0,0.0,0.0,0.0,0.0,0.0,0.0,0.0,0.0,0.0,0.0,0.0,0.0,0.0,0.0,0.0,0.0,0.0,0.0,0.0,0.0,0.0,0.0,0.0,0.0,0.0,0.0,0.0,0.0,0.0,0.0,0.0,6.8385,7.0881,7.3156,7.4625,0.0,0.0,7.5799,7.5763,7.6387,7.5579,7.1688,0.0,0.0,0.0,0.0,0.0,0.0,0.0,0.0,0.0,0.0,0.0,0.0,0.0,0.0,0.0,0.0,0.0,0.0,0.0,0.0,0.0,0.0,0.0,0.0,0.0,0.0,0.0,0.0,0.0,0.0,0.0,0.0,0.0,0.0,0.0,0.0,0.0,0.0,0.0,0.0,0.0,0.0,0.0,0.0,0.0,0.0,0.0,0.0,0.0,0.0,0.0,0.0,0.0,7.0441,7.4615,7.9723,8.2479,8.2675,8.3408,8.3563,8.3028,8.1576,7.9474,0.0,0.0,0.0,0.0,0.0,0.0,0.0,0.0,0.0,0.0,0.0,0.0,0.0,0.0,0.0,0.0,0.0,0.0,0.0,0.0,0.0,0.0,0.0,0.0,0.0,0.0,0.0,0.0,5.77,5.8649,5.7892,0.0,0.0,0.0,0.0,0.0,0.0,0.0,0.0,0.0,0.0,7.1174,7.4515,7.5799,0.0,0.0,7.7011,7.668,7.6166,7.679,7.613,7.2606,7.1138,0.0,0.0,0.0,0.0,0.0,0.0,0.0,0.0,0.0,0.0,0.0,0.0,0.0,0.0,0.0,0.0,0.0,0.0,0.0,0.0,0.0,0.0,0.0,0.0,0.0,0.0,0.0,0.0,0.0,0.0,0.0,0.0,0.0,0.0,0.0,0.0,0.0,0.0,0.0,0.0,0.0,0.0,0.0,0.0,0.0,0.0,0.0,0.0,0.0,0.0,0.0,0.0,7.2456,7.6576,8.1782,8.45,8.4518,8.5129,8.5167,8.4518,8.3715,8.2225,0.0,0.0,0.0,0.0,0.0,0.0,0.0,0.0,0.0,0.0,0.0,0.0,0.0,0.0,0.0,0.0,0.0,0.0,0.0,0.0,0.0,0.0,0.0,0.0,0.0,0.0,0.0,0.0,6.1283,6.1385,5.9116,0.0,0.0,0.0,0.0,0.0,0.0,0.0,0.0,0.0,0.0,7.4221,7.7329,7.8198,7.8701,7.913,7.8651,7.8122,7.751,7.7694,7.7008,7.4485,0.0,0.0,0.0,0.0,0.0,0.0,0.0,0.0,0.0,0.0,0.0,0.0,0.0,0.0,0.0,0.0,0.0,0.0,0.0,0.0,0.0,0.0,0.0,0.0,0.0,0.0,0.0,0.0,0.0,0.0,4.4199,0.0,0.0,0.0,0.0,0.0,0.0,0.0,0.0,0.0,0.0,0.0,0.0,0.0,0.0,0.0,0.0,0.0,0.0,0.0,0.0,0.0,0.0,7.574,7.992,8.4358,8.7078,8.7842,8.7995,8.7918,8.7842,8.7116,8.5855,8.4098,0.0,0.0,0.0,0.0,0.0,0.0,0.0,0.0,0.0,0.0,0.0,0.0,0.0,0.0,0.0,0.0,0.0,0.0,0.0,0.0,0.0,0.0,0.0,0.0,0.0,0.0,6.0058,6.2122,6.2487,0.0,0.0,0.0,0.0,0.0,0.0,0.0,0.0,0.0,0.0,7.4661,7.7549,7.8688,8.021,8.1094,8.0607,8.0576,8.0559,8.0385,7.9792,7.8861,0.0,0.0,0.0,0.0,0.0,0.0,0.0,0.0,0.0,0.0,0.0,0.0,0.0,0.0,0.0,0.0,0.0,0.0,0.0,0.0,0.0,0.0,0.0,0.0,0.0,0.0,0.0,5.0894,5.327,0.0,0.0,0.0,0.0,0.0,0.0,0.0,0.0,0.0,0.0,0.0,6.6733,6.6733,0.0,0.0,0.0,0.0,0.0,0.0,0.0,0.0,0.0,0.0,0.0,0.0,7.7035,8.0313,8.4591,8.6658,8.639,8.6925,8.7269,8.7231,8.7536,8.6581,8.4365,0.0,0.0,0.0,0.0,0.0,0.0,0.0,0.0,0.0,0.0,0.0,0.0,0.0,0.0,0.0,0.0,0.0,0.0,0.0,0.0,0.0,0.0,0.0,0.0,0.0,6.1916,0.0,0.0,0.0,0.0,0.0,0.0,0.0,0.0,0.0,0.0,0.0,7.2614,7.5306,7.7916,8.003,8.1459,8.2149,8.2713,0.0,0.0,0.0,0.0,0.0,0.0,0.0,0.0,0.0,0.0,0.0,0.0,0.0,0.0,7.055,6.8458,6.9559,7.0844,7.0844,0.0,0.0,0.0,0.0,0.0,0.0,0.0,0.0,0.0,0.0,0.0,0.0,0.0,0.0,0.0,0.0,6.0524,0.0,0.0,0.0,0.0,0.0,0.0,0.0,0.0,7.0608,7.2308,7.2944,7.2721,7.3061,0.0,7.3189,7.061,0.0,0.0,0.0,0.0,0.0,0.0,0.0,0.0,7.8599,8.1308,8.5204,8.6963,8.6467,8.6963,8.7384,8.7689,8.853,8.8033,8.6123,8.4441,8.1232,0.0,0.0,0.0,0.0,0.0,0.0,0.0,0.0,0.0,0.0,0.0,0.0,0.0,0.0,0.0,0.0,0.0,0.0,0.0,0.0,0.0,0.0,0.0,6.5801,0.0,0.0,0.0,0.0,0.0,0.0,0.0,0.0,0.0,6.9532,7.3595,7.7292,7.9149,8.0934,8.2462,8.3541,0.0,0.0,0.0,0.0,0.0,0.0,0.0,8.3415,8.1747,8.1593,8.0933,7.8799,7.7659,7.7047,7.7011,0.0,0.0,7.367,7.4478,7.5763,7.5763,7.5983,7.6203,7.6203,7.7268,7.8222,0.0,0.0,0.0,0.0,0.0,0.0,0.0,0.0,6.6935,6.7098,0.0,6.7075,0.0,0.0,0.0,0.0,0.0,0.0,0.0,0.0,7.71,7.8983,7.9403,7.8648,7.8723,7.929,7.5959,7.5512,7.7564,7.6196,0.0,0.0,0.0,0.0,0.0,0.0,8.043,8.2949,8.6273,8.8033,8.7957,8.7995,8.8453,8.9294,9.0135,9.0173,8.937,8.7804,8.5397,8.1996,7.7182,0.0,0.0,0.0,0.0,0.0,0.0,0.0,0.0,0.0,0.0,0.0,0.0,0.0,0.0,0.0,0.0,0.0,0.0,0.0,0.0,6.8106,0.0,0.0,0.0,0.0,0.0,0.0,0.0,0.0,0.0,0.0,7.4573,7.8353,8.1543,8.2366,0.0,0.0,0.0,0.0,8.6651,8.6741,8.692,8.6958,8.6816,8.6241,8.5809,8.5723,0.0,0.0,8.2573,8.1709,8.1195,8.1195,8.2406,8.2039,7.7414,7.7341,7.7855,7.7855,7.8552,7.8883,7.9029,8.0828,8.2296,6.5413,0.0,0.0,0.0,0.0,6.3274,6.6713,7.2334,7.2071,7.341,7.5778,7.555,0.0,0.0,0.0,0.0,0.0,0.0,7.7722,7.9399,8.0921,8.2063,8.2866,8.2028,8.2104,8.2866,8.2375,8.2834,8.4131,8.4284,8.1039,7.4714,0.0,0.0,0.0,0.0,8.1842,8.3906,8.6084,8.6887,8.6275,8.6849,8.8148,9.0173,9.0478,9.0746,9.1052,9.0631,8.853,8.4632,8.2493,0.0,0.0,0.0,0.0,0.0,0.0,0.0,0.0,0.0,0.0,0.0,0.0,0.0,0.0,0.0,0.0,0.0,0.0,0.0,6.7525,7.1439,7.3076,0.0,0.0,0.0,0.0,0.0,0.0,0.0,0.0,0.0,8.1805,8.3235,8.4501,0.0,0.0,8.635,8.6416,8.6707,8.7284,8.8142,0.0,0.0,0.0,8.8842,8.862,8.8451,8.7717,8.6821,8.5772,8.5453,8.5306,8.527,8.5637,8.549,8.4315,8.4058,8.4168,8.4242,8.4425,8.4609,8.4646,8.5233,8.5783,7.4851,7.1259,6.6751,6.6636,6.9349,6.9387,7.2559,7.7678,7.7335,7.8139,7.9667,8.0011,7.9209,7.7494,7.7226,0.0,0.0,0.0,8.1002,8.2721,8.3217,8.3944,8.4709,8.425,8.425,8.4709,8.425,8.4824,8.6275,8.5817,8.3791,8.0163,0.0,0.0,8.1156,8.2186,8.3562,8.5244,8.6619,8.704,8.6543,8.7345,8.853,9.002,9.0402,9.0822,9.1319,9.1625,9.0326,8.7154,8.5932,8.276,0.0,0.0,0.0,0.0,0.0,0.0,0.0,0.0,0.0,0.0,0.0,6.2395,0.0,0.0,0.0,0.0,7.0773,7.1006,7.3298,7.5279,0.0,0.0,0.0,0.0,0.0,0.0,0.0,7.7298,8.0766,8.3859,8.599,8.6898,8.7409,8.756,8.742,8.7544,8.815,0.0,8.888,9.0243,9.0342,9.0447,9.1081,9.1111,9.0932,9.065,8.9984,8.9295,8.8801,8.871,8.871,8.871,8.871,8.8646,8.8391,8.8324,8.7998,8.7211,8.7288,8.7472,8.7472,8.7986,8.861,8.299,8.2187,7.2979,7.1833,7.5997,7.615,7.8825,8.299,8.2378,8.169,8.1079,8.1843,8.127,7.9743,8.0389,0.0,8.085,8.1575,8.2835,8.448,8.4403,8.4862,8.5702,8.5626,8.5664,8.5664,8.3372,8.3486,8.5664,8.3486,8.3524,8.5817,8.5015,8.4556,8.448,8.4518,8.532,8.6887,8.7689,8.811,8.811,8.8835,8.9256,8.9409,9.0211,9.0669,9.0708,9.1395,9.1052,8.937,8.788,8.5932,8.3219,0.0,0.0,0.0,0.0,0.0,0.0,0.0,0.0,0.0,0.0,0.0,0.0,0.0,0.0,0.0,7.9245,0.0,8.0277,7.913,0.0,0.0,0.0,7.6159,7.6922,7.8484,8.0121,8.172,0.0,0.0,8.7909,0.0,9.0193,8.9336,8.8569,8.86,8.9991,9.0441,9.1102,9.2421,9.2764,9.284,9.2764,9.297,9.2916,9.2455,9.1914,9.1583,9.1432,9.1412,9.1432,9.1375,9.1527,9.1296,9.0727,9.0701,9.0063,8.8072,8.7982,8.828,8.8353,8.9307,9.0262,8.299,8.2798,8.0391,8.0124,8.127,8.192,8.2875,8.3983,8.4441,8.4862,8.532,8.5511,8.5357,8.4975,8.5126,8.4899,8.4288,8.4478,8.5128,8.6123,8.5511,8.6008,8.7422,8.681,8.6849,8.7422,8.6887,8.7231,8.8301,8.7192,8.7536,8.9218,8.7918,8.6849,8.6237,8.6199,8.6734,8.7766,8.7995,8.811,8.811,8.8262,8.8988,9.0249,9.0517,9.0899,9.151,9.1701,9.1013,8.9409,8.9561,8.8262,8.5053,8.3028,0.0,0.0,0.0,0.0,0.0,0.0,0.0,0.0,0.0,7.275,7.4163,0.0,8.1156,0.0,8.3142,8.2569,7.8939,8.0544,0.0,0.0,8.0507,8.0583,8.1385,8.2912,8.4362,8.5393,8.7228,8.8756,8.9825,9.0818,9.1658,9.1997,9.1788,9.1697,9.2162,9.2245,9.2449,9.3028,9.3677,9.3982,9.4096,9.4561,9.4769,9.4212,9.397,9.372,9.3238,9.3122,9.3122,9.3122,9.3122,9.3064,9.2945,9.2885,9.2773,9.2081,9.0572,8.9124,8.9124,8.9491,8.9895,8.49,8.5282,8.5282,8.5244,8.5167,8.4174,8.3715,8.3754,8.4212,8.4671,8.5129,8.5511,8.5893,8.6275,8.6658,8.6543,8.6123,8.6505,8.6925,8.7345,8.6887,8.7192,8.8071,8.7613,8.7613,8.8071,8.811,8.853,8.9256,8.8835,8.9485,9.109,9.0211,8.9676,8.9561,8.8492,8.8721,9.0326,9.0708,9.0899,9.0899,9.0517,9.0784,9.1663,9.1357,9.1357,9.1778,9.1816,9.1204,8.9982,9.0364,8.9752,8.788,8.5893,8.3448,0.0,0.0,0.0,0.0,0.0,0.0,0.0,0.0,0.0,0.0,0.0,8.4518,8.4174,8.4976,8.4212,8.1117,8.2493,8.3677,8.3983,8.4021,8.448,8.5664,8.6963,8.811,8.895,9.0173,9.1166,9.1663,9.2771,9.365,9.4146,9.47,9.4845,9.4242,9.444,9.4822,9.5293,9.5751,9.6057,9.6057,9.6401,9.6616,9.6305,9.6208,9.6071,9.5688,9.5636,9.5636,9.5636,9.5636,9.5582,9.5365,9.5216,9.5103,9.4373,9.3174,9.1855,9.1085,9.09,9.1016,8.7384,8.811,8.811,8.811,8.788,8.49,8.3639,8.3639,8.3639,8.3639,8.3715,8.4441,8.5167,8.5893,8.6619,8.6963,8.704,8.788,8.8262,8.8224,8.8377,8.8453,8.8568,8.8568,8.8606,8.8721,8.8721,8.9103,8.9791,8.9791,9.0517,9.193,9.1969,9.2351,9.2962,9.0899,9.0899,9.3077,9.3841,9.4261,9.4223,9.3497,9.3115,9.3077,9.2351,9.1969,9.1969,9.1969,9.1625,9.0975,9.0937,9.0975,9.1013,8.8148,8.6123,0.0,8.2302,0.0,0.0,0.0,0.0,0.0,0.0,0.0,0.0,8.6237,8.6772,8.5893,8.5817,8.555,8.4824,8.4862,8.5511,8.6963,8.7345,8.8033,8.9447,9.0402,9.1204,9.1892,9.2733,9.3306,9.3459,9.4796,9.5751,9.5981,9.7165,9.7502,9.6477,9.6592,9.7165,9.8044,9.8082,9.7815,9.7853,9.7967,9.8006,9.8044,9.7922,9.8082,9.796,9.796,9.7998,9.7998,9.7876,9.7782,9.7389,9.7248,9.689,9.5906,9.5582,9.4979,9.3374,9.2869,9.2801,8.7957,8.811,8.811,8.811,8.8033,8.7384,8.7116,8.7154,8.7116,8.7116,8.7154,8.7307,8.746,8.7613,8.7766,8.7842,8.7918,8.8721,8.9103,8.9103,8.9829,9.0478,9.109,9.109,9.1472,9.2121,9.216,9.2236,9.2389,9.2389,9.2542,9.2847,9.2847,9.2924,9.3077,0.0,0.0,0.0,9.3268,9.3344,9.3344,9.3191,9.3115,9.3115,9.2962,0.0,9.2847,9.2847,9.2809,9.2656,9.2618,0.0,0.0,0.0,0.0,0.0,0.0,0.0,0.0,0.0,0.0,0.0,8.7766,8.7422,8.7384,8.8262,8.8492,8.7689,8.7613,8.7536,8.7384,8.7995,8.8492,8.8835,9.002,9.0975,9.1357,9.2121,9.2695,9.2847,9.365,9.4414,9.5064,9.6019,9.6898,9.7585,9.8502,9.8999,9.8732,9.8235,9.7967,9.812,9.8235,9.8158,9.8082,9.8158,9.8273,9.8082,9.8082,9.8158,9.8197,9.8158,9.8158,9.8158,9.8082,9.8113,9.7982,9.7943,9.7925,9.7578,9.7566,9.6852,9.4578,9.4007,9.4115,9.1434,0.0,9.1816,9.1816,0.0,9.1816,9.1778,9.1663,8.9561,8.8912,8.9332,8.9752,8.9714,8.937,9.0211,9.0555,9.0593,9.1013,9.1395,9.1816,9.1854,9.2045,9.2427,9.2465,9.2695,9.3115,9.3115,9.3344,9.3726,9.3726,9.4185,9.4987,9.4987,9.5178,9.556,9.556,9.5178,9.4338,9.514,9.556,9.556,9.556,9.556,9.556,0.0,0.0,0.0,0.0,0.0,0.0,0.0,0.0,0.0,0.0,0.0,9.3115,9.2274,9.2007,9.2389,9.2007,9.2504,9.4146,9.3917,9.2771,9.0746,9.1319,9.1434,9.0631,9.0173,8.9905,8.9944,9.0287,9.0708,9.1128,9.193,9.2733,9.3535,9.407,9.4681,9.5484,9.5942,9.6401,9.6783,9.7967,9.8808,9.9305,10.0107,10.0642,10.0566,9.9878,9.9343,9.9343,9.9343,9.9343,9.9343,9.9343,9.9305,9.9343,9.9343,9.9343,9.9343,9.9343,9.9343,9.9343,9.9343,9.9343,9.9343,9.9343,9.925,9.8933,9.8883,9.8394,9.6704,9.5848,9.5284,9.472,9.514,9.514,9.514,9.514,9.514,9.5255,9.514,0.0,0.0,0.0,9.1816,9.1663,9.1166,9.2504,9.3115,9.3115,9.3268,9.3803,9.4567,9.4032,9.3841,9.3994,9.3994,9.3994,9.3994,9.3994,9.4338,9.5025,9.5064,9.5751,9.7012,9.7127,9.7432,9.8044,9.8082,9.7432,9.6172,9.7394,9.8082,9.8082,9.8082,9.8082,9.8082,9.7471,9.6783,9.6057,9.5369,9.4681,9.407,9.4681,9.514,9.5293,9.5904,9.5981,9.5369,9.5293,9.5904,9.7241,9.7356,9.7967,9.9496,9.9114,9.7394,9.4223,9.449,9.449,9.3841,9.2962,9.2542,9.2695,9.2847,9.3268,9.4108,9.4338,9.5025,9.6286,9.6477,9.705,9.8273,9.8502,9.8617,9.8808,9.9916,10.0909,10.11,10.1635,10.2132,10.1979,10.1139,10.0451,10.0451,10.0375,10.0527,10.0566,10.0489,10.0604,10.0451,10.0489,10.0604,10.0604,10.0718,10.0871,10.1062,10.1062,10.1139,10.1253,10.133,10.111,10.0632,10.0678,10.0609,9.995,9.8772,9.7734,9.407,9.3459,9.3459,9.3459,9.3459,9.3459,9.3879,9.4529,9.3917,9.3764,9.3841,9.3191,9.2847,9.2771,9.3,9.3115,9.3153,9.3879,9.4643,0.0,9.6057,9.6745,9.7394,9.7394,9.7432,9.7394,9.7394,9.7471,9.7585,9.7547,9.7738,9.7891,9.7929,9.8006,9.8082,9.8082,9.8006,9.7776,9.7967,9.8082,9.8082,9.8082,9.8082,9.8082,9.8006,9.7891,9.7738,9.7623,9.7509,9.7432,9.7509,9.7929,9.8655,9.877,9.8808,9.8732,9.8693,9.8808,9.9037,9.9037,9.9458,10.0375,10.1024,10.026,9.7662,9.6859,9.6477,9.6324,9.5637,9.5369,9.6095,9.6745,9.7394,9.8273,9.9075,9.9649,9.9763,9.9763,9.9878,10.0222,10.026,10.0566,10.1139,10.1559,10.2056,10.2629,10.2973,10.3049,10.2782,10.1635,10.0718,10.0604,10.0604,10.0604,10.0871,10.0642,10.0948,10.0604,10.0833,10.1062,10.1024,10.1521,10.2132,10.2705,10.282,10.3087,10.3622,10.389,10.3765,10.3667,10.4125,10.4494,10.4226,10.3618,10.2375,9.7637,9.7292,9.7254,9.721,9.7165,9.7165,9.7394,9.77,9.7318,9.6592,9.5866,9.6286,9.6248,9.5866,9.6324,9.6515,9.6515,9.6439,9.6859,9.7623,9.7585,9.7738,9.8082,9.8082,9.8082,9.8082,9.8082,9.8082,9.8082,9.8082,9.8349,9.8808,9.9228,9.9458,9.9496,9.9916,10.0183,10.0145,9.9266,9.8808,9.8808,9.9228,9.9458,9.9458,9.9458,9.9228,9.8808,9.8808,9.8579,9.812,9.8541,9.919,9.9992,10.0489,10.0986,10.1406,10.1444,10.1444,10.1444,10.1444,10.1597,10.1979,10.2361,10.2323,10.1597,10.0795,10.0145,9.9649,9.9228,9.8961,9.8923,9.9228,9.961,9.9992,10.0413,10.0795,10.1215,10.1292,10.1483,10.1903,10.2018,10.217,10.2552,10.2973,10.3355,10.3813,10.4195,10.4386,10.3966,10.3622,10.3011,10.2247,10.2361,10.2629,10.2667,10.3508,10.3737,10.3469,10.3737,10.3775,10.3508,10.3775,10.4081,10.4463,10.4577,10.4883,10.5647,10.5762,10.5953,10.6412,10.6297,10.6412,10.6286,10.6096,10.4942,10.0404,10.0251,10.0168,10.0122,10.0031,10.0031,10.0031,9.9992,9.9534,9.8655,9.7738,9.8655,9.8732,9.8235,9.8808,9.9114,9.9037,9.8426,9.8579,9.9266,9.8732,9.8502,9.8655,9.8655,9.8655,9.8693,9.8655,9.8655,9.8693,9.8846,9.9381,10.0222,10.0871,10.1177,10.1215,10.1865,10.2209,10.2132,10.0909,10.0145,9.9992,10.0375,10.0604,10.0604,10.0566,10.0298,9.9725,9.9649,9.9343,9.877,9.9496,10.026,10.0918,10.1759,10.2523,10.3182,10.3258,10.3373,10.3564,10.3708,10.3823,10.3823,10.3775,10.4043,10.4539,10.4119,10.3393,10.2629,10.2209,10.1903,10.1559,10.1444,10.1521,10.1712,10.175,10.217,10.2667,10.2782,10.3011,10.3622,10.3775,10.3775,10.3852,10.431,10.473,10.5036,10.5724,10.5915,10.5495,10.5877,10.5609,10.4845,10.4577,10.4577,10.4769,10.5571,10.6029,10.5762,10.6029,10.5877,10.5609,10.5724,10.6068,10.6182,10.645,10.6946,10.7596,10.8016,10.836,10.8933,10.9086,10.8972,10.9315,10.9315,10.7926,9.9294,9.8566,9.8554,9.8349,9.8464,9.8464,9.8464,9.8541,9.9075,9.9343,9.9114,9.8502,9.8273,9.812,9.8273,9.8388,9.8349,9.8158,9.8617,9.9381,9.9305,9.9649,10.0298,10.0375,10.0375,10.0375,10.0375,10.0375,10.0413,10.1139,10.1941,10.2743,10.2896,10.2896,10.2935,10.3011,10.3087,10.3087,10.2896,10.2476,10.1674,10.0948,10.0604,10.0604,10.0604,10.0566,10.0489,10.0489,10.0451,10.0451,10.1139,10.1721,10.2004,10.2739,10.3282,10.3487,10.3487,10.3793,10.4598,10.5273,10.561,10.5648,10.5428,10.5418,10.5533,10.5456,10.5112,10.4272,10.3469,10.3393,10.3966,10.3966,10.4157,10.4692,10.4883,10.5303,10.5151,10.5342,10.538,10.5456,10.5265,10.5456,10.538,10.5571,10.5877,10.645,10.7252,10.7749,10.7634,10.7787,10.8016,10.7481,10.6679,10.5838,10.5838,10.5686,10.6373,10.6106,10.5953,10.6412,10.6717,10.6985,10.7099,10.8857,10.878,10.9506,11.0271,11.092,11.1455,11.1646,11.241,11.3671,11.455,11.4283,11.2496,10.0352,10.0045,9.9965,9.9879,9.9797,9.9747,9.9664,9.974,10.0,10.0107,10.0069,9.9725,9.9572,9.9572,9.9572,9.9572,9.9572,9.9572,9.9763,10.0107,10.0107,10.0566,10.133,10.1368,10.1635,10.2094,10.2132,10.2132,10.2209,10.2514,10.2858,10.3164,10.3202,10.3202,10.324,10.366,10.389,10.3928,10.389,10.3737,10.3317,10.2552,10.2132,10.2094,10.1635,10.1368,10.133,10.0909,10.0604,10.0604,10.0948,10.1597,10.2723,10.3067,10.3717,10.4644,10.4797,10.495,10.5295,10.5591,10.5783,10.5783,10.5734,10.5686,10.5686,10.5686,10.5533,10.5227,10.4845,10.4845,10.5112,10.5151,10.5342,10.5647,10.5686,10.5686,10.5686,10.5724,10.5686,10.5686,10.5686,10.5915,10.6373,10.687,10.729,10.7711,10.8398,10.8933,10.8972,10.9354,10.9889,11.0232,10.9812,10.901,10.8284,10.8857,10.901,10.8933,10.9506,11.0118,11.008,11.0844,11.1684,11.2372,11.2257,11.2563,11.3557,11.3404,11.3557,11.4015,11.3862,11.4512,11.4321,11.4626,11.3709,10.1206,10.1206,10.1126,10.1085,10.1,10.0913,10.0831,10.0787,10.0696,10.0765,10.0909,10.0718,10.0757,10.0909,10.0718,10.0604,10.0604,10.0604,10.0757,10.0948,10.0948,10.1406,10.2209,10.2285,10.2591,10.3087,10.3164,10.3278,10.3469,10.3546,10.3622,10.3813,10.389,10.389,10.3966,10.4692,10.5074,10.5112,10.5265,10.5418,10.538,10.4883,10.4119,10.324,10.2591,10.2247,10.2247,10.1635,10.133,10.1338,10.1568,10.2302,10.3535,10.3879,10.4614,10.5686,10.5878,10.5878,10.5878,10.5878,10.583,10.583,10.583,10.5783,10.5734,10.5773,10.5773,10.5686,10.5915,10.5953,10.5724,10.5686,10.5686,10.5686,10.5686,10.5762,10.5991,10.6029,10.6144,10.6335,10.6526,10.6564,10.7214,10.794,10.8513,10.8589,10.943,11.0118,11.0232,11.0844,11.1646,11.2219,11.2296,11.1799,11.0806,11.1188,11.1875,11.1875,11.2257,11.2831,11.3442,11.413,11.4932,11.4397,11.4817,11.5085,11.5352,11.5314,11.562,11.6269,11.6269,11.5849,11.6269,11.6078,11.6269,10.1206,10.1167,10.1043,10.1081,10.1,10.1,10.0957,10.0946,10.0825,10.1155,10.1635,10.0986,10.1062,10.1788,10.1024,10.0604,10.0604,10.0718,10.1139,10.1788,10.1865,10.2323,10.3087,10.3126,10.3202,10.3431,10.3546,10.3813,10.4463,10.4425,10.4769,10.5533,10.5609,10.5609,10.5686,10.6373,10.6794,10.6832,10.7558,10.7978,10.7978,10.794,10.6412,10.3928,10.324,10.3278,10.3164,10.3087,10.3097,10.316,10.3811,10.4476,10.4889,10.5541,10.6084,10.6322,10.6364,10.6402,10.6361,10.6276,10.6271,10.6271,10.6215,10.6009,10.6146,10.6098,10.605,10.58,10.6526,10.6564,10.5991,10.5991,10.5915,10.5877,10.58,10.6144,10.6794,10.6832,10.7252,10.7787,10.794,10.7978,10.8131,10.8857,10.9354,10.9774,11.0844,11.1875,11.1952,11.2563,11.3022,11.3174,11.3213,11.3098,11.3022,11.2792,11.2907,11.3098,11.3303,11.3748,11.4091,11.4665,11.5696,11.6422,11.6422,11.6613,11.6843,11.7263,11.7836,11.8409,11.8829,11.8791,11.8753,11.9937,11.9823,10.1288,10.1248,10.117,10.1477,10.1938,10.1395,10.1392,10.1771,10.1723,10.1833,10.2056,10.1788,10.2095,10.2861,10.2018,10.1545,10.1483,10.1979,10.2438,10.2705,10.2743,10.3164,10.389,10.3966,10.431,10.4807,10.5303,10.5991,10.6755,10.6832,10.6985,10.7214,10.729,10.729,10.7443,10.8131,10.8513,10.8589,10.9354,10.9774,10.9774,10.9812,10.9163,10.8016,10.6412,10.5303,10.4807,10.4807,10.431,10.3297,10.4109,10.4661,10.4828,10.5608,10.6074,10.6156,10.6156,10.6386,10.6885,10.6918,10.7187,10.7641,10.7626,10.7456,10.7485,10.7437,10.734,10.7329,10.7481,10.7558,10.7405,10.729,10.729,10.729,10.729,10.7367,10.7634,10.7711,10.7863,10.8207,10.8628,10.8972,10.9392,11.0194,11.1035,11.1226,11.2525,11.3366,11.3595,11.3862,11.4221,11.4655,11.4412,11.4259,11.4885,11.38,11.3366,11.4068,11.4617,11.5696,11.6346,11.7339,11.8409,11.9785,11.9441,11.9135,11.9708,11.9632,12.0167,12.0663,12.1045,12.1198,12.1351,12.1733,12.1351,10.1289,10.1289,10.1289,10.1827,10.2481,10.1902,10.1938,10.2435,10.2581,10.2692,10.2687,10.2649,10.3109,10.3722,10.3301,10.3135,10.3144,10.325,10.3364,10.3546,10.3584,10.4157,10.5074,10.5227,10.5686,10.645,10.7023,10.7634,10.8169,10.8437,10.8437,10.8207,10.8437,10.8437,10.8398,10.901,10.9506,10.9927,11.0691,11.1111,11.1149,11.1379,11.134,11.0958,10.9659,10.8398,10.7367,10.7329,10.6832,10.5925,10.6328,10.669,10.6859,10.7104,10.75,10.773,10.7538,10.7615,10.8075,10.796,10.8031,10.8523,10.8554,10.8461,10.8404,10.8356,10.8307,10.8257,10.8525,10.864,10.8704,10.9086,10.9124,10.8437,10.8207,10.8322,10.8551,10.8589,10.8895,10.9468,11.0003,11.0423,11.1035,11.2105,11.2678,11.2831,11.4053,11.4779,11.4603,11.4832,11.51,11.5702,11.5305,11.5573,11.6261,11.5941,11.5543,11.6094,11.6782,11.7798,11.902,12.009,12.1198,12.265,12.3032,12.2612,12.2345,12.223,12.2497,12.2956,12.3185,12.3338,12.3223,12.2956,12.2841,10.1366,10.1443,10.1327,10.202,10.2789,10.2674,10.2555,10.2819,10.3472,10.3775,10.3728,10.3651,10.4265,10.4764,10.4879,10.5211,10.5503,10.4461,10.4185,10.4616,10.4616,10.5418,10.6755,10.6794,10.729,10.8169,10.8246,10.8284,10.8589,10.9201,10.9201,10.8628,10.9239,10.9277,10.836,10.9315,10.9965,11.0729,11.1608,11.2066,11.2105,11.2831,11.2907,11.2334,11.2563,11.2105,11.0691,11.0614,11.0398,11.0383,11.0547,11.0913,11.0648,11.0281,11.0444,11.0671,11.0444,11.0098,10.9983,10.9286,10.8859,10.9003,10.8849,10.8907,10.8844,10.8767,10.8758,10.8842,10.9339,10.9733,10.9939,11.0958,11.1073,10.8857,10.8895,10.9277,10.9659,10.9583,11.008,11.1455,11.1875,11.2678,11.3824,11.413,11.4091,11.4283,11.5047,11.5597,11.5191,11.5444,11.5711,11.6084,11.607,11.6399,11.7447,11.8365,11.8349,11.8485,11.9173,12.009,12.1542,12.2727,12.3644,12.4866,12.479,12.4446,12.4293,12.4217,12.4446,12.4828,12.5134,12.5248,12.5287,12.5096,12.4981,10.3097,10.3097,10.3097,10.3558,10.4212,10.3712,10.4057,10.5133,10.548,10.5515,10.563,10.6088,10.6591,10.6745,10.6822,10.7159,10.7762,10.7173,10.6988,10.7034,10.7023,10.7252,10.7711,10.7825,10.8551,10.9697,10.9927,11.0232,11.0691,11.1035,11.1086,11.1022,11.1048,11.1124,11.0831,11.1124,11.134,11.1723,11.3022,11.3709,11.3786,11.4474,11.4779,11.4588,11.4283,11.3786,11.3327,11.2858,11.2029,11.1007,11.1621,11.1838,11.1473,11.1209,11.0944,11.0598,11.0367,11.0214,11.0175,11.0021,11.006,11.0435,11.0507,11.0456,11.041,11.0403,11.0539,11.0941,11.1745,11.2143,11.2373,11.3074,11.2945,11.1799,11.2181,11.2563,11.2983,11.3022,11.2907,11.2754,11.2831,11.3098,11.3595,11.4091,11.4626,11.4779,11.5734,11.6438,11.6361,11.6399,11.724,11.815,11.7715,11.7508,11.9015,12.0277,12.0719,12.1045,12.1733,12.2383,12.3835,12.5057,12.6013,12.6548,12.6471,12.6357,12.6204,12.6089,12.6165,12.6127,12.6051,12.6509,12.7197,12.7121,12.6624,10.452,10.4828,10.4828,10.5328,10.5982,10.5482,10.5867,10.6867,10.7213,10.7175,10.7136,10.8136,10.8636,10.8713,10.8983,10.9474,11.004,11.0027,11.0079,10.9924,10.8995,10.8919,10.9301,10.9963,11.0422,11.111,11.1302,11.1378,11.1684,11.194,11.199,11.1822,11.194,11.2003,11.2193,11.208,11.2219,11.2945,11.3939,11.4474,11.4665,11.5276,11.5543,11.5276,11.5047,11.497,11.4894,11.4554,11.3571,11.2281,11.2589,11.2735,11.2396,11.2363,11.2175,11.1714,11.1329,11.1137,11.1098,11.0906,11.0825,11.1319,11.1621,11.1922,11.2145,11.2282,11.2819,11.327,11.3644,11.3775,11.3571,11.4133,11.4387,11.4259,11.3967,11.4387,11.4745,11.4477,11.4171,11.3789,11.3776,11.4081,11.4745,11.5023,11.5482,11.5673,11.6667,11.7317,11.7279,11.7317,11.8288,11.8938,11.854,11.919,12.0927,12.1981,12.2918,12.3605,12.4255,12.4943,12.5936,12.693,12.7885,12.8343,12.8458,12.8114,12.7923,12.7274,12.7082,12.7006,12.6968,12.7426,12.7885,12.7808,12.7426,10.579,10.6521,10.6559,10.7021,10.779,10.7752,10.7944,10.8213,10.8829,10.8829,10.8598,10.9906,11.0406,11.056,11.1137,11.1824,11.2466,11.2383,11.2606,11.2465,11.1334,11.0596,11.1209,11.2484,11.2839,11.2379,11.2455,11.212,11.1689,11.2281,11.1975,11.1804,11.222,11.2322,11.2488,11.2233,11.2831,11.39,11.4359,11.4565,11.4603,11.5329,11.5444,11.4832,11.5214,11.552,11.5649,11.5639,11.5077,11.3813,11.3903,11.408,11.4003,11.4093,11.4099,11.3868,11.3253,11.2829,11.2637,11.2329,11.194,11.2005,11.2543,11.2913,11.3557,11.4026,11.4457,11.467,11.4853,11.4602,11.4081,11.4528,11.5217,11.5562,11.4988,11.4464,11.3961,11.4076,11.4514,11.4936,11.5012,11.5421,11.6889,11.6988,11.7064,11.7217,11.7699,11.7737,11.7715,11.7852,11.8365,11.8884,11.9572,12.114,12.2898,12.3471,12.4408,12.5554,12.6165,12.67,12.7503,12.8479,12.9052,12.9588,12.9566,12.9413,12.9108,12.8191,12.7808,12.777,12.7923,12.8229,12.8382,12.8382,12.842,10.8021,10.8213,10.8252,10.8752,10.9483,10.956,11.0252,11.1329,11.156,11.1445,11.1598,11.2522,11.256,11.2175,11.2945,11.3483,11.3593,11.3542,11.3535,11.3719,11.3826,11.328,11.3194,11.3999,11.4076,11.3424,11.3817,11.3769,11.3079,11.3556,11.3824,11.3922,11.3698,11.3903,11.3993,11.3291,11.3202,11.3647,11.4349,11.4707,11.486,11.5613,11.5893,11.5702,11.5395,11.5548,11.5932,11.6157,11.609,11.563,11.5694,11.5785,11.5708,11.5753,11.5522,11.4984,11.4753,11.4291,11.3868,11.4022,11.4253,11.4247,11.4286,11.4632,11.474,11.4516,11.467,11.5086,11.5571,11.5783,11.5658,11.6108,11.6491,11.631,11.6453,11.6672,11.63,11.6315,11.6379,11.657,11.6467,11.7026,11.7676,11.7982,11.7874,11.7967,11.8196,11.8447,11.854,11.9152,11.9955,12.0796,12.1657,12.33,12.4599,12.5096,12.5974,12.7274,12.7808,12.7923,12.8747,12.9608,12.9838,13.005,12.9226,12.8861,12.8785,12.8267,12.8305,12.8267,12.8305,12.8343,12.8955,12.9222,12.9413,10.9829,11.0483,11.0521,11.1021,11.1752,11.1791,11.2368,11.3137,11.3253,11.3253,11.3445,11.4176,11.4291,11.3907,11.4676,11.5022,11.5022,11.4933,11.4971,11.5048,11.5394,11.5271,11.5033,11.5417,11.5101,11.441,11.4794,11.4487,11.3911,11.4162,11.4354,11.4325,11.4344,11.4487,11.4804,11.4361,11.4196,11.4567,11.5345,11.5855,11.5893,11.671,11.7143,11.7143,11.6721,11.676,11.7193,11.7366,11.7107,11.6616,11.6701,11.6907,11.6561,11.6869,11.6638,11.5869,11.5792,11.5561,11.5253,11.5561,11.5599,11.5445,11.5561,11.5792,11.583,11.5561,11.5907,11.6369,11.6654,11.6608,11.6454,11.6704,11.6714,11.6578,11.7529,11.7904,11.7136,11.7461,11.7783,11.7886,11.805,11.8288,11.8877,11.8632,11.8387,11.8464,11.9075,11.9517,11.9976,12.0854,12.1619,12.2383,12.3109,12.4446,12.5268,12.5727,12.6243,12.7562,12.8385,12.8729,12.8976,12.9723,12.9667,12.9361,12.8787,12.8461,12.8594,12.8534,12.8305,12.8229,12.8305,12.8496,12.9031,12.9604,12.9872,11.1329,11.2714,11.2791,11.333,11.3984,11.4099,11.4099,11.4253,11.433,11.433,11.4484,11.5099,11.5368,11.5484,11.5907,11.6407,11.6407,11.6215,11.633,11.6292,11.6369,11.6247,11.617,11.6208,11.5862,11.5285,11.533,11.4984,11.4471,11.4195,11.4234,11.4503,11.4248,11.444,11.5169,11.5198,11.5571,11.6185,11.6951,11.7423,11.7538,11.8075,11.8431,11.8469,11.8661,11.8508,11.8661,11.8874,11.8537,11.6847,11.7477,11.733,11.683,11.7407,11.7215,11.6599,11.6369,11.6369,11.6484,11.6446,11.6369,11.5984,11.6369,11.6599,11.6676,11.6907,11.71,11.7138,11.7546,11.7,11.6578,11.6416,11.677,11.7093,11.7753,11.7677,11.7323,11.7999,11.8825,11.9017,11.9456,11.9672,11.9711,11.9351,11.8808,11.9763,12.0375,12.1045,12.1733,12.2497,12.3185,12.3797,12.4522,12.5287,12.5841,12.6243,12.6721,12.7486,12.8232,12.8577,12.8346,12.8691,12.8652,12.8499,12.8749,12.892,12.9031,12.8878,12.8573,12.8802,12.9222,12.8993,12.884,12.9451,12.9872,11.2368,11.2753,11.3445,11.4214,11.4945,11.5022,11.5368,11.5869,11.5907,11.583,11.5945,11.6138,11.6176,11.6215,11.6369,11.6484,11.6522,11.6522,11.6484,11.6484,11.6484,11.6484,11.6561,11.6638,11.6099,11.5638,11.5945,11.5792,11.5285,11.5586,11.5763,11.5801,11.5801,11.5745,11.5965,11.6675,11.7011,11.7308,11.8086,11.8557,11.8643,11.8921,11.9161,11.9122,11.9584,11.9545,11.9392,12.0323,12.0438,11.9477,11.8407,11.7677,11.7523,11.7176,11.6907,11.6792,11.6599,11.6561,11.6638,11.7176,11.7446,11.7215,11.7215,11.7523,11.7446,11.6984,11.6869,11.6753,11.6753,11.6708,11.6785,11.7131,11.7785,11.8484,11.9177,11.9592,11.9344,11.8968,11.9405,12.0031,11.9987,11.984,12.0545,12.0987,12.0931,12.1292,12.1904,12.2688,12.3414,12.414,12.4599,12.5057,12.5401,12.6013,12.6415,12.6874,12.7313,12.7676,12.8268,12.8518,12.8251,12.8499,12.8825,12.9017,12.9131,12.9303,12.9413,12.9604,12.9375,12.9795,13.0101,12.991,12.9795,12.9986,12.991,11.3522,11.3945,11.4407,11.5099,11.5792,11.5869,11.6099,11.6446,11.6484,11.6484,11.6484,11.6484,11.6484,11.6484,11.6484,11.6484,11.6599,11.6946,11.7138,11.7253,11.7484,11.7753,11.7715,11.7561,11.7138,11.6215,11.6715,11.6792,11.6792,11.717,11.7623,11.7623,11.7585,11.7577,11.7529,11.7999,11.8191,11.8384,11.9075,11.9584,11.9584,12.0015,11.9985,11.9792,12.0023,11.9908,11.9331,12.0254,12.0408,11.9677,11.8523,11.8023,11.8331,11.7984,11.7715,11.7715,11.7715,11.7715,11.7907,11.8061,11.8215,11.7792,11.7792,11.7523,11.7292,11.6715,11.6561,11.6484,11.6561,11.6753,11.7638,11.8484,11.9292,12.01,12.06,12.0929,12.1014,12.0722,12.0428,12.0959,12.0851,12.0987,12.1428,12.1848,12.1962,12.1828,12.2994,12.3873,12.4752,12.5401,12.5745,12.6089,12.6242,12.6586,12.7026,12.7486,12.7962,12.8247,12.8532,12.8536,12.8347,12.8844,12.9476,12.9419,12.9226,12.9532,12.9642,12.9872,13.0139,13.033,13.0559,13.0712,13.0712,13.0445,13.0407,11.4599,11.5291,11.5407,11.5869,11.6446,11.6446,11.6446,11.6484,11.6484,11.6484,11.6484,11.6484,11.6484,11.6484,11.6484,11.6522,11.6946,11.7561,11.7984,11.8061,11.8523,11.8754,11.8831,11.8715,11.8254,11.71,11.7638,11.7907,11.8138,11.8677,11.8708,11.8985,11.9023,11.8746,11.8985,11.9254,11.9292,11.9323,12.0015,12.0485,12.0485,12.0908,12.06,11.9754,11.9869,11.9562,11.9138,11.9562,11.9754,11.8946,11.8215,11.8215,11.8484,11.8715,11.8715,11.8561,11.8254,11.8138,11.8023,11.8292,11.8138,11.7638,11.7753,11.7484,11.6984,11.7061,11.7176,11.7176,11.733,11.7907,11.9138,11.9908,12.0677,12.1331,12.1639,12.2005,12.2307,12.2396,12.1832,12.1364,12.1178,12.1237,12.1733,12.2154,12.223,12.2574,12.3835,12.4905,12.5707,12.6204,12.6318,12.6509,12.6548,12.7103,12.762,12.7829,12.8347,12.8689,12.8877,12.8881,12.8749,12.9399,12.9897,12.9379,12.9222,12.9642,13.0025,13.0292,13.0559,13.0751,13.0789,13.0789,13.0789,13.0789,13.0789,11.5176,11.5368,11.6022,11.6369,11.6484,11.6484,11.6484,11.6484,11.6484,11.6484,11.6484,11.6484,11.6484,11.6522,11.6522,11.6869,11.7638,11.8446,11.8869,11.8908,11.9215,11.9331,11.9369,11.9446,11.9023,11.8792,11.8908,11.8985,11.8908,11.9061,11.9408,11.9215,11.9254,11.9254,11.9485,11.9715,12.01,12.0216,12.0831,12.1216,12.1177,12.0754,11.9985,11.8908,11.9254,11.9061,11.8561,11.8831,11.8908,11.81,11.7869,11.7561,11.7446,11.7292,11.7253,11.7176,11.7407,11.76,11.7407,11.7176,11.6946,11.6869,11.7484,11.783,11.7792,11.8138,11.8292,11.86,11.9023,11.9715,12.0062,12.0869,12.137,12.1754,12.2216,12.2544,12.2461,12.232,12.2268,12.1823,12.1484,12.1428,12.2133,12.2783,12.3204,12.3624,12.458,12.5268,12.5765,12.6071,12.6089,12.6357,12.6586,12.7429,12.8175,12.8346,12.8614,12.8978,12.9227,12.9552,12.9685,13.0199,13.0254,12.9795,12.9834,13.033,13.0598,13.0712,13.0712,13.0789,13.0789,13.0789,13.0789,13.0789,13.0789,11.5907,11.5945,11.633,11.6484,11.6484,11.6484,11.6484,11.6484,11.6484,11.6484,11.6484,11.6522,11.6753,11.7061,11.7176,11.7638,11.8484,11.9331,11.9677,11.9754,12.0139,12.0369,12.0331,12.0331,12.0408,12.0369,12.0369,12.0062,11.9831,12.0254,12.0292,12.0408,12.0369,12.0369,12.0446,12.0793,12.0908,12.1062,12.1331,12.1562,12.1485,12.0716,11.96,11.9023,11.9138,11.9215,11.8831,11.9254,11.9292,11.8677,11.8484,11.8254,11.7946,11.7753,11.7407,11.6869,11.7292,11.7561,11.7407,11.7523,11.7946,11.7946,11.8254,11.8446,11.8561,11.8831,11.9215,11.9331,11.9831,12.0485,12.0908,12.1754,12.237,12.2793,12.2947,12.2774,12.2511,12.2154,12.2153,12.2222,12.2036,12.2133,12.2801,12.3451,12.4101,12.4752,12.5344,12.5689,12.5975,12.6147,12.6318,12.693,12.7426,12.8211,12.8958,12.9226,12.9244,12.9435,12.9685,12.997,13.0177,13.0559,13.0636,13.0368,13.0636,13.0789,13.0789,13.0751,13.0789,13.0789,13.0789,13.0789,13.0789,13.0789,13.0789,11.6484,11.6484,11.6484,11.6484,11.6484,11.6484,11.6484,11.6484,11.6484,11.6484,11.6522,11.6753,11.7176,11.7753,11.8215,11.8715,11.9408,12.0177,12.0523,12.0677,12.11,12.1523,12.1562,12.16,12.1408,12.1254,12.1331,12.1216,12.0793,12.11,12.1447,12.137,12.1485,12.16,12.1485,12.1408,12.1562,12.16,12.1562,12.1562,12.1177,12.0677,11.9946,11.9215,11.9715,11.9677,11.9138,11.9523,11.9562,11.9177,11.9023,11.9061,11.91,11.9254,11.86,11.7561,11.8407,11.8523,11.8446,11.8523,11.8831,11.8831,11.9215,11.9331,11.9446,11.9638,11.9831,11.9946,12.0485,12.1177,12.1831,12.2447,12.2947,12.3101,12.2985,12.2784,12.2456,12.2281,12.2576,12.2612,12.2529,12.2971,12.377,12.4021,12.4634,12.5076,12.5726,12.6071,12.6358,12.6682,12.7006,12.7808,12.8496,12.9222,12.9855,13.0259,13.0237,13.0276,13.0314,13.0505,13.0598,13.0751,13.0712,13.0636,13.0712,13.0789,13.0789,13.0789,13.0789,13.0789,13.0789,13.0789,13.0789,13.0887,13.0887,11.6484,11.6484,11.6484,11.6484,11.6484,11.6484,11.6484,11.6484,11.6522,11.6484,11.6676,11.7292,11.7715,11.8215,11.9446,11.9985,12.0369,12.0908,12.1293,12.1331,12.1485,12.16,12.16,12.16,12.16,12.16,12.16,12.1562,12.137,12.1485,12.16,12.16,12.16,12.16,12.16,12.16,12.16,12.16,12.16,12.1216,12.0639,12.0408,11.9946,11.9446,11.9369,11.9523,11.9446,11.9677,11.9485,11.9369,11.9215,11.9177,11.9215,11.9792,11.9638,11.9138,11.8985,11.9061,11.8985,11.9254,11.9408,11.9562,11.9831,12.01,12.0292,12.0754,12.1293,12.2447,12.2408,12.2293,12.237,12.2716,12.2601,12.2562,12.2716,12.2438,12.2149,12.2918,12.3175,12.3624,12.3738,12.4184,12.4889,12.495,12.518,12.557,12.6012,12.6415,12.6835,12.7294,12.7999,12.884,12.926,12.991,13.0177,13.0696,13.0811,13.0789,13.0789,13.0849,13.0789,13.0789,13.0789,13.0751,13.0789,13.0789,13.0789,13.0789,13.0789,13.0789,13.0789,13.0789,13.0789,13.0887,13.0947,11.6484,11.6484,11.6484,11.6484,11.6484,11.6484,11.6484,11.6599,11.7023,11.7215,11.7407,11.8177,11.8754,11.9369,12.0523,12.0985,12.11,12.1408,12.16,12.16,12.16,12.16,12.16,12.16,12.16,12.16,12.16,12.16,12.16,12.16,12.16,12.16,12.16,12.16,12.16,12.16,12.16,12.16,12.1523,12.1139,12.0677,12.0677,12.0639,11.9869,12.0216,12.0408,12.0446,12.0523,12.0485,12.0523,12.0523,12.0523,12.0562,12.0831,12.0831,12.0639,12.0523,12.0331,11.9946,12.0254,12.0331,12.0485,12.0793,12.1023,12.1139,12.1331,12.1677,12.2062,12.2139,12.2177,12.2216,12.2177,12.2293,12.237,12.2716,12.2899,12.2928,12.3428,12.4004,12.4493,12.4981,12.5403,12.5736,12.5824,12.5847,12.6116,12.6544,12.6931,12.7505,12.8211,12.9091,13.0025,13.0254,13.0445,13.0559,13.0789,13.0751,13.0789,13.0789,13.0789,13.0789,13.0789,13.0789,13.0789,13.0789,13.0789,13.0789,13.0789,13.0789,13.0789,13.0789,13.0887,13.0887,13.0947,13.1065,11.6484,11.6484,11.6484,11.6484,11.6522,11.6715,11.683,11.6946,11.7753,11.8138,11.8369,11.9023,11.9831,12.0562,12.1216,12.1485,12.1523,12.16,12.16,12.16,12.16,12.16,12.16,12.16,12.16,12.16,12.16,12.16,12.16,12.16,12.16,12.16,12.16,12.16,12.16,12.16,12.16,12.16,12.16,12.1254,12.0908,12.1254,12.11,12.1023,12.1177,12.16,12.16,12.1523,12.1485,12.1447,12.1408,12.1331,12.1408,12.1677,12.1677,12.1562,12.1523,12.16,12.1254,12.1293,12.1562,12.16,12.16,12.1447,12.1485,12.16,12.16,12.1716,12.1677,12.1639,12.16,12.1639,12.2062,12.2601,12.3101,12.3562,12.4062,12.4601,12.4783,12.5014,12.5503,12.6245,12.6541,12.6619,12.6682,12.672,12.7036,12.7484,12.8213,12.9052,12.9741,13.0598,13.0636,13.0674,13.0712,13.0789,13.0789,13.0789,13.0789,13.0789,13.0789,13.0789,13.0789,13.0789,13.0789,13.0789,13.0789,13.0789,13.0789,13.0789,13.0849,13.0985,13.1044,13.1103,13.118,11.6484,11.6484,11.6522,11.6522,11.6599,11.7369,11.7677,11.7792,11.8638,11.9023,11.9215,11.9869,12.0677,12.1293,12.1447,12.16,12.16,12.16,12.16,12.16,12.16,12.16,12.16,12.16,12.16,12.16,12.16,12.16,12.16,12.16,12.16,12.16,12.16,12.16,12.16,12.16,12.16,12.16,12.16,12.1562,12.1408,12.1523,12.1485,12.1485,12.1523,12.16,12.16,12.16,12.1716,12.1716,12.1793,12.1908,12.21,12.2524,12.2485,12.2254,12.2524,12.2639,12.2562,12.187,12.1562,12.16,12.1639,12.1716,12.16,12.16,12.16,12.1716,12.1831,12.1831,12.1754,12.1677,12.2254,12.3101,12.3755,12.4139,12.4793,12.5717,12.587,12.5678,12.6101,12.6909,12.7486,12.7605,12.7526,12.7565,12.7863,12.8213,12.915,12.9872,13.0254,13.0751,13.0751,13.0751,13.0789,13.0789,13.0789,13.0789,13.0789,13.0789,13.0789,13.0789,13.0789,13.0827,13.0827,13.0827,13.0789,13.0909,13.0947,13.0887,13.0947,13.1044,13.1218,13.1292,13.1348,11.6484,11.6522,11.7061,11.7292,11.733,11.7638,11.81,11.8677,11.9485,12.0177,12.06,12.0985,12.1254,12.1523,12.16,12.16,12.16,12.16,12.16,12.16,12.16,12.16,12.16,12.16,12.16,12.16,12.16,12.16,12.16,12.16,12.16,12.16,12.16,12.16,12.16,12.16,12.16,12.16,12.16,12.16,12.16,12.16,12.16,12.16,12.16,12.16,12.16,12.16,12.1908,12.2216,12.2331,12.2562,12.287,12.337,12.3293,12.2985,12.337,12.3524,12.3332,12.2447,12.16,12.1716,12.2024,12.2139,12.1677,12.16,12.1947,12.2177,12.237,12.237,12.3024,12.2754,12.2908,12.387,12.4447,12.4716,12.537,12.6294,12.6832,12.6563,12.7063,12.7755,12.8256,12.8629,12.8476,12.8394,12.8728,12.9131,12.9893,13.0407,13.0674,13.0789,13.0789,13.0789,13.0789,13.0789,13.0789,13.0789,13.0789,13.0789,13.0789,13.0789,13.0789,13.0827,13.0887,13.0947,13.1006,13.1065,13.1065,13.1006,13.1065,13.1161,13.1292,13.1457,13.151,11.6869,11.6984,11.783,11.8023,11.7869,11.8331,11.8869,11.9523,12.0331,12.0985,12.16,12.16,12.16,12.16,12.16,12.16,12.16,12.16,12.16,12.16,12.16,12.16,12.16,12.16,12.16,12.16,12.16,12.16,12.16,12.16,12.16,12.16,12.16,12.16,12.16,12.16,12.16,12.16,12.16,12.16,12.16,12.16,12.16,12.16,12.16,12.16,12.16,12.1639,12.2024,12.2524,12.2908,12.3293,12.3755,12.4062,12.3947,12.3909,12.3985,12.4101,12.3755,12.3216,12.2216,12.2254,12.2485,12.2331,12.187,12.16,12.187,12.2254,12.2639,12.3178,12.3832,12.337,12.3716,12.4639,12.4755,12.5063,12.5832,12.6678,12.7178,12.7486,12.7948,12.8256,12.9283,12.9655,12.9499,12.9413,12.961,12.9876,13.0276,13.0674,13.0712,13.0789,13.0789,13.0789,13.0789,13.0789,13.0789,13.0789,13.0789,13.0789,13.0789,13.0789,13.0789,13.0827,13.0887,13.1044,13.1161,13.1122,13.1218,13.1218,13.1275,13.1292,13.1457,13.1577,13.1577,11.7753,11.7907,11.8715,11.86,11.8177,11.9562,12.0216,12.0369,12.11,12.1485,12.16,12.16,12.16,12.16,12.16,12.16,12.16,12.16,12.16,12.16,12.16,12.16,12.16,12.16,12.16,12.16,12.16,12.16,12.16,12.16,12.16,12.16,12.16,12.16,12.16,12.16,12.16,12.16,12.16,12.16,12.16,12.16,12.16,12.1793,12.1831,12.1831,12.21,12.21,12.2562,12.3255,12.337,12.3755,12.4409,12.4486,12.4178,12.3639,12.4062,12.4255,12.4139,12.4062,12.3716,12.3062,12.3216,12.2947,12.2062,12.1716,12.1908,12.2524,12.2754,12.3024,12.3332,12.3716,12.4562,12.5178,12.5332,12.5678,12.6524,12.7294,12.7871,12.8486,12.8409,12.8563,12.9885,13.0665,13.052,13.0508,13.0585,13.0734,13.0751,13.0789,13.0789,13.0789,13.0789,13.0789,13.0789,13.0789,13.0789,13.0789,13.0789,13.0789,13.0789,13.0789,13.0789,13.0827,13.1006,13.1161,13.1218,13.118,13.1292,13.1402,13.1457,13.151,13.1667,13.1679,13.1679,11.8138,11.8715,11.9562,11.9715,11.9562,12.0023,12.06,12.1139,12.1447,12.16,12.16,12.16,12.16,12.16,12.16,12.16,12.16,12.16,12.16,12.16,12.16,12.16,12.16,12.16,12.16,12.16,12.16,12.1639,12.16,12.1754,12.1639,12.16,12.1831,12.16,12.16,12.16,12.16,12.16,12.16,12.16,12.16,12.1677,12.1908,12.2408,12.2447,12.2639,12.3024,12.3024,12.3485,12.4216,12.4332,12.4793,12.5447,12.564,12.5524,12.5293,12.5717,12.5486,12.537,12.5255,12.5101,12.4447,12.4062,12.3947,12.3408,12.2716,12.2793,12.3062,12.3447,12.3909,12.4562,12.4793,12.5409,12.6063,12.6371,12.6717,12.7371,12.814,12.8833,12.9525,12.9717,12.9987,13.0898,13.114,13.098,13.0853,13.0912,13.0773,13.0789,13.0789,13.0789,13.0789,13.0789,13.0789,13.0789,13.0789,13.0789,13.0789,13.0789,13.0789,13.0789,13.0827,13.0887,13.0947,13.1122,13.1236,13.1348,13.1402,13.151,13.1615,13.1577,13.1577,13.1628,13.1679,13.1679,11.8985,11.96,12.0408,12.0754,12.0754,12.0716,12.11,12.1523,12.16,12.16,12.16,12.16,12.16,12.16,12.16,12.16,12.16,12.16,12.16,12.16,12.16,12.16,12.16,12.16,12.16,12.1677,12.1947,12.2062,12.2139,12.237,12.2562,12.2601,12.2447,12.2639,12.2524,12.237,12.21,12.2216,12.237,12.2639,12.2601,12.2639,12.2793,12.3178,12.337,12.3524,12.3909,12.4255,12.4524,12.514,12.5524,12.5832,12.6371,12.6447,12.6332,12.6255,12.6178,12.6024,12.6063,12.6178,12.587,12.5293,12.537,12.4947,12.4293,12.3562,12.3601,12.3909,12.4332,12.4793,12.5293,12.5524,12.6447,12.7101,12.7525,12.7909,12.8217,12.8986,12.9448,13.0179,13.0602,13.1064,13.1487,13.1409,13.1341,13.1216,13.1122,13.1006,13.0789,13.0789,13.0789,13.0789,13.0789,13.0789,13.0789,13.0789,13.0789,13.0789,13.0789,13.0827,13.0887,13.0947,13.1044,13.1161,13.1292,13.1402,13.1563,13.1615,13.1628,13.1628,13.1628,13.1679,13.1679,13.1679,13.1679,12.0292,12.0485,12.1254,12.1523,12.1562,12.1485,12.1562,12.16,12.16,12.16,12.16,12.16,12.16,12.16,12.16,12.16,12.16,12.16,12.16,12.16,12.16,12.16,12.16,12.16,12.1716,12.1985,12.2331,12.2716,12.2947,12.3332,12.3716,12.3985,12.3716,12.3793,12.3678,12.3485,12.3101,12.3139,12.3332,12.3524,12.3524,12.3755,12.387,12.4062,12.4178,12.4332,12.4524,12.4639,12.4947,12.5293,12.5563,12.6024,12.614,12.587,12.5601,12.5524,12.5601,12.6024,12.6255,12.6447,12.6447,12.5909,12.5794,12.5063,12.4601,12.437,12.4293,12.4562,12.4986,12.5255,12.5563,12.6717,12.7794,12.8294,12.8756,12.8986,12.9179,12.9602,12.9987,13.0371,13.0641,13.1064,13.1525,13.1615,13.1472,13.1402,13.1236,13.1065,13.0947,13.0789,13.0789,13.0789,13.0789,13.0789,13.0789,13.0789,13.0887,13.0887,13.0887,13.0947,13.1006,13.1065,13.118,13.1292,13.1402,13.1563,13.1615,13.1628,13.1679,13.1679,13.1679,13.1679,13.1679,13.1679,13.1679,12.0677,12.1254,12.1485,12.16,12.16,12.16,12.16,12.16,12.16,12.16,12.16,12.16,12.16,12.16,12.16,12.16,12.16,12.16,12.16,12.16,12.1716,12.1639,12.1639,12.1793,12.2024,12.2447,12.287,12.3332,12.3716,12.4139,12.4601,12.487,12.4601,12.4639,12.4793,12.4793,12.4332,12.4062,12.4216,12.4293,12.4293,12.4332,12.4562,12.487,12.5024,12.5216,12.5601,12.5755,12.6024,12.6178,12.6294,12.6563,12.6563,12.6447,12.6332,12.6332,12.6294,12.6294,12.5986,12.6371,12.6524,12.6217,12.6101,12.6332,12.587,12.537,12.5063,12.5409,12.5832,12.6178,12.6794,12.7794,12.864,12.9102,12.9563,12.9987,13.0179,13.0448,13.0794,13.0871,13.1141,13.1218,13.1679,13.1679,13.1577,13.1472,13.1348,13.118,13.1006,13.0849,13.0789,13.0789,13.0789,13.0789,13.0789,13.0789,13.0887,13.0947,13.1006,13.1065,13.118,13.1236,13.1292,13.1402,13.1563,13.1615,13.1679,13.1679,13.1679,13.1679,13.1679,13.1679,13.1679,13.1679,13.1679,12.11,12.1562,12.16,12.16,12.16,12.16,12.16,12.16,12.16,12.16,12.16,12.16,12.16,12.16,12.16,12.16,12.16,12.16,12.1754,12.2216,12.21,12.2447,12.2447,12.2562,12.2947,12.3332,12.3755,12.4255,12.4601,12.5063,12.5524,12.5794,12.5293,12.5486,12.5755,12.5832,12.564,12.5332,12.5216,12.5101,12.5063,12.5063,12.5486,12.5717,12.587,12.6217,12.6601,12.6678,12.6717,12.6717,12.6717,12.6486,12.6332,12.614,12.6447,12.6447,12.6601,12.6409,12.6217,12.6447,12.6332,12.6178,12.6371,12.6524,12.6524,12.614,12.6217,12.6486,12.6909,12.7371,12.8063,12.8756,12.9256,12.9756,13.0333,13.091,13.1179,13.141,13.1525,13.1602,13.1641,13.1602,13.1679,13.1679,13.1679,13.1577,13.1457,13.1292,13.1122,13.0909,13.0849,13.0789,13.0789,13.0789,13.0789,13.0849,13.1006,13.1065,13.1122,13.118,13.1348,13.1402,13.1457,13.1563,13.1628,13.1679,13.1679,13.1679,13.1679,13.1679,13.1679,13.1679,13.1679,13.1679,13.1679,12.1562,12.16,12.16,12.16,12.16,12.16,12.16,12.16,12.16,12.16,12.16,12.16,12.16,12.16,12.1754,12.1831,12.1985,12.21,12.2524,12.2985,12.2985,12.3216,12.3639,12.4062,12.3909,12.437,12.4793,12.5101,12.5601,12.5986,12.6294,12.6678,12.6524,12.6486,12.6447,12.6486,12.6332,12.6255,12.6217,12.6294,12.6409,12.6601,12.6717,12.664,12.6601,12.6678,12.6678,12.6717,12.6717,12.6717,12.6601,12.6294,12.5986,12.5794,12.6178,12.6409,12.6678,12.664,12.6524,12.664,12.6678,12.664,12.6755,12.6909,12.6948,12.6909,12.7025,12.7448,12.7832,12.8486,12.9217,12.9871,13.041,13.0641,13.0987,13.1333,13.1448,13.1602,13.1641,13.1679,13.1679,13.1679,13.1679,13.1679,13.1679,13.1628,13.151,13.1348,13.1236,13.1026,13.0909,13.0849,13.0887,13.0887,13.0947,13.1006,13.1065,13.118,13.1236,13.1348,13.151,13.1563,13.1563,13.1615,13.1679,13.1679,13.1679,13.1679,13.1679,13.1679,13.1679,13.1679,13.1679,13.1679,13.1679,12.16,12.16,12.16,12.16,12.16,12.16,12.16,12.16,12.16,12.1639,12.16,12.16,12.1677,12.1831,12.237,12.2562,12.2639,12.2985,12.3524,12.3755,12.3832,12.4024,12.4178,12.4447,12.4601,12.4986,12.5409,12.5794,12.6217,12.6563,12.6717,12.6717,12.6717,12.6717,12.6717,12.6717,12.6717,12.6717,12.6717,12.6717,12.6717,12.6717,12.6717,12.6717,12.6717,12.6717,12.6678,12.664,12.6678,12.6717,12.6717,12.6563,12.6409,12.6332,12.6447,12.664,12.6717,12.6717,12.6717,12.6717,12.6755,12.6986,12.7178,12.7486,12.764,12.764,12.7871,12.8332,12.8871,12.9563,13.0256,13.0871,13.1372,13.1448,13.1525,13.1602,13.1679,13.1679,13.1679,13.1679,13.1679,13.1679,13.1679,13.1679,13.1679,13.1628,13.1563,13.1457,13.1402,13.1236,13.1065,13.1006,13.1044,13.1044,13.1065,13.1122,13.1236,13.1348,13.1402,13.151,13.1667,13.1667,13.1628,13.1628,13.1679,13.1679,13.1679,13.1679,13.1679,13.1679,13.1679,13.1679,13.1679,13.1679,13.1679,12.16,12.16,12.16,12.16,12.16,12.16,12.1793,12.2139,12.2177,12.237,12.2601,12.237,12.237,12.2639,12.3255,12.3447,12.3485,12.3832,12.4255,12.4524,12.4716,12.5024,12.5063,12.514,12.5563,12.5947,12.5986,12.6294,12.664,12.6717,12.6717,12.6717,12.6717,12.6717,12.6717,12.6717,12.6717,12.6717,12.6717,12.6717,12.6717,12.6717,12.6717,12.6717,12.6717,12.6717,12.6524,12.6447,12.6371,12.6371,12.6332,12.6447,12.6332,12.6178,12.6332,12.6563,12.6717,12.6717,12.6717,12.6794,12.6909,12.7332,12.7563,12.7871,12.8602,12.8717,12.9179,12.9602,12.9679,13.0294,13.0833,13.1448,13.1525,13.1602,13.1641,13.1641,13.1679,13.1679,13.1679,13.1679,13.1679,13.1679,13.1679,13.1679,13.1679,13.1679,13.1615,13.151,13.1457,13.1457,13.1236,13.1122,13.118,13.1218,13.118,13.1292,13.1402,13.1457,13.1563,13.1577,13.1628,13.1679,13.1679,13.1679,13.1679,13.1679,13.1679,13.1679,13.1679,13.1679,13.1679,13.1679,13.1679,13.1679,13.1679,12.16,12.16,12.16,12.16,12.1639,12.1716,12.2177,12.2831,12.2985,12.3485,12.4062,12.3524,12.3678,12.3909,12.4255,12.4255,12.4409,12.4755,12.5101,12.5409,12.5563,12.5794,12.6178,12.6524,12.6486,12.6486,12.6563,12.6563,12.6678,12.6717,12.6717,12.6717,12.6717,12.6717,12.6717,12.6717,12.6717,12.6717,12.6717,12.6717,12.6717,12.6717,12.6717,12.6717,12.6717,12.6717,12.6447,12.614,12.5986,12.614,12.6178,12.6332,12.6371,12.6255,12.6332,12.6524,12.6717,12.6794,12.6909,12.7025,12.7448,12.7871,12.8063,12.8602,12.9371,12.991,13.0371,13.0564,13.0641,13.0833,13.141,13.1641,13.1679,13.1679,13.1679,13.1679,13.1679,13.1679,13.1679,13.1679,13.1679,13.1679,13.1679,13.1679,13.1679,13.1628,13.1667,13.1563,13.151,13.151,13.1457,13.1402,13.1402,13.1402,13.1348,13.1402,13.151,13.1563,13.1577,13.1628,13.1679,13.1679,13.1679,13.1679,13.1679,13.1679,13.1679,13.1679,13.1679,13.1679,13.1679,13.1679,13.1679,13.1679,13.1679,12.16,12.16,12.16,12.16,12.1716,12.2331,12.2754,12.2985,12.3639,12.4332,12.4947,12.5024,12.4755,12.4178,12.4909,12.514,12.5255,12.5601,12.6063,12.6409,12.6294,12.6486,12.664,12.6717,12.6717,12.6717,12.6717,12.6717,12.6717,12.6717,12.6717,12.6717,12.6717,12.6717,12.6717,12.6717,12.6717,12.6717,12.6717,12.6717,12.6717,12.6717,12.6717,12.6717,12.6717,12.6717,12.6486,12.5832,12.6063,12.6332,12.6524,12.6524,12.6486,12.6486,12.6563,12.6755,12.6871,12.7255,12.7448,12.764,12.814,12.8871,12.9179,12.9756,13.041,13.0833,13.1179,13.1256,13.1333,13.1333,13.1679,13.1679,13.1679,13.1679,13.1679,13.1679,13.1679,13.1679,13.1679,13.1679,13.1679,13.1679,13.1679,13.1679,13.1679,13.1679,13.1679,13.1628,13.1577,13.1577,13.1615,13.1615,13.1563,13.1563,13.151,13.1563,13.1628,13.1628,13.1628,13.1679,13.1679,13.1679,13.1679,13.1679,13.1679,13.1679,13.1679,13.1679,13.1679,13.1679,13.1679,13.1679,13.1679,13.1679,13.1679]},{"header":{"parameterUnit":"m.s-1","parameterCategory":1,"la1":31.0,"la2":29.5877,"lo1":-88.7671,"lo2":-86.6584,"dx":0.0162,"dy":0.0185,"nx":115,"ny":88,"refTime":"2023-01-11T18:00:00:Z","depth":0,"parameterNumber":3,"parameterNumberName":"V-component_of_WINDS"},"data":[0.0,0.0,0.0,0.0,0.0,0.0,0.0,0.0,0.0,0.0,0.0,0.0,0.0,0.0,0.0,0.0,0.0,0.0,0.0,0.0,0.0,0.0,0.0,0.0,0.0,0.0,0.0,0.0,0.0,0.0,0.0,0.0,0.0,0.0,0.0,0.0,0.0,0.0,0.0,0.0,0.0,0.0,0.0,0.0,0.0,0.0,0.0,0.0,0.0,0.0,0.0,0.0,0.0,0.0,0.0,0.0,0.0,0.0,0.0,0.0,0.0,0.0,0.0,0.0,0.0,0.0,0.0,0.0,0.0,0.0,0.0,0.0,0.0,0.0,0.0,0.0,0.0,0.0,0.0,0.0,0.0,0.0,0.0,0.0,0.0,0.0,0.0,0.0,0.0,0.0,0.0,0.0,0.0,0.0,0.0,0.0,0.0,0.0,0.0,0.0,0.0,0.0,0.0,0.0,0.0,0.0,0.0,0.0,0.0,0.0,0.0,0.0,0.0,0.0,0.0,0.0,0.0,0.0,0.0,0.0,0.0,0.0,0.0,0.0,0.0,0.0,0.0,0.0,0.0,0.0,0.0,0.0,0.0,0.0,0.0,0.0,0.0,0.0,0.0,0.0,0.0,0.0,0.0,0.0,0.0,0.0,0.0,0.0,0.0,0.0,0.0,0.0,0.0,0.0,0.0,0.0,0.0,0.0,0.0,0.0,0.0,0.0,0.0,0.0,0.0,0.0,0.0,0.0,0.0,0.0,0.0,0.0,0.0,0.0,0.0,0.0,0.0,0.0,0.0,0.0,0.0,0.0,0.0,0.0,0.0,0.0,0.0,0.0,0.0,0.0,0.0,0.0,0.0,0.0,0.0,0.0,0.0,0.0,0.0,0.0,0.0,0.0,0.0,0.0,0.0,0.0,0.0,0.0,0.0,0.0,0.0,0.0,0.0,0.0,0.0,0.0,0.0,0.0,0.0,0.0,0.0,0.0,0.0,0.0,0.0,0.0,0.0,0.0,0.0,0.0,0.0,0.0,0.0,0.0,0.0,0.0,0.0,0.0,0.0,0.0,0.0,0.0,0.0,0.0,0.0,0.0,0.0,0.0,0.0,0.0,0.0,0.0,0.0,0.0,0.0,0.0,0.0,0.0,0.0,0.0,0.0,0.0,0.0,0.0,0.0,0.0,0.0,0.0,0.0,0.0,0.0,0.0,0.0,0.0,0.0,0.0,0.0,0.0,0.0,0.0,0.0,0.0,0.0,0.0,0.0,0.0,0.0,0.0,0.0,0.0,0.0,0.0,0.0,0.0,0.0,0.0,0.0,0.0,0.0,0.0,0.0,0.0,0.0,0.0,0.0,0.0,0.0,0.0,0.0,0.0,0.0,0.0,0.0,0.0,0.0,0.0,0.0,0.0,0.0,0.0,0.0,0.0,0.0,0.0,0.0,0.0,0.0,0.0,0.0,0.0,0.0,0.0,0.0,0.0,0.0,0.0,0.0,0.0,0.0,0.0,0.0,0.0,0.0,0.0,0.0,0.0,0.0,0.0,0.0,0.0,0.0,0.0,0.0,0.0,0.0,0.0,0.0,0.0,0.0,0.0,0.0,0.0,0.0,0.0,0.0,0.0,0.0,0.0,0.0,0.0,0.0,0.0,0.0,0.0,0.0,0.0,0.0,0.0,0.0,0.0,0.0,0.0,0.0,0.0,0.0,0.0,0.0,0.0,0.0,0.0,0.0,0.0,0.0,0.0,0.0,0.0,0.0,0.0,0.0,0.0,0.0,0.0,0.0,0.0,0.0,0.0,0.0,0.0,0.0,0.0,0.0,0.0,0.0,0.0,0.0,0.0,0.0,0.0,0.0,0.0,0.0,0.0,0.0,0.0,0.0,0.0,0.0,0.0,0.0,0.0,0.0,0.0,0.0,0.0,0.0,0.0,0.0,0.0,0.0,0.0,0.0,0.0,0.0,0.0,0.0,0.0,0.0,0.0,0.0,0.0,0.0,0.0,0.0,0.0,0.0,0.0,0.0,0.0,0.0,0.0,0.0,0.0,0.0,0.0,0.0,0.0,0.0,0.0,0.0,0.0,0.0,0.0,0.0,0.0,0.0,0.0,0.0,0.0,0.0,0.0,0.0,0.0,0.0,0.0,0.0,0.0,0.0,0.0,0.0,0.0,0.0,0.0,0.0,0.0,0.0,0.0,0.0,0.0,0.0,0.0,0.0,0.0,0.0,0.0,0.0,0.0,0.0,0.0,0.0,0.0,0.0,0.0,0.0,0.0,0.0,0.0,0.0,0.0,0.0,0.0,0.0,0.0,0.0,0.0,0.0,0.0,0.0,0.0,0.0,0.0,0.0,0.0,0.0,0.0,0.0,0.0,0.0,0.0,0.0,0.0,0.0,0.0,0.0,0.0,0.0,0.0,0.0,0.0,0.0,0.0,0.0,0.0,0.0,0.0,0.0,0.0,0.0,0.0,0.0,0.0,0.0,0.0,0.0,0.0,0.0,0.0,0.0,0.0,0.0,0.0,0.0,0.0,0.0,0.0,0.0,0.0,0.0,0.0,0.0,0.0,0.0,0.0,0.0,0.0,0.0,0.0,0.0,0.0,0.0,0.0,0.0,0.0,0.0,0.0,0.0,0.0,0.0,0.0,0.0,0.0,0.0,0.0,0.0,0.0,0.0,0.0,0.0,0.0,0.0,0.0,0.0,0.0,0.0,0.0,0.0,0.0,0.0,0.0,0.0,0.0,0.0,0.0,0.0,0.0,0.0,0.0,0.0,0.0,0.0,0.0,0.0,0.0,0.0,0.0,0.0,0.0,0.0,0.0,0.0,0.0,0.0,0.0,0.0,0.0,0.0,0.0,0.0,0.0,0.0,0.0,0.0,0.0,0.0,0.0,0.0,0.0,0.0,0.0,0.0,0.0,0.0,0.0,0.0,0.0,0.0,0.0,0.0,0.0,0.0,0.0,0.0,0.0,0.0,0.0,0.0,0.0,0.0,0.0,0.0,0.0,0.0,0.0,0.0,0.0,0.0,0.0,0.0,0.0,0.0,0.0,0.0,0.0,0.0,0.0,0.0,0.0,0.0,0.0,0.0,0.0,0.0,0.0,0.0,0.0,0.0,0.0,0.0,0.0,0.0,0.0,0.0,0.0,0.0,0.0,0.0,0.0,0.0,0.0,0.0,0.0,0.0,0.0,0.0,0.0,0.0,0.0,0.0,0.0,0.0,0.0,0.0,0.0,0.0,0.0,0.0,0.0,0.0,0.0,0.0,0.0,0.0,0.0,0.0,0.0,0.0,0.0,0.0,0.0,0.0,0.0,0.0,0.0,0.0,0.0,0.0,0.0,0.0,0.0,0.0,0.0,0.0,0.0,0.0,0.0,0.0,0.0,0.0,0.0,0.0,0.0,0.0,0.0,0.0,0.0,0.0,0.0,0.0,0.0,0.0,0.0,0.0,0.0,0.0,0.0,0.0,0.0,0.0,0.0,0.0,0.0,0.0,0.0,0.0,0.0,0.0,0.0,0.0,0.0,0.0,0.0,0.0,0.0,0.0,0.0,0.0,0.0,0.0,0.0,0.0,0.0,0.0,0.0,0.0,0.0,0.0,0.0,0.0,0.0,0.0,0.0,0.0,0.0,0.0,0.0,0.0,0.0,0.0,0.0,0.0,0.0,0.0,0.0,0.0,0.0,0.0,0.0,0.0,0.0,0.0,0.0,0.0,0.0,0.0,0.0,0.0,0.0,0.0,0.0,0.0,0.0,0.0,0.0,0.0,0.0,0.0,0.0,0.0,0.0,0.0,0.0,0.0,0.0,0.0,0.0,0.0,0.0,0.0,0.0,0.0,0.0,0.0,0.0,0.0,0.0,0.0,0.0,0.0,0.0,0.0,0.0,0.0,0.0,0.0,0.0,0.0,0.0,0.0,0.0,0.0,0.0,0.0,0.0,0.0,0.0,0.0,0.0,0.0,0.0,0.0,0.0,0.0,0.0,0.0,0.0,0.0,0.0,0.0,0.0,0.0,0.0,0.0,0.0,0.0,0.0,0.0,0.0,0.0,0.0,0.0,0.0,0.0,0.0,0.0,0.0,0.0,0.0,0.0,0.0,0.0,0.0,0.0,0.0,0.0,0.0,0.0,0.0,0.0,0.0,0.0,0.0,0.0,0.0,0.0,0.0,0.0,0.0,0.0,0.0,0.0,0.0,0.0,0.0,0.0,0.0,0.0,0.0,0.0,0.0,0.0,0.0,0.0,0.0,-1.3961,0.0,0.0,0.0,-1.3721,0.0,0.0,0.0,0.0,0.0,0.0,0.0,0.0,0.0,0.0,0.0,0.0,0.0,0.0,0.0,0.0,0.0,0.0,0.0,0.0,0.0,0.0,0.0,0.0,0.0,0.0,0.0,0.0,0.0,0.0,0.0,0.0,0.0,0.0,0.0,0.0,0.0,0.0,0.0,0.0,0.0,0.0,0.0,0.0,0.0,0.0,0.0,0.0,0.0,0.0,0.0,0.0,0.0,0.0,0.0,0.0,0.0,0.0,0.0,0.0,0.0,0.0,0.0,0.0,0.0,0.0,0.0,0.0,0.0,0.0,0.0,0.0,0.0,0.0,0.0,0.0,0.0,0.0,0.0,0.0,0.0,0.0,0.0,0.0,0.0,0.0,0.0,0.0,0.0,0.0,0.0,0.0,0.0,0.0,0.0,0.0,0.0,0.0,0.0,0.0,0.0,0.0,0.0,0.0,0.0,0.0,0.0,0.0,0.0,0.0,-1.4082,-1.4082,-1.4082,-1.3948,-1.3572,0.0,0.0,0.0,0.0,0.0,0.0,0.0,0.0,0.0,0.0,0.0,0.0,0.0,0.0,0.0,0.0,0.0,0.0,0.0,0.0,0.0,0.0,0.0,0.0,0.0,0.0,0.0,0.0,0.0,0.0,0.0,0.0,0.0,0.0,0.0,0.0,0.0,0.0,0.0,0.0,0.0,0.0,0.0,0.0,0.0,0.0,0.0,0.0,0.0,0.0,0.0,0.0,0.0,0.0,0.0,0.0,0.0,0.0,0.0,0.0,0.0,0.0,0.0,0.0,0.0,0.0,0.0,0.0,0.0,0.0,0.0,0.0,0.0,0.0,0.0,0.0,0.0,0.0,0.0,0.0,0.0,0.0,0.0,0.0,0.0,0.0,0.0,0.0,0.0,0.0,0.0,0.0,0.0,0.0,0.0,0.0,0.0,0.0,0.0,0.0,0.0,0.0,0.0,0.0,0.0,0.0,0.0,0.0,0.0,0.0,0.0,0.0,-1.4082,-1.3948,-1.3667,0.0,0.0,0.0,0.0,0.0,0.0,0.0,0.0,0.0,0.0,0.0,0.0,0.0,0.0,0.0,0.0,0.0,0.0,0.0,0.0,0.0,0.0,0.0,0.0,0.0,0.0,0.0,0.0,0.0,0.0,0.0,0.0,0.0,0.0,0.0,0.0,0.0,0.0,0.0,0.0,0.0,0.0,0.0,0.0,0.0,0.0,0.0,0.0,0.0,0.0,0.0,0.0,0.0,0.0,0.0,0.0,0.0,0.0,0.0,0.0,0.0,0.0,0.0,0.0,0.0,0.0,0.0,0.0,0.0,0.0,0.0,0.0,0.0,0.0,0.0,0.0,0.0,0.0,0.0,0.0,0.0,0.0,0.0,0.0,0.0,0.0,0.0,0.0,0.0,0.0,0.0,0.0,0.0,0.0,0.0,0.0,0.0,0.0,0.0,0.0,0.0,0.0,0.0,0.0,0.0,0.0,0.0,0.0,0.0,0.0,-1.4082,-1.4082,-1.4082,0.0,-1.3667,0.0,0.0,0.0,0.0,0.0,0.0,0.0,0.0,0.0,0.0,0.0,0.0,0.0,0.0,0.0,0.0,0.0,0.0,0.0,0.0,0.0,0.0,0.0,0.0,0.0,0.0,0.0,0.0,0.0,0.0,0.0,0.0,0.0,0.0,0.0,0.0,0.0,0.0,0.0,0.0,0.0,0.0,0.0,0.0,0.0,0.0,0.0,0.0,0.0,0.0,0.0,0.0,0.0,0.0,0.0,0.0,0.0,0.0,0.0,0.0,0.0,0.0,0.0,0.0,0.0,0.0,0.0,0.0,0.0,0.0,0.0,0.0,0.0,0.0,0.0,0.0,0.0,0.0,0.0,0.0,0.0,0.0,0.0,0.0,0.0,0.0,0.0,0.0,0.0,0.0,0.0,0.0,0.0,0.0,0.0,0.0,0.0,0.0,0.0,0.0,0.0,0.0,0.0,0.0,0.0,0.0,0.0,0.0,0.0,0.0,-1.4082,-1.4082,-1.4082,-1.3948,0.0,0.0,0.0,0.0,0.0,0.0,0.0,0.0,0.0,0.0,0.0,0.0,0.0,0.0,0.0,0.0,0.0,0.0,0.0,0.0,0.0,0.0,0.0,0.0,0.0,0.0,0.0,0.0,0.0,0.0,0.0,0.0,0.0,0.0,0.0,0.0,0.0,0.0,0.0,0.0,0.0,0.0,0.0,0.0,0.0,0.0,0.0,0.0,0.0,0.0,0.0,0.0,0.0,0.0,0.0,0.0,0.0,0.0,0.0,0.0,0.0,0.0,0.0,0.0,0.0,0.0,0.0,0.0,0.0,0.0,0.0,0.0,0.0,0.0,0.0,0.0,0.0,0.0,0.0,0.0,0.0,0.0,0.0,0.0,0.0,0.0,0.0,0.0,0.0,0.0,0.0,0.0,0.0,0.0,0.0,0.0,0.0,0.0,0.0,0.0,0.0,0.0,0.0,0.0,0.0,0.0,0.0,0.0,0.0,0.0,-1.4055,-1.4202,-1.4202,-1.4202,-1.4068,-1.3774,0.0,0.0,0.0,0.0,0.0,0.0,0.0,0.0,0.0,0.0,0.0,0.0,0.0,0.0,0.0,0.0,0.0,0.0,0.0,0.0,0.0,0.0,0.0,0.0,0.0,0.0,0.0,0.0,0.0,0.0,0.0,0.0,0.0,0.0,0.0,0.0,0.0,0.0,0.0,0.0,0.0,0.0,0.0,0.0,0.0,0.0,0.0,0.0,0.0,0.0,0.0,0.0,0.0,0.0,0.0,0.0,0.0,0.0,0.0,0.0,0.0,0.0,0.0,0.0,0.0,0.0,0.0,0.0,0.0,0.0,0.0,0.0,0.0,0.0,0.0,0.0,0.0,0.0,0.0,0.0,0.0,0.0,0.0,0.0,0.0,0.0,0.0,0.0,0.0,0.0,0.0,0.0,0.0,0.0,0.0,0.0,0.0,0.0,0.0,0.0,0.0,0.0,0.0,0.0,0.0,0.0,0.0,0.0,-1.4068,-1.4349,-1.4496,-1.4496,-1.4496,-1.4362,0.0,0.0,0.0,0.0,0.0,0.0,0.0,0.0,0.0,0.0,0.0,0.0,0.0,0.0,0.0,0.0,0.0,0.0,0.0,0.0,0.0,0.0,0.0,0.0,0.0,0.0,0.0,0.0,0.0,0.0,0.0,0.0,0.0,0.0,0.0,0.0,0.0,0.0,0.0,0.0,0.0,0.0,0.0,0.0,0.0,0.0,0.0,0.0,0.0,0.0,0.0,0.0,0.0,0.0,0.0,0.0,0.0,0.0,0.0,0.0,0.0,0.0,0.0,0.0,0.0,0.0,0.0,0.0,0.0,0.0,0.0,0.0,0.0,0.0,0.0,0.0,0.0,0.0,0.0,0.0,0.0,0.0,0.0,0.0,0.0,0.0,0.0,0.0,0.0,0.0,0.0,0.0,0.0,0.0,0.0,0.0,0.0,0.0,0.0,0.0,0.0,0.0,0.0,0.0,0.0,0.0,0.0,0.0,0.0,-1.4349,-1.4656,-1.4803,-1.4803,-1.4616,-1.4469,0.0,0.0,0.0,0.0,0.0,0.0,0.0,0.0,0.0,0.0,0.0,0.0,0.0,0.0,0.0,0.0,0.0,0.0,0.0,0.0,0.0,0.0,0.0,0.0,0.0,0.0,0.0,0.0,0.0,0.0,0.0,0.0,0.0,0.0,0.0,0.0,0.0,0.0,0.0,0.0,0.0,0.0,0.0,0.0,0.0,0.0,0.0,0.0,0.0,0.0,0.0,0.0,0.0,0.0,0.0,0.0,0.0,0.0,0.0,0.0,0.0,0.0,0.0,0.0,0.0,0.0,0.0,0.0,0.0,0.0,0.0,0.0,0.0,0.0,0.0,0.0,0.0,0.0,0.0,0.0,0.0,0.0,0.0,0.0,0.0,0.0,0.0,0.0,0.0,0.0,0.0,0.0,0.0,0.0,0.0,0.0,0.0,0.0,0.0,0.0,0.0,0.0,0.0,0.0,0.0,0.0,0.0,0.0,0.0,-1.4923,-1.5244,-1.5391,-1.5378,-1.5097,-1.4856,0.0,0.0,0.0,0.0,0.0,0.0,0.0,0.0,0.0,0.0,0.0,0.0,0.0,0.0,0.0,0.0,0.0,0.0,0.0,0.0,0.0,0.0,0.0,0.0,0.0,0.0,0.0,0.0,0.0,0.0,0.0,0.0,0.0,0.0,0.0,0.0,0.0,0.0,0.0,0.0,0.0,0.0,0.0,0.0,0.0,0.0,0.0,0.0,0.0,0.0,0.0,0.0,0.0,0.0,0.0,0.0,0.0,0.0,0.0,0.0,0.0,0.0,0.0,0.0,0.0,0.0,0.0,0.0,0.0,0.0,0.0,0.0,0.0,0.0,0.0,0.0,0.0,0.0,0.0,0.0,0.0,0.0,0.0,0.0,0.0,0.0,0.0,0.0,0.0,0.0,0.0,0.0,0.0,0.0,0.0,0.0,0.0,0.0,0.0,0.0,0.0,0.0,0.0,0.0,0.0,0.0,0.0,0.0,-1.499,-1.5805,-1.6126,-1.6286,-1.6273,-1.5979,-1.5565,0.0,0.0,0.0,0.0,0.0,0.0,0.0,0.0,0.0,0.0,0.0,0.0,0.0,0.0,0.0,0.0,0.0,0.0,0.0,0.0,0.0,0.0,0.0,0.0,0.0,0.0,0.0,0.0,0.0,0.0,0.0,0.0,0.0,0.0,0.0,0.0,0.0,0.0,0.0,0.0,0.0,0.0,0.0,0.0,0.0,0.0,0.0,0.0,0.0,0.0,0.0,0.0,0.0,0.0,0.0,0.0,0.0,0.0,0.0,0.0,0.0,0.0,0.0,0.0,0.0,0.0,0.0,0.0,0.0,0.0,0.0,0.0,0.0,0.0,0.0,0.0,0.0,0.0,0.0,0.0,0.0,0.0,0.0,0.0,0.0,0.0,0.0,0.0,0.0,0.0,0.0,0.0,0.0,0.0,0.0,0.0,0.0,0.0,0.0,0.0,0.0,0.0,0.0,0.0,0.0,0.0,0.0,0.0,0.0,-1.6446,-1.6927,-1.7181,-1.7168,-1.6687,-1.6259,0.0,0.0,0.0,0.0,0.0,0.0,0.0,0.0,0.0,0.0,0.0,0.0,0.0,0.0,0.0,0.0,0.0,0.0,0.0,0.0,0.0,0.0,0.0,0.0,0.0,0.0,0.0,0.0,0.0,0.0,0.0,0.0,0.0,0.0,0.0,0.0,0.0,0.0,0.0,0.0,0.0,0.0,0.0,0.0,0.0,0.0,0.0,0.0,0.0,0.0,0.0,0.0,0.0,0.0,0.0,0.0,0.0,0.0,0.0,0.0,0.0,0.0,0.0,0.0,0.0,0.0,0.0,0.0,0.0,0.0,0.0,0.0,0.0,0.0,0.0,0.0,0.0,0.0,0.0,0.0,0.0,0.0,0.0,0.0,0.0,0.0,0.0,0.0,0.0,0.0,0.0,0.0,0.0,0.0,0.0,0.0,0.0,0.0,0.0,0.0,0.0,0.0,0.0,0.0,0.0,0.0,0.0,0.0,0.0,-1.8196,-1.8437,-1.8571,-1.8571,-1.8009,-1.7355,-1.662,0.0,0.0,0.0,0.0,0.0,0.0,0.0,0.0,0.0,0.0,0.0,0.0,0.0,0.0,0.0,0.0,0.0,0.0,0.0,0.0,0.0,0.0,0.0,0.0,0.0,0.0,0.0,0.0,0.0,0.0,0.0,0.0,0.0,0.0,0.0,0.0,0.0,0.0,0.0,0.0,0.0,0.0,0.0,0.0,0.0,0.0,0.0,0.0,0.0,0.0,0.0,0.0,0.0,0.0,0.0,0.0,0.0,0.0,0.0,0.0,0.0,0.0,0.0,0.0,0.0,0.0,0.0,0.0,0.0,0.0,0.0,0.0,0.0,0.0,0.0,0.0,0.0,0.0,0.0,0.0,0.0,0.0,0.0,0.0,0.0,0.0,0.0,0.0,0.0,0.0,0.0,0.0,0.0,0.0,0.0,0.0,0.0,0.0,0.0,0.0,0.0,0.0,0.0,0.0,0.0,0.0,0.0,0.0,-2.0762,-2.0548,-2.0401,-2.0307,-1.9733,-1.8758,0.0,0.0,0.0,0.0,0.0,0.0,0.0,0.0,0.0,0.0,0.0,0.0,0.0,0.0,0.0,0.0,0.0,0.0,0.0,0.0,0.0,0.0,0.0,0.0,0.0,0.0,0.0,0.0,0.0,0.0,0.0,0.0,0.0,0.0,0.0,0.0,0.0,0.0,0.0,0.0,0.0,0.0,0.0,0.0,0.0,0.0,0.0,0.0,0.0,0.0,0.0,0.0,0.0,0.0,0.0,0.0,0.0,0.0,0.0,0.0,0.0,0.0,0.0,0.0,0.0,0.0,0.0,0.0,0.0,0.0,0.0,0.0,0.0,0.0,0.0,0.0,0.0,0.0,0.0,0.0,0.0,0.0,0.0,0.0,0.0,0.0,0.0,0.0,0.0,0.0,0.0,0.0,0.0,0.0,0.0,0.0,0.0,0.0,0.0,0.0,0.0,0.0,0.0,0.0,0.0,0.0,0.0,0.0,0.0,-2.1924,-2.2539,-2.2432,-2.155,-2.0513,-1.9496,0.0,0.0,0.0,0.0,0.0,0.0,0.0,0.0,0.0,0.0,0.0,0.0,0.0,0.0,0.0,0.0,0.0,0.0,0.0,0.0,0.0,0.0,0.0,0.0,0.0,0.0,0.0,0.0,0.0,0.0,0.0,0.0,0.0,0.0,0.0,0.0,0.0,0.0,0.0,0.0,0.0,0.0,0.0,0.0,0.0,0.0,0.0,0.0,0.0,0.0,0.0,0.0,0.0,0.0,0.0,0.0,0.0,0.0,0.0,0.0,0.0,0.0,0.0,0.0,0.0,0.0,0.0,0.0,0.0,0.0,0.0,0.0,0.0,0.0,0.0,0.0,0.0,0.0,0.0,0.0,0.0,0.0,0.0,0.0,0.0,0.0,0.0,0.0,0.0,0.0,0.0,0.0,0.0,0.0,0.0,0.0,0.0,0.0,0.0,0.0,0.0,0.0,0.0,0.0,0.0,0.0,0.0,0.0,-2.1617,-2.2779,-2.295,-2.278,-2.2128,-2.1211,-2.0129,0.0,0.0,0.0,0.0,0.0,0.0,0.0,0.0,0.0,0.0,0.0,0.0,0.0,0.0,0.0,0.0,0.0,0.0,0.0,0.0,0.0,0.0,0.0,0.0,0.0,0.0,0.0,0.0,0.0,0.0,0.0,0.0,0.0,0.0,0.0,0.0,0.0,0.0,0.0,0.0,0.0,0.0,0.0,0.0,0.0,0.0,0.0,0.0,0.0,0.0,0.0,0.0,0.0,0.0,0.0,0.0,0.0,0.0,0.0,0.0,0.0,0.0,0.0,0.0,0.0,0.0,0.0,0.0,0.0,0.0,0.0,0.0,0.0,0.0,0.0,0.0,0.0,0.0,0.0,0.0,0.0,0.0,0.0,0.0,0.0,0.0,0.0,0.0,0.0,0.0,0.0,0.0,0.0,0.0,0.0,0.0,0.0,0.0,0.0,0.0,0.0,0.0,0.0,0.0,0.0,0.0,0.0,0.0,-2.2205,-2.3354,-2.2714,-2.2372,-2.2186,-2.1567,-2.0529,0.0,0.0,0.0,0.0,0.0,0.0,0.0,0.0,0.0,0.0,0.0,0.0,0.0,0.0,0.0,0.0,0.0,0.0,0.0,0.0,0.0,0.0,0.0,0.0,0.0,0.0,0.0,0.0,0.0,0.0,0.0,0.0,0.0,0.0,0.0,0.0,0.0,0.0,0.0,0.0,0.0,0.0,0.0,0.0,0.0,0.0,0.0,0.0,0.0,0.0,0.0,0.0,0.0,0.0,0.0,0.0,0.0,0.0,0.0,0.0,0.0,0.0,0.0,0.0,0.0,0.0,0.0,0.0,0.0,0.0,0.0,0.0,0.0,0.0,0.0,0.0,0.0,0.0,0.0,0.0,0.0,0.0,0.0,0.0,0.0,0.0,0.0,0.0,0.0,0.0,0.0,0.0,0.0,0.0,0.0,0.0,0.0,0.0,0.0,0.0,0.0,0.0,0.0,0.0,0.0,0.0,0.0,0.0,-2.2712,-2.3647,-2.4011,-2.3426,-2.2223,-2.0635,-1.9255,0.0,0.0,0.0,0.0,0.0,0.0,0.0,0.0,0.0,0.0,0.0,0.0,0.0,0.0,0.0,0.0,0.0,0.0,0.0,0.0,0.0,0.0,0.0,0.0,0.0,0.0,0.0,0.0,0.0,0.0,0.0,0.0,0.0,0.0,0.0,0.0,0.0,0.0,0.0,0.0,0.0,0.0,0.0,0.0,0.0,0.0,0.0,0.0,-1.8744,0.0,0.0,0.0,0.0,0.0,0.0,0.0,0.0,0.0,0.0,0.0,0.0,0.0,0.0,0.0,0.0,0.0,0.0,0.0,0.0,0.0,0.0,0.0,0.0,0.0,0.0,0.0,0.0,0.0,0.0,0.0,0.0,0.0,0.0,0.0,0.0,0.0,0.0,0.0,0.0,0.0,0.0,0.0,0.0,0.0,0.0,0.0,0.0,0.0,0.0,0.0,0.0,0.0,0.0,0.0,0.0,0.0,0.0,0.0,-2.3287,-2.4155,-2.3103,-2.2554,-2.2392,-1.9402,-1.7653,0.0,0.0,0.0,0.0,0.0,0.0,0.0,0.0,0.0,0.0,0.0,0.0,0.0,0.0,0.0,0.0,0.0,0.0,0.0,0.0,0.0,0.0,0.0,0.0,0.0,0.0,0.0,0.0,0.0,0.0,0.0,0.0,0.0,0.0,0.0,0.0,0.0,0.0,0.0,0.0,0.0,0.0,0.0,0.0,0.0,0.0,0.0,0.0,0.0,0.0,0.0,0.0,0.0,0.0,0.0,0.0,0.0,0.0,0.0,0.0,0.0,0.0,0.0,0.0,0.0,0.0,0.0,0.0,0.0,0.0,0.0,0.0,0.0,0.0,0.0,0.0,0.0,0.0,0.0,0.0,0.0,0.0,0.0,0.0,0.0,0.0,0.0,0.0,0.0,0.0,0.0,0.0,0.0,0.0,0.0,0.0,0.0,0.0,0.0,0.0,0.0,0.0,0.0,0.0,0.0,0.0,0.0,-2.2712,-2.3834,-2.4581,-2.2106,-2.1142,-2.2212,-1.826,-1.6471,-1.7076,0.0,0.0,0.0,0.0,0.0,0.0,0.0,0.0,0.0,0.0,0.0,0.0,0.0,0.0,0.0,0.0,0.0,0.0,0.0,0.0,0.0,0.0,0.0,0.0,0.0,0.0,0.0,0.0,0.0,0.0,0.0,0.0,0.0,0.0,0.0,0.0,0.0,0.0,-1.7007,-1.8277,0.0,0.0,0.0,0.0,0.0,0.0,0.0,0.0,-2.0762,0.0,0.0,0.0,0.0,0.0,0.0,0.0,0.0,0.0,0.0,0.0,0.0,0.0,0.0,0.0,0.0,0.0,0.0,0.0,0.0,0.0,0.0,0.0,0.0,0.0,0.0,0.0,0.0,0.0,0.0,0.0,0.0,0.0,0.0,0.0,0.0,0.0,0.0,0.0,0.0,0.0,0.0,0.0,0.0,0.0,0.0,0.0,0.0,0.0,0.0,0.0,0.0,0.0,0.0,0.0,0.0,-2.2552,-2.3313,-2.4249,-2.5331,-2.3538,-2.1997,-2.0902,-1.8774,-1.6899,-1.5237,0.0,0.0,0.0,0.0,0.0,0.0,0.0,0.0,0.0,0.0,0.0,0.0,0.0,0.0,0.0,0.0,0.0,0.0,0.0,0.0,0.0,0.0,0.0,0.0,0.0,0.0,0.0,0.0,0.0,0.0,0.0,0.0,0.0,0.0,0.0,0.0,0.0,0.0,0.0,-1.9559,-2.0334,0.0,0.0,0.0,0.0,0.0,0.0,0.0,0.0,-2.1643,0.0,0.0,0.0,0.0,0.0,0.0,0.0,0.0,0.0,0.0,0.0,0.0,0.0,0.0,0.0,0.0,0.0,0.0,0.0,0.0,0.0,0.0,0.0,0.0,0.0,0.0,0.0,0.0,0.0,0.0,0.0,0.0,0.0,0.0,0.0,0.0,0.0,0.0,0.0,0.0,0.0,0.0,0.0,0.0,0.0,0.0,0.0,0.0,0.0,0.0,0.0,0.0,0.0,0.0,0.0,-2.2585,-2.331,-2.3783,-2.4288,-2.1951,-2.0537,-2.0673,-1.7971,-1.6205,0.0,0.0,0.0,0.0,0.0,0.0,0.0,0.0,0.0,0.0,0.0,0.0,0.0,0.0,0.0,0.0,0.0,0.0,0.0,0.0,0.0,0.0,0.0,0.0,0.0,0.0,0.0,0.0,0.0,0.0,0.0,0.0,0.0,0.0,0.0,0.0,0.0,0.0,0.0,0.0,-2.0548,-2.1349,-2.2539,0.0,0.0,0.0,0.0,0.0,0.0,-2.33,-2.2806,0.0,0.0,0.0,0.0,0.0,0.0,0.0,0.0,0.0,0.0,0.0,0.0,0.0,0.0,0.0,0.0,0.0,0.0,0.0,0.0,0.0,0.0,0.0,0.0,0.0,0.0,0.0,0.0,0.0,0.0,0.0,0.0,0.0,0.0,0.0,0.0,0.0,0.0,0.0,0.0,0.0,0.0,0.0,0.0,0.0,0.0,0.0,0.0,0.0,0.0,0.0,0.0,0.0,0.0,0.0,-2.2688,-2.2863,-2.3162,-2.3464,-2.0279,-1.916,-2.0429,-1.7087,-1.5573,0.0,0.0,0.0,0.0,0.0,0.0,0.0,0.0,0.0,0.0,0.0,0.0,0.0,0.0,0.0,0.0,0.0,0.0,0.0,0.0,0.0,0.0,0.0,0.0,0.0,0.0,0.0,0.0,0.0,0.0,0.0,0.0,0.0,0.0,0.0,0.0,0.0,0.0,0.0,0.0,0.0,-2.2311,-2.3661,-2.3287,0.0,0.0,0.0,0.0,-2.4476,-2.4369,0.0,0.0,0.0,0.0,0.0,0.0,0.0,0.0,0.0,0.0,0.0,0.0,0.0,0.0,0.0,0.0,0.0,0.0,0.0,0.0,0.0,0.0,0.0,0.0,0.0,0.0,0.0,0.0,0.0,0.0,0.0,0.0,0.0,0.0,0.0,0.0,0.0,0.0,0.0,0.0,0.0,0.0,0.0,0.0,0.0,0.0,0.0,0.0,0.0,0.0,0.0,0.0,0.0,0.0,0.0,0.0,-2.365,-2.1997,-2.2121,-2.4079,-2.0973,-1.9155,-1.9313,-1.7091,-1.5655,0.0,0.0,0.0,0.0,0.0,0.0,0.0,0.0,0.0,0.0,0.0,0.0,0.0,0.0,0.0,0.0,0.0,0.0,0.0,0.0,0.0,0.0,0.0,0.0,0.0,0.0,0.0,0.0,0.0,0.0,0.0,0.0,0.0,0.0,0.0,0.0,0.0,0.0,0.0,0.0,0.0,-2.306,-2.4022,-2.4275,-2.4409,0.0,0.0,-2.5371,-2.5705,-2.5718,0.0,0.0,0.0,0.0,0.0,0.0,0.0,0.0,0.0,0.0,0.0,0.0,0.0,0.0,0.0,0.0,0.0,0.0,0.0,0.0,0.0,0.0,0.0,0.0,0.0,0.0,0.0,0.0,0.0,0.0,0.0,0.0,0.0,0.0,0.0,0.0,0.0,0.0,0.0,0.0,0.0,0.0,0.0,0.0,0.0,0.0,0.0,0.0,0.0,0.0,0.0,0.0,0.0,0.0,0.0,-2.1408,-2.1948,-2.1811,-2.1712,-2.1431,-1.9043,-1.7869,-1.7756,-1.663,-1.5565,0.0,0.0,0.0,0.0,0.0,0.0,0.0,0.0,0.0,0.0,0.0,0.0,0.0,0.0,0.0,0.0,0.0,0.0,0.0,0.0,0.0,0.0,0.0,0.0,0.0,0.0,0.0,0.0,0.0,0.0,0.0,0.0,0.0,0.0,0.0,0.0,0.0,0.0,0.0,0.0,0.0,0.0,-2.477,-2.505,0.0,0.0,0.0,-2.5812,-2.5932,0.0,0.0,0.0,0.0,0.0,0.0,0.0,0.0,0.0,0.0,0.0,0.0,0.0,0.0,0.0,0.0,0.0,0.0,0.0,0.0,0.0,0.0,0.0,0.0,0.0,0.0,0.0,0.0,0.0,0.0,0.0,0.0,0.0,0.0,0.0,0.0,0.0,0.0,0.0,0.0,0.0,0.0,0.0,0.0,0.0,0.0,0.0,0.0,0.0,0.0,0.0,0.0,0.0,0.0,0.0,0.0,0.0,-2.0649,-2.0962,-2.0633,-1.9418,-1.7836,-1.6982,-1.6844,-1.6324,0.0,0.0,0.0,0.0,0.0,0.0,0.0,0.0,0.0,0.0,0.0,0.0,0.0,0.0,0.0,0.0,0.0,0.0,0.0,0.0,0.0,0.0,0.0,0.0,0.0,0.0,0.0,-1.5418,0.0,0.0,0.0,0.0,0.0,0.0,0.0,0.0,0.0,0.0,0.0,0.0,0.0,0.0,-2.4128,-2.5438,-2.5812,-2.6106,0.0,0.0,-2.64,-2.6386,-2.6453,-2.6159,0.0,0.0,0.0,0.0,0.0,0.0,0.0,0.0,0.0,0.0,0.0,0.0,0.0,0.0,0.0,0.0,0.0,0.0,0.0,0.0,0.0,0.0,0.0,0.0,0.0,0.0,0.0,0.0,0.0,0.0,0.0,0.0,0.0,0.0,0.0,0.0,0.0,0.0,0.0,0.0,0.0,0.0,0.0,0.0,0.0,0.0,0.0,0.0,0.0,0.0,0.0,0.0,0.0,0.0,0.0,-2.1435,-1.8919,-1.8487,-2.0205,-1.8467,-1.7583,-1.7559,-1.7055,-1.6446,0.0,0.0,0.0,0.0,0.0,0.0,0.0,0.0,0.0,0.0,0.0,0.0,0.0,0.0,0.0,0.0,0.0,0.0,0.0,0.0,0.0,0.0,0.0,0.0,0.0,0.0,0.0,0.0,0.0,0.0,0.0,0.0,0.0,0.0,0.0,0.0,0.0,0.0,0.0,0.0,0.0,-2.489,-2.5798,-2.6627,-2.7161,0.0,0.0,-2.7589,-2.7575,-2.7802,-2.7509,-2.6092,0.0,0.0,0.0,0.0,0.0,0.0,0.0,0.0,0.0,0.0,0.0,0.0,0.0,0.0,0.0,0.0,0.0,0.0,0.0,0.0,0.0,0.0,0.0,0.0,0.0,0.0,0.0,0.0,0.0,0.0,0.0,0.0,0.0,0.0,0.0,0.0,0.0,0.0,0.0,0.0,0.0,0.0,0.0,0.0,0.0,0.0,0.0,0.0,0.0,0.0,0.0,0.0,0.0,-1.9039,-1.9297,-1.9324,-1.9042,-1.8708,-1.811,-1.7762,-1.7648,-1.7339,-1.6893,0.0,0.0,0.0,0.0,0.0,0.0,0.0,0.0,0.0,0.0,0.0,0.0,0.0,0.0,0.0,0.0,0.0,0.0,0.0,0.0,0.0,0.0,0.0,0.0,0.0,0.0,0.0,0.0,-2.0433,-2.0913,-2.0358,0.0,0.0,0.0,0.0,0.0,0.0,0.0,0.0,0.0,0.0,-2.5905,-2.7121,-2.7589,0.0,0.0,-2.803,-2.7909,-2.7722,-2.7949,-2.7709,-2.6426,-2.5892,0.0,0.0,0.0,0.0,0.0,0.0,0.0,0.0,0.0,0.0,0.0,0.0,0.0,0.0,0.0,0.0,0.0,0.0,0.0,0.0,0.0,0.0,0.0,0.0,0.0,0.0,0.0,0.0,0.0,0.0,0.0,0.0,0.0,0.0,0.0,0.0,0.0,0.0,0.0,0.0,0.0,0.0,0.0,0.0,0.0,0.0,0.0,0.0,0.0,0.0,0.0,0.0,-1.8907,-1.8208,-1.9446,-1.9314,-1.7965,-1.8095,-1.8103,-1.7965,-1.7794,-1.7478,0.0,0.0,0.0,0.0,0.0,0.0,0.0,0.0,0.0,0.0,0.0,0.0,0.0,0.0,0.0,0.0,0.0,0.0,0.0,0.0,0.0,0.0,0.0,0.0,0.0,0.0,0.0,0.0,-2.0952,-2.1136,-1.9923,0.0,0.0,0.0,0.0,0.0,0.0,0.0,0.0,0.0,0.0,-2.7014,-2.7954,-2.8076,-2.8063,-2.8021,-2.7852,-2.7473,-2.7448,-2.7513,-2.7459,-2.6743,0.0,0.0,0.0,0.0,0.0,0.0,0.0,0.0,0.0,0.0,0.0,0.0,0.0,0.0,0.0,0.0,0.0,0.0,0.0,0.0,0.0,0.0,0.0,0.0,0.0,0.0,0.0,0.0,0.0,0.0,-1.3619,0.0,0.0,0.0,0.0,0.0,0.0,0.0,0.0,0.0,0.0,0.0,0.0,0.0,0.0,0.0,0.0,0.0,0.0,0.0,0.0,0.0,0.0,-1.8009,-1.9003,-1.8702,-1.8509,-1.8671,-1.8704,-1.8688,-1.8671,-1.8517,-1.8249,-1.7875,0.0,0.0,0.0,0.0,0.0,0.0,0.0,0.0,0.0,0.0,0.0,0.0,0.0,0.0,0.0,0.0,0.0,0.0,0.0,0.0,0.0,0.0,0.0,0.0,0.0,0.0,-1.8792,-2.0035,-2.0303,0.0,0.0,0.0,0.0,0.0,0.0,0.0,0.0,0.0,0.0,-2.7175,-2.8034,-2.7865,-2.8011,-2.7725,-2.6971,-2.657,-2.637,-2.6896,-2.6698,-2.677,0.0,0.0,0.0,0.0,0.0,0.0,0.0,0.0,0.0,0.0,0.0,0.0,0.0,0.0,0.0,0.0,0.0,0.0,0.0,0.0,0.0,0.0,0.0,0.0,0.0,0.0,0.0,-1.3044,-1.4149,0.0,0.0,0.0,0.0,0.0,0.0,0.0,0.0,0.0,0.0,0.0,-1.8821,-1.8821,0.0,0.0,0.0,0.0,0.0,0.0,0.0,0.0,0.0,0.0,0.0,0.0,-1.7962,-1.8173,-1.8367,-1.842,-1.8363,-1.8476,-1.855,-1.8541,-1.8606,-1.8403,-1.7932,0.0,0.0,0.0,0.0,0.0,0.0,0.0,0.0,0.0,0.0,0.0,0.0,0.0,0.0,0.0,0.0,0.0,0.0,0.0,0.0,0.0,0.0,0.0,0.0,0.0,-1.8047,0.0,0.0,0.0,0.0,0.0,0.0,0.0,0.0,0.0,0.0,0.0,-2.5358,-2.6298,-2.6639,-2.6972,-2.7256,-2.7287,-2.7075,0.0,0.0,0.0,0.0,0.0,0.0,0.0,0.0,0.0,0.0,0.0,0.0,0.0,0.0,-2.5678,-2.4917,-2.5317,-2.5785,-2.5785,0.0,0.0,0.0,0.0,0.0,0.0,0.0,0.0,0.0,0.0,0.0,0.0,0.0,0.0,0.0,0.0,-1.495,0.0,0.0,0.0,0.0,0.0,0.0,0.0,0.0,-1.8096,-1.87,-1.9205,-1.8976,-1.9065,0.0,-1.8248,-1.7933,0.0,0.0,0.0,0.0,0.0,0.0,0.0,0.0,-1.7785,-1.784,-1.8305,-1.8485,-1.8379,-1.8485,-1.8574,-1.8639,-1.8818,-1.8712,-1.8306,-1.7949,-1.7266,0.0,0.0,0.0,0.0,0.0,0.0,0.0,0.0,0.0,0.0,0.0,0.0,0.0,0.0,0.0,0.0,0.0,0.0,0.0,0.0,0.0,0.0,0.0,-1.794,0.0,0.0,0.0,0.0,0.0,0.0,0.0,0.0,0.0,-2.2257,-2.3913,-2.53,-2.5908,-2.6102,-2.6198,-2.6541,0.0,0.0,0.0,0.0,0.0,0.0,0.0,-2.5901,-2.6759,-2.7103,-2.7473,-2.7904,-2.8074,-2.8043,-2.803,0.0,0.0,-2.6814,-2.7108,-2.7575,-2.7575,-2.7655,-2.7736,-2.7736,-2.8123,-2.847,0.0,0.0,0.0,0.0,0.0,0.0,0.0,0.0,-1.4992,-1.5337,0.0,-1.5949,0.0,0.0,0.0,0.0,0.0,0.0,0.0,0.0,-1.8866,-1.9876,-2.0905,-2.0706,-2.0726,-2.0875,-1.8763,-1.7955,-1.8443,-1.8117,0.0,0.0,0.0,0.0,0.0,0.0,-1.7647,-1.8199,-1.8535,-1.8712,-1.8696,-1.8704,-1.8801,-1.898,-1.9159,-1.9167,-1.8996,-1.8663,-1.8152,-1.7429,-1.6405,0.0,0.0,0.0,0.0,0.0,0.0,0.0,0.0,0.0,0.0,0.0,0.0,0.0,0.0,0.0,0.0,0.0,0.0,0.0,0.0,-1.6508,0.0,0.0,0.0,0.0,0.0,0.0,0.0,0.0,0.0,0.0,-2.1383,-2.3209,-2.4542,-2.4789,0.0,0.0,0.0,0.0,-2.4031,-2.3852,-2.3493,-2.3504,-2.3872,-2.331,-2.3999,-2.7028,0.0,0.0,-2.9647,-2.974,-2.9553,-2.9553,-2.9993,-2.986,-2.8177,-2.815,-2.8337,-2.8337,-2.8591,-2.8711,-2.8764,-2.9419,-2.9953,-1.3904,0.0,0.0,0.0,0.0,-1.3449,-1.418,-1.554,-1.5648,-1.6107,-1.6973,-1.6922,0.0,0.0,0.0,0.0,0.0,0.0,-1.7765,-1.7966,-1.8496,-1.8757,-1.8751,-1.8561,-1.8578,-1.8751,-1.8262,-1.8174,-1.8459,-1.8492,-1.8151,-1.7421,0.0,0.0,0.0,0.0,-1.7957,-1.8026,-1.8298,-1.8468,-1.8338,-1.846,-1.8736,-1.9167,-1.9232,-1.9289,-1.9354,-1.9264,-1.8818,-1.7989,-1.7534,0.0,0.0,0.0,0.0,0.0,0.0,0.0,0.0,0.0,0.0,0.0,0.0,0.0,0.0,0.0,0.0,0.0,0.0,0.0,-1.5745,-1.6329,-1.6703,0.0,0.0,0.0,0.0,0.0,0.0,0.0,0.0,0.0,-2.0018,-2.2303,-2.4031,0.0,0.0,-2.3947,-2.356,-2.3233,-2.2573,-2.1568,0.0,0.0,0.0,-2.2151,-2.2713,-2.4115,-2.5983,-2.821,-3.0795,-3.1102,-3.1049,-3.1036,-3.1169,-3.1116,-3.0688,-3.0595,-3.0635,-3.0662,-3.0728,-3.0795,-3.0808,-3.1022,-3.1223,-1.591,-1.5147,-1.4188,-1.4164,-1.4741,-1.4749,-1.5423,-1.6511,-1.6438,-1.6787,-1.7297,-1.7372,-1.7379,-1.7535,-1.7829,0.0,0.0,0.0,-1.7958,-1.796,-1.8068,-1.8034,-1.8005,-1.7908,-1.7908,-1.8005,-1.7908,-1.803,-1.8338,-1.8241,-1.8001,-1.7772,0.0,0.0,-1.7621,-1.7844,-1.7952,-1.8119,-1.8412,-1.8501,-1.8395,-1.8566,-1.8818,-1.9134,-1.9216,-1.9305,-1.941,-1.9475,-1.9199,-1.8525,-1.8265,-1.7591,0.0,0.0,0.0,0.0,0.0,0.0,0.0,0.0,0.0,0.0,0.0,-1.3262,0.0,0.0,0.0,0.0,-1.5366,-1.5579,-1.625,-1.6517,0.0,0.0,0.0,0.0,0.0,0.0,0.0,-1.8379,-1.8646,-1.8783,-1.9458,-2.1063,-2.2402,-2.2441,-2.2202,-2.203,-2.2183,0.0,-2.1338,-2.0834,-2.1273,-2.1506,-2.1028,-2.1244,-2.1831,-2.2812,-2.5166,-2.7513,-2.9068,-2.9467,-2.9467,-2.9467,-2.9467,-2.966,-3.0651,-3.0844,-3.0946,-3.1527,-3.177,-3.1837,-3.1837,-3.2024,-3.2251,-1.764,-1.7469,-1.5512,-1.5268,-1.6154,-1.6186,-1.6755,-1.764,-1.751,-1.7364,-1.7234,-1.7396,-1.746,-1.7679,-1.819,0.0,-1.7739,-1.7898,-1.7985,-1.7957,-1.794,-1.8038,-1.8217,-1.82,-1.8208,-1.8208,-1.7721,-1.7746,-1.8208,-1.7746,-1.7754,-1.8241,-1.807,-1.7973,-1.7957,-1.7965,-1.8135,-1.8468,-1.8639,-1.8728,-1.8728,-1.8883,-1.8972,-1.9004,-1.9175,-1.9272,-1.9281,-1.9427,-1.9354,-1.8996,-1.868,-1.8265,-1.7689,0.0,0.0,0.0,0.0,0.0,0.0,0.0,0.0,0.0,0.0,0.0,0.0,0.0,0.0,0.0,-1.6844,0.0,-1.7063,-1.682,0.0,0.0,0.0,-1.6884,-1.7406,-1.7939,-1.8313,-1.8679,0.0,0.0,-1.9288,0.0,-1.9995,-2.042,-2.0448,-2.0659,-2.1397,-2.0672,-2.0405,-2.1125,-2.1203,-2.1221,-2.1203,-2.0824,-2.1238,-2.2838,-2.4628,-2.5829,-2.6218,-2.6428,-2.6218,-2.6417,-2.6029,-2.6827,-2.8824,-2.9033,-2.9481,-3.0972,-3.1806,-3.2131,-3.2158,-3.2505,-3.2853,-1.764,-1.7599,-1.7088,-1.7031,-1.7274,-1.7413,-1.7616,-1.7851,-1.7949,-1.8038,-1.8135,-1.8176,-1.8338,-1.8256,-1.8483,-1.8239,-1.8108,-1.8149,-1.8289,-1.8306,-1.8176,-1.8282,-1.8582,-1.8452,-1.846,-1.8582,-1.8468,-1.8541,-1.8769,-1.8533,-1.8606,-1.8964,-1.8688,-1.846,-1.833,-1.8322,-1.8436,-1.8655,-1.8704,-1.8728,-1.8728,-1.8761,-1.8915,-1.9183,-1.924,-1.9321,-1.9451,-1.9492,-1.9345,-1.9004,-1.9037,-1.8761,-1.8079,-1.7648,0.0,0.0,0.0,0.0,0.0,0.0,0.0,0.0,0.0,-1.5463,-1.5764,0.0,-1.725,0.0,-1.7672,-1.7551,-1.6779,-1.712,0.0,0.0,-1.7296,-1.7312,-1.7485,-1.8002,-1.8317,-1.8541,-1.874,-1.9068,-1.9298,-1.9511,-1.9692,-1.9974,-2.0559,-2.0959,-2.0854,-2.0662,-2.0284,-2.0198,-2.0339,-2.0405,-2.043,-2.0315,-2.101,-2.3054,-2.3865,-2.4674,-2.6296,-2.6702,-2.6702,-2.6702,-2.6702,-2.6905,-2.7311,-2.7514,-2.7481,-2.8152,-3.0305,-3.2438,-3.2438,-3.2572,-3.2719,-1.8046,-1.8127,-1.8127,-1.8119,-1.8103,-1.7892,-1.7794,-1.7802,-1.79,-1.7997,-1.8095,-1.8176,-1.8257,-1.8338,-1.842,-1.8395,-1.8306,-1.8387,-1.8476,-1.8566,-1.8468,-1.8533,-1.872,-1.8623,-1.8623,-1.872,-1.8728,-1.8818,-1.8972,-1.8883,-1.9021,-1.9362,-1.9175,-1.9061,-1.9037,-1.8809,-1.8858,-1.9199,-1.9281,-1.9321,-1.9321,-1.924,-1.9297,-1.9484,-1.9419,-1.9419,-1.9508,-1.9516,-1.9386,-1.9126,-1.9207,-1.9077,-1.868,-1.8257,-1.7737,0.0,0.0,0.0,0.0,0.0,0.0,0.0,0.0,0.0,0.0,0.0,-1.7965,-1.7892,-1.8062,-1.79,-1.7242,-1.7534,-1.7786,-1.7851,-1.7859,-1.7957,-1.8208,-1.8485,-1.8728,-1.8907,-1.9167,-1.9378,-1.9484,-1.9719,-1.9906,-2.0011,-2.0778,-2.1027,-2.0677,-2.0505,-2.0588,-2.0255,-2.0353,-2.0418,-2.0418,-2.0491,-2.0977,-2.2013,-2.2433,-2.2843,-2.408,-2.4288,-2.4288,-2.4288,-2.4288,-2.4497,-2.533,-2.5736,-2.6151,-2.8403,-3.0274,-3.1628,-3.1586,-3.1522,-3.1784,-1.8574,-1.8728,-1.8728,-1.8728,-1.868,-1.8046,-1.7778,-1.7778,-1.7778,-1.7778,-1.7794,-1.7949,-1.8103,-1.8257,-1.8412,-1.8485,-1.8501,-1.868,-1.8761,-1.8753,-1.8785,-1.8801,-1.8826,-1.8826,-1.8834,-1.8858,-1.8858,-1.8939,-1.9086,-1.9086,-1.924,-1.954,-1.9549,-1.963,-1.976,-1.9321,-1.9321,-1.9784,-1.9946,-2.0036,-2.0028,-1.9873,-1.9792,-1.9784,-1.963,-1.9549,-1.9549,-1.9549,-1.9475,-1.9337,-1.9329,-1.9337,-1.9345,-1.8736,-1.8306,0.0,-1.7494,0.0,0.0,0.0,0.0,0.0,0.0,0.0,0.0,-1.833,-1.8444,-1.8257,-1.8241,-1.8184,-1.803,-1.8038,-1.8176,-1.8485,-1.8566,-1.8712,-1.9013,-1.9216,-1.9386,-1.9532,-1.9711,-1.9833,-1.9865,-2.015,-2.0353,-2.0401,-2.0653,-2.0947,-2.0507,-2.0531,-2.0653,-2.084,-2.0848,-2.0791,-2.0799,-2.0824,-2.0832,-2.084,-2.1037,-2.0848,-2.1045,-2.1045,-2.1054,-2.1054,-2.1251,-2.1678,-2.3381,-2.3796,-2.5058,-2.8181,-2.8994,-2.9492,-3.079,-3.1073,-3.1276,-1.8696,-1.8728,-1.8728,-1.8728,-1.8712,-1.8574,-1.8517,-1.8525,-1.8517,-1.8517,-1.8525,-1.8558,-1.859,-1.8623,-1.8655,-1.8671,-1.8688,-1.8858,-1.8939,-1.8939,-1.9094,-1.9232,-1.9362,-1.9362,-1.9443,-1.9581,-1.9589,-1.9605,-1.9638,-1.9638,-1.967,-1.9735,-1.9735,-1.9752,-1.9784,0.0,0.0,0.0,-1.9825,-1.9841,-1.9841,-1.9808,-1.9792,-1.9792,-1.976,0.0,-1.9735,-1.9735,-1.9727,-1.9695,-1.9687,0.0,0.0,0.0,0.0,0.0,0.0,0.0,0.0,0.0,0.0,0.0,-1.8655,-1.8582,-1.8574,-1.8761,-1.8809,-1.8639,-1.8623,-1.8606,-1.8574,-1.8704,-1.8809,-1.8883,-1.9134,-1.9337,-1.9419,-1.9581,-1.9703,-1.9735,-1.9906,-2.0068,-2.0206,-2.0409,-2.0596,-2.0742,-2.0937,-2.1043,-2.0986,-2.088,-2.0824,-2.0856,-2.088,-2.0864,-2.0848,-2.0864,-2.0889,-2.0848,-2.0848,-2.0864,-2.0872,-2.0864,-2.0864,-2.0864,-2.0848,-2.1078,-2.1498,-2.1489,-2.1934,-2.2752,-2.2974,-2.5048,-3.1875,-3.3521,-3.3097,-1.9435,0.0,-1.9516,-1.9516,0.0,-1.9516,-1.9508,-1.9484,-1.9037,-1.8899,-1.8988,-1.9077,-1.9069,-1.8996,-1.9175,-1.9248,-1.9256,-1.9345,-1.9427,-1.9516,-1.9524,-1.9565,-1.9646,-1.9654,-1.9703,-1.9792,-1.9792,-1.9841,-1.9922,-1.9922,-2.002,-2.019,-2.019,-2.0231,-2.0312,-2.0312,-2.0231,-2.0052,-2.0223,-2.0312,-2.0312,-2.0312,-2.0312,-2.0312,0.0,0.0,0.0,0.0,0.0,0.0,0.0,0.0,0.0,0.0,0.0,-1.9792,-1.9613,-1.9557,-1.9638,-1.9557,-1.9662,-2.0011,-1.9963,-1.9719,-1.9289,-1.941,-1.9435,-1.9264,-1.9167,-1.911,-1.9118,-1.9191,-1.9281,-1.937,-1.954,-1.9711,-1.9882,-1.9995,-2.0125,-2.0296,-2.0393,-2.0491,-2.0572,-2.0824,-2.1002,-2.1108,-2.1278,-2.1392,-2.1376,-2.123,-2.1116,-2.1116,-2.1116,-2.1116,-2.1116,-2.1116,-2.1108,-2.1116,-2.1116,-2.1116,-2.1116,-2.1116,-2.1116,-2.1116,-2.1116,-2.1116,-2.1116,-2.1116,-2.1549,-2.2613,-2.2829,-2.4532,-3.0259,-3.1143,-3.073,-2.0133,-2.0223,-2.0223,-2.0223,-2.0223,-2.0223,-2.0247,-2.0223,0.0,0.0,0.0,-1.9516,-1.9484,-1.9378,-1.9662,-1.9792,-1.9792,-1.9825,-1.9938,-2.0101,-1.9987,-1.9946,-1.9979,-1.9979,-1.9979,-1.9979,-1.9979,-2.0052,-2.0198,-2.0206,-2.0353,-2.0621,-2.0645,-2.071,-2.084,-2.0848,-2.071,-2.0442,-2.0702,-2.0848,-2.0848,-2.0848,-2.0848,-2.0848,-2.0718,-2.0572,-2.0418,-2.0271,-2.0125,-1.9995,-2.0125,-2.0223,-2.0255,-2.0385,-2.0401,-2.0271,-2.0255,-2.0385,-2.0669,-2.0694,-2.0824,-2.1148,-2.1067,-2.0702,-2.0028,-2.0085,-2.0085,-1.9946,-1.976,-1.967,-1.9703,-1.9735,-1.9825,-2.0003,-2.0052,-2.0198,-2.0466,-2.0507,-2.0629,-2.0889,-2.0937,-2.0962,-2.1002,-2.1238,-2.1449,-2.149,-2.1603,-2.1709,-2.1676,-2.1498,-2.1352,-2.1352,-2.1335,-2.1368,-2.1376,-2.136,-2.1384,-2.1352,-2.136,-2.1384,-2.1384,-2.1408,-2.1441,-2.1481,-2.1481,-2.1498,-2.1522,-2.1538,-2.2184,-2.3927,-2.4403,-2.4852,-2.6782,-2.7392,-2.7334,-1.9995,-1.9865,-1.9865,-1.9865,-1.9865,-1.9865,-1.9955,-2.0093,-1.9963,-1.993,-1.9946,-1.9808,-1.9735,-1.9719,-1.9768,-1.9792,-1.98,-1.9955,-2.0117,0.0,-2.0418,-2.0564,-2.0702,-2.0702,-2.071,-2.0702,-2.0702,-2.0718,-2.0742,-2.0734,-2.0775,-2.0807,-2.0815,-2.0832,-2.0848,-2.0848,-2.0832,-2.0783,-2.0824,-2.0848,-2.0848,-2.0848,-2.0848,-2.0848,-2.0832,-2.0807,-2.0775,-2.0751,-2.0726,-2.071,-2.0726,-2.0815,-2.097,-2.0994,-2.1002,-2.0986,-2.0978,-2.1002,-2.1051,-2.1051,-2.114,-2.1335,-2.1473,-2.1311,-2.0759,-2.0588,-2.0507,-2.0474,-2.0328,-2.0271,-2.0426,-2.0564,-2.0702,-2.0889,-2.1059,-2.1181,-2.1205,-2.1205,-2.123,-2.1303,-2.1311,-2.1376,-2.1498,-2.1587,-2.1693,-2.1814,-2.1888,-2.1904,-2.1847,-2.1603,-2.1408,-2.1384,-2.1384,-2.1384,-2.1441,-2.1392,-2.1457,-2.1384,-2.1433,-2.1481,-2.1473,-2.1579,-2.1709,-2.1831,-2.1855,-2.1912,-2.2026,-2.2082,-2.2293,-2.2745,-2.2846,-2.3166,-2.3823,-2.4876,-2.6,-2.0308,-2.0237,-2.0229,-2.0441,-2.0653,-2.0653,-2.0702,-2.0767,-2.0686,-2.0531,-2.0377,-2.0466,-2.0458,-2.0377,-2.0474,-2.0515,-2.0515,-2.0499,-2.0588,-2.0751,-2.0742,-2.0775,-2.0848,-2.0848,-2.0848,-2.0848,-2.0848,-2.0848,-2.0848,-2.0848,-2.0905,-2.1002,-2.1092,-2.114,-2.1148,-2.1238,-2.1295,-2.1287,-2.11,-2.1002,-2.1002,-2.1092,-2.114,-2.114,-2.114,-2.1092,-2.1002,-2.1002,-2.0954,-2.0856,-2.0945,-2.1083,-2.1254,-2.136,-2.1465,-2.1555,-2.1563,-2.1563,-2.1563,-2.1563,-2.1595,-2.1676,-2.1758,-2.1749,-2.1595,-2.1425,-2.1287,-2.1181,-2.1092,-2.1035,-2.1027,-2.1092,-2.1173,-2.1254,-2.1343,-2.1425,-2.1514,-2.153,-2.1571,-2.166,-2.1684,-2.1717,-2.1798,-2.1888,-2.1969,-2.2066,-2.2147,-2.2188,-2.2099,-2.2026,-2.1896,-2.1733,-2.1758,-2.1814,-2.1823,-2.2001,-2.205,-2.1993,-2.205,-2.2058,-2.2001,-2.2058,-2.2123,-2.2204,-2.2229,-2.2294,-2.2456,-2.248,-2.2521,-2.2618,-2.2594,-2.2618,-2.2834,-2.3521,-2.4711,-2.0427,-2.0396,-2.0607,-2.0826,-2.1262,-2.1262,-2.1262,-2.1254,-2.1157,-2.097,-2.0775,-2.097,-2.0986,-2.088,-2.1002,-2.1067,-2.1051,-2.0921,-2.0954,-2.11,-2.0986,-2.0937,-2.097,-2.097,-2.097,-2.0978,-2.097,-2.097,-2.0978,-2.101,-2.1124,-2.1303,-2.1441,-2.1506,-2.1514,-2.1652,-2.1725,-2.1709,-2.1449,-2.1287,-2.1254,-2.1335,-2.1384,-2.1384,-2.1376,-2.1319,-2.1197,-2.1181,-2.1116,-2.0994,-2.1148,-2.1311,-2.1221,-2.1398,-2.1558,-2.1462,-2.1478,-2.1502,-2.1541,-2.1808,-2.1832,-2.1832,-2.2058,-2.2115,-2.2221,-2.2131,-2.1977,-2.1814,-2.1725,-2.166,-2.1587,-2.1563,-2.1579,-2.162,-2.1628,-2.1717,-2.1823,-2.1847,-2.1896,-2.2026,-2.2058,-2.2058,-2.2074,-2.2172,-2.2261,-2.2326,-2.2472,-2.2513,-2.2424,-2.2505,-2.2448,-2.2285,-2.2229,-2.2229,-2.2269,-2.244,-2.2537,-2.248,-2.2537,-2.2505,-2.2448,-2.2472,-2.2545,-2.257,-2.2627,-2.2732,-2.287,-2.296,-2.3033,-2.3154,-2.3187,-2.3163,-2.3236,-2.3236,-2.3927,-2.0202,-2.0054,-2.0499,-2.0905,-2.0929,-2.0929,-2.0929,-2.0945,-2.1059,-2.1116,-2.1067,-2.0937,-2.0889,-2.0856,-2.0889,-2.0913,-2.0905,-2.0864,-2.0962,-2.1124,-2.1108,-2.1181,-2.1319,-2.1335,-2.1335,-2.1335,-2.1335,-2.1335,-2.1343,-2.1498,-2.1668,-2.1839,-2.1871,-2.1871,-2.1879,-2.1896,-2.1912,-2.1912,-2.1871,-2.1782,-2.1611,-2.1457,-2.1384,-2.1384,-2.1384,-2.1376,-2.136,-2.136,-2.1352,-2.1352,-2.1498,-2.139,-2.0985,-2.0902,-2.0778,-2.035,-2.035,-2.041,-2.0569,-2.1179,-2.1487,-2.1494,-2.2169,-2.2407,-2.2432,-2.2415,-2.2342,-2.2164,-2.1993,-2.1977,-2.2099,-2.2099,-2.2139,-2.2253,-2.2294,-2.2383,-2.235,-2.2391,-2.2399,-2.2415,-2.2375,-2.2415,-2.2399,-2.244,-2.2505,-2.2627,-2.2797,-2.2903,-2.2878,-2.2911,-2.296,-2.2846,-2.2675,-2.2497,-2.2497,-2.2464,-2.261,-2.2553,-2.2521,-2.2618,-2.2683,-2.274,-2.2765,-2.3138,-2.3122,-2.3276,-2.3439,-2.3577,-2.3691,-2.3731,-2.3894,-2.4162,-2.4348,-2.4292,-2.4425,-1.9279,-1.922,-1.9431,-1.9867,-2.0077,-2.052,-2.073,-2.0746,-2.1028,-2.1278,-2.127,-2.1197,-2.1165,-2.1165,-2.1165,-2.1165,-2.1165,-2.1165,-2.1205,-2.1278,-2.1278,-2.1376,-2.1538,-2.1546,-2.1603,-2.1701,-2.1709,-2.1709,-2.1725,-2.179,-2.1863,-2.1928,-2.1936,-2.1936,-2.1944,-2.2034,-2.2082,-2.2091,-2.2082,-2.205,-2.1961,-2.1798,-2.1709,-2.1701,-2.1603,-2.1546,-2.1538,-2.1449,-2.1384,-2.1384,-2.1457,-2.1595,-2.1366,-2.1438,-2.1573,-2.1528,-2.1559,-2.1591,-2.1662,-2.1963,-2.2003,-2.2003,-2.2234,-2.2464,-2.2464,-2.2464,-2.2432,-2.2367,-2.2285,-2.2285,-2.2342,-2.235,-2.2391,-2.2456,-2.2464,-2.2464,-2.2464,-2.2472,-2.2464,-2.2464,-2.2464,-2.2513,-2.261,-2.2716,-2.2805,-2.2895,-2.3041,-2.3154,-2.3163,-2.3244,-2.3358,-2.3431,-2.3341,-2.3171,-2.3016,-2.3138,-2.3171,-2.3154,-2.3276,-2.3406,-2.3398,-2.3561,-2.3739,-2.3885,-2.3861,-2.3926,-2.4137,-2.4105,-2.4137,-2.4235,-2.4202,-2.434,-2.43,-2.4365,-2.417,-1.8757,-1.8757,-1.8971,-1.9192,-1.9632,-2.0073,-2.0285,-2.0505,-2.0945,-2.1189,-2.1449,-2.1408,-2.1416,-2.1449,-2.1408,-2.1384,-2.1384,-2.1384,-2.1416,-2.1457,-2.1457,-2.1555,-2.1725,-2.1741,-2.1806,-2.1912,-2.1928,-2.1953,-2.1993,-2.2009,-2.2026,-2.2066,-2.2082,-2.2082,-2.2099,-2.2253,-2.2334,-2.2342,-2.2375,-2.2407,-2.2399,-2.2294,-2.2131,-2.1944,-2.1806,-2.1733,-2.1733,-2.1603,-2.1538,-2.1309,-2.1357,-2.1279,-2.13,-2.1371,-2.1284,-2.1502,-2.1541,-2.1541,-2.1541,-2.1541,-2.1772,-2.1772,-2.1772,-2.2003,-2.2234,-2.2242,-2.2242,-2.2464,-2.2513,-2.2521,-2.2472,-2.2464,-2.2464,-2.2464,-2.2464,-2.248,-2.2529,-2.2537,-2.2562,-2.2602,-2.2643,-2.2651,-2.2789,-2.2943,-2.3065,-2.3081,-2.326,-2.3406,-2.3431,-2.3561,-2.3731,-2.3853,-2.3869,-2.3764,-2.3552,-2.3634,-2.378,-2.378,-2.3861,-2.3983,-2.4113,-2.4259,-2.443,-2.4316,-2.4405,-2.4462,-2.4519,-2.4511,-2.4576,-2.4714,-2.4714,-2.4624,-2.4714,-2.4673,-2.4714,-1.8757,-1.875,-1.9412,-1.9419,-1.9632,-1.9632,-1.9853,-2.0308,-2.0513,-2.104,-2.1603,-2.1465,-2.1481,-2.1636,-2.1473,-2.1384,-2.1384,-2.1408,-2.1498,-2.1636,-2.1652,-2.1749,-2.1912,-2.192,-2.1936,-2.1985,-2.2009,-2.2066,-2.2204,-2.2196,-2.2269,-2.2432,-2.2448,-2.2448,-2.2464,-2.261,-2.27,-2.2708,-2.2862,-2.2951,-2.2951,-2.2943,-2.2618,-2.2091,-2.1944,-2.1953,-2.1928,-2.1912,-2.1679,-2.0988,-2.112,-2.0782,-1.9677,-1.9799,-1.9661,-1.9226,-1.8994,-1.9001,-1.9233,-1.9697,-1.9936,-1.9936,-2.0646,-2.1086,-2.1596,-2.1827,-2.2058,-2.2489,-2.2643,-2.2651,-2.2529,-2.2529,-2.2513,-2.2505,-2.2489,-2.2562,-2.27,-2.2708,-2.2797,-2.2911,-2.2943,-2.2951,-2.2984,-2.3138,-2.3244,-2.3333,-2.3561,-2.378,-2.3796,-2.3926,-2.4023,-2.4056,-2.4064,-2.404,-2.4023,-2.3975,-2.3999,-2.404,-2.3825,-2.4178,-2.4251,-2.4373,-2.4592,-2.4746,-2.4746,-2.4787,-2.4836,-2.4925,-2.5047,-2.5169,-2.5258,-2.525,-2.5242,-2.5493,-2.5469,-1.8088,-1.8309,-1.8522,-1.8579,-1.8663,-1.9021,-1.925,-1.9552,-2.0003,-2.0256,-2.0532,-2.0478,-2.054,-2.0694,-2.0524,-2.089,-2.1571,-2.1676,-2.1774,-2.1831,-2.1839,-2.1928,-2.2082,-2.2099,-2.2172,-2.2277,-2.2383,-2.2529,-2.2692,-2.2708,-2.274,-2.2789,-2.2805,-2.2805,-2.2838,-2.2984,-2.3065,-2.3081,-2.3244,-2.3333,-2.3333,-2.3341,-2.3203,-2.296,-2.2618,-2.2383,-2.2277,-2.2277,-2.2172,-2.1486,-2.1418,-2.1056,-2.0614,-2.0289,-2.0139,-1.9914,-1.9914,-1.9958,-2.0051,-2.0299,-2.035,-2.068,-2.1164,-2.1618,-2.1868,-2.2103,-2.2571,-2.2813,-2.2846,-2.2862,-2.283,-2.2805,-2.2805,-2.2805,-2.2805,-2.2822,-2.2878,-2.2895,-2.2927,-2.3,-2.309,-2.3163,-2.3252,-2.3422,-2.3601,-2.3642,-2.3918,-2.4097,-2.4145,-2.4202,-2.4018,-2.3848,-2.4058,-2.4026,-2.3896,-2.393,-2.4097,-2.3986,-2.384,-2.4592,-2.473,-2.4941,-2.5169,-2.5461,-2.5388,-2.5323,-2.5445,-2.5429,-2.5542,-2.5648,-2.5729,-2.5761,-2.5794,-2.5875,-2.5794,-1.786,-1.786,-1.786,-1.7955,-1.807,-1.8427,-1.8663,-1.8985,-1.9476,-1.9729,-1.996,-1.9953,-2.0042,-2.0162,-2.008,-2.0515,-2.1454,-2.1711,-2.1735,-2.2009,-2.2017,-2.2139,-2.2334,-2.2367,-2.2464,-2.2627,-2.2748,-2.2878,-2.2992,-2.3049,-2.3049,-2.3,-2.3049,-2.3049,-2.3041,-2.3171,-2.3276,-2.3366,-2.3528,-2.3617,-2.3626,-2.3674,-2.3666,-2.3585,-2.3309,-2.3041,-2.2822,-2.2813,-2.2708,-2.2274,-2.1874,-2.1464,-2.1013,-2.0576,-2.0167,-2.021,-2.0174,-2.0188,-2.0275,-2.0253,-2.051,-2.0849,-2.1101,-2.1574,-2.2055,-2.2291,-2.2528,-2.2764,-2.282,-2.2844,-2.3106,-2.3187,-2.3195,-2.3049,-2.3,-2.3025,-2.3073,-2.3081,-2.3146,-2.3268,-2.3382,-2.3471,-2.3601,-2.3829,-2.395,-2.3983,-2.4243,-2.4397,-2.4098,-2.4147,-2.4203,-2.3803,-2.3984,-2.4039,-2.4182,-2.438,-2.456,-2.4412,-2.4557,-2.5039,-2.5299,-2.5526,-2.5761,-2.607,-2.6151,-2.6062,-2.6005,-2.5981,-2.6038,-2.6135,-2.6184,-2.6216,-2.6192,-2.6135,-2.6111,-1.7874,-1.7887,-1.7867,-1.7989,-1.8124,-1.8104,-1.8545,-1.9056,-1.9177,-1.9468,-1.9928,-1.9913,-2.0031,-2.0127,-2.0149,-2.0689,-2.1225,-2.1253,-2.1434,-2.2237,-2.2237,-2.2407,-2.2692,-2.27,-2.2805,-2.2992,-2.3008,-2.3016,-2.3081,-2.3211,-2.3211,-2.309,-2.3219,-2.3228,-2.3033,-2.3236,-2.3374,-2.3536,-2.3723,-2.382,-2.3829,-2.3983,-2.3999,-2.3877,-2.3926,-2.3829,-2.3528,-2.3512,-2.3214,-2.2709,-2.2491,-2.2062,-2.0757,-1.9942,-1.9474,-1.9763,-1.9474,-1.9413,-1.9393,-1.9516,-1.9685,-2.0202,-2.0174,-2.0923,-2.165,-2.1635,-2.188,-2.2639,-2.2743,-2.2575,-2.3118,-2.3585,-2.3609,-2.3138,-2.3146,-2.3228,-2.3309,-2.3293,-2.3398,-2.3691,-2.378,-2.395,-2.4194,-2.4259,-2.4251,-2.4292,-2.4454,-2.4307,-2.396,-2.4275,-2.4331,-2.3881,-2.4143,-2.4476,-2.4429,-2.462,-2.4886,-2.5185,-2.5331,-2.5526,-2.5835,-2.6086,-2.6281,-2.6541,-2.6525,-2.6452,-2.6419,-2.6403,-2.6452,-2.6533,-2.6598,-2.6622,-2.6631,-2.659,-2.6566,-1.8179,-1.8179,-1.8179,-1.826,-1.8375,-1.8287,-1.8582,-1.8774,-1.8836,-1.908,-1.9101,-1.9423,-1.9275,-1.9303,-1.9317,-1.9861,-2.0459,-2.0832,-2.1767,-2.2507,-2.2748,-2.2797,-2.2895,-2.2919,-2.3073,-2.3317,-2.3366,-2.3431,-2.3528,-2.3601,-2.3359,-2.3093,-2.3351,-2.3367,-2.3053,-2.3367,-2.3666,-2.3747,-2.4023,-2.417,-2.4186,-2.4332,-2.4397,-2.4356,-2.4292,-2.4186,-2.4088,-2.3474,-2.3047,-2.2585,-2.1697,-2.098,-2.0158,-1.9859,-1.9563,-1.9501,-1.9461,-1.9434,-1.9427,-1.94,-1.9406,-1.997,-2.0232,-2.0721,-2.0962,-2.121,-2.1737,-2.2319,-2.2481,-2.3071,-2.3118,-2.3777,-2.4007,-2.3764,-2.3845,-2.3926,-2.4015,-2.4023,-2.3999,-2.3967,-2.3983,-2.404,-2.4145,-2.4251,-2.4365,-2.4397,-2.46,-2.4484,-2.4468,-2.4476,-2.4653,-2.4307,-2.4485,-2.4709,-2.4755,-2.5018,-2.5384,-2.5729,-2.5875,-2.6013,-2.6322,-2.6582,-2.6785,-2.6899,-2.6882,-2.6858,-2.6825,-2.6801,-2.6817,-2.6809,-2.6793,-2.689,-2.7037,-2.702,-2.6915,-1.843,-1.8484,-1.8484,-1.8572,-1.8687,-1.8599,-1.8667,-1.8843,-1.8905,-1.8898,-1.8891,-1.9067,-1.9156,-1.9169,-1.9217,-1.9796,-2.0395,-2.0889,-2.1647,-2.2614,-2.2671,-2.2655,-2.2735,-2.2622,-2.2717,-2.2858,-2.2898,-2.2913,-2.2976,-2.3284,-2.3039,-2.2496,-2.3284,-2.3552,-2.2826,-2.3568,-2.3853,-2.4007,-2.4218,-2.4332,-2.4373,-2.4503,-2.456,-2.4503,-2.4454,-2.4438,-2.4421,-2.3567,-2.3106,-2.2589,-2.163,-2.064,-2.0324,-2.0065,-1.978,-1.9698,-1.963,-1.9596,-1.959,-1.9556,-1.9791,-2.013,-2.0436,-2.0743,-2.1038,-2.1571,-2.1675,-2.2018,-2.2347,-2.2889,-2.3106,-2.348,-2.3793,-2.4026,-2.3705,-2.3793,-2.3606,-2.3551,-2.3488,-2.3409,-2.3665,-2.3729,-2.3606,-2.4187,-2.4283,-2.4323,-2.4532,-2.4669,-2.4661,-2.4669,-2.4604,-2.4739,-2.4926,-2.5063,-2.5153,-2.565,-2.6127,-2.6273,-2.6411,-2.6557,-2.6769,-2.698,-2.7183,-2.728,-2.7305,-2.7231,-2.7191,-2.7053,-2.7012,-2.6996,-2.6988,-2.7085,-2.7183,-2.7167,-2.7085,-1.8654,-1.8782,-1.8789,-1.8871,-1.9006,-1.9,-1.9033,-1.9081,-1.9189,-1.9189,-1.9149,-1.9379,-1.9468,-1.9495,-1.9596,-1.9969,-2.0591,-2.0829,-2.1124,-2.1861,-2.2146,-2.225,-2.2373,-2.2374,-2.2189,-2.2099,-2.2114,-2.1794,-2.1963,-2.2589,-2.2527,-2.1986,-2.3086,-2.3363,-2.3142,-2.36,-2.3983,-2.421,-2.4308,-2.409,-2.4098,-2.4251,-2.4275,-2.4147,-2.4227,-2.4291,-2.4055,-2.3527,-2.3151,-2.2897,-2.1625,-2.0886,-2.0872,-2.0374,-2.0119,-2.0078,-1.9969,-1.9895,-1.9861,-1.9807,-1.999,-2.0506,-2.0605,-2.1182,-2.156,-2.1391,-2.1213,-2.1771,-2.2065,-2.2536,-2.2951,-2.3301,-2.3441,-2.3511,-2.3395,-2.3028,-2.2152,-2.2174,-2.2778,-2.2862,-2.2877,-2.3221,-2.3251,-2.4334,-2.4349,-2.4381,-2.4749,-2.4758,-2.4485,-2.4782,-2.462,-2.4999,-2.5143,-2.5473,-2.5843,-2.5963,-2.6444,-2.6687,-2.6817,-2.6931,-2.7102,-2.7016,-2.7137,-2.7249,-2.754,-2.7508,-2.7443,-2.7248,-2.7167,-2.7158,-2.7191,-2.7256,-2.7288,-2.7288,-2.7296,-1.9047,-1.9081,-1.9088,-1.9176,-1.9305,-1.9318,-1.944,-1.963,-1.9671,-1.9651,-1.9678,-1.9841,-1.9847,-1.978,-1.9915,-2.001,-2.0285,-2.0788,-2.1042,-2.1333,-2.1611,-2.1763,-2.2003,-2.2159,-2.2174,-2.2047,-2.1866,-2.2114,-2.198,-2.2588,-2.2641,-2.2144,-2.2874,-2.3433,-2.3192,-2.3307,-2.3546,-2.3897,-2.3785,-2.3598,-2.363,-2.3259,-2.3053,-2.3015,-2.2954,-2.2984,-2.306,-2.2316,-2.204,-2.1953,-2.1182,-2.0677,-2.0663,-2.041,-2.037,-2.0275,-2.0234,-2.0153,-2.0078,-2.0105,-2.0146,-2.0402,-2.0409,-2.0471,-2.0748,-2.045,-2.0477,-2.0811,-2.142,-2.1982,-2.222,-2.2569,-2.2644,-2.2345,-2.2636,-2.2943,-2.2606,-2.3136,-2.3413,-2.3452,-2.396,-2.4341,-2.4477,-2.454,-2.5055,-2.4806,-2.4854,-2.5177,-2.4926,-2.5055,-2.5224,-2.5401,-2.5859,-2.6208,-2.6484,-2.659,-2.6777,-2.7053,-2.7167,-2.7191,-2.7073,-2.6959,-2.7006,-2.6754,-2.6879,-2.7097,-2.7081,-2.7264,-2.7272,-2.7264,-2.7272,-2.728,-2.741,-2.7467,-2.7508,-1.9366,-1.9481,-1.9488,-1.9576,-1.9705,-1.9712,-1.9813,-1.9949,-1.9969,-1.9969,-2.0003,-2.0132,-2.0153,-2.0085,-2.022,-2.0282,-2.0282,-2.0783,-2.079,-2.0804,-2.0867,-2.1104,-2.132,-2.1391,-2.1593,-2.1463,-2.1535,-2.1477,-2.1369,-2.1932,-2.1969,-2.1705,-2.2226,-2.2513,-2.2316,-2.2748,-2.2974,-2.3309,-2.3205,-2.3045,-2.3053,-2.295,-2.277,-2.277,-2.2688,-2.2696,-2.2515,-2.2018,-2.1704,-2.135,-2.1103,-2.0614,-2.0553,-2.0607,-2.0566,-2.0431,-2.0417,-2.0376,-2.0322,-2.0376,-2.0383,-2.0356,-2.0376,-2.0417,-2.0424,-2.0376,-2.0438,-2.0519,-2.1357,-2.1612,-2.1583,-2.2157,-2.1895,-2.1343,-2.1783,-2.2118,-2.1974,-2.2566,-2.3161,-2.3449,-2.4018,-2.4604,-2.4456,-2.4676,-2.4894,-2.491,-2.5039,-2.5404,-2.5502,-2.5688,-2.5851,-2.6013,-2.6168,-2.6452,-2.6341,-2.6437,-2.6259,-2.6823,-2.6704,-2.6776,-2.7121,-2.6982,-2.6676,-2.6613,-2.6495,-2.672,-2.704,-2.7321,-2.7272,-2.7256,-2.7272,-2.7313,-2.7426,-2.7548,-2.7605,-1.963,-1.9875,-1.9888,-1.9983,-2.0098,-2.0119,-2.0119,-2.0146,-2.0159,-2.0159,-2.0187,-2.0295,-2.0343,-2.0363,-2.0438,-2.0526,-2.0526,-2.0492,-2.0512,-2.0505,-2.0519,-2.0759,-2.0745,-2.0752,-2.069,-2.0587,-2.0336,-2.0275,-2.07,-2.0907,-2.0914,-2.0964,-2.1691,-2.1727,-2.1866,-2.2131,-2.2465,-2.2584,-2.2733,-2.2559,-2.2581,-2.2684,-2.2485,-2.2492,-2.2529,-2.2499,-2.2529,-2.2032,-2.1702,-2.1393,-2.0979,-2.0689,-2.06,-2.0702,-2.0668,-2.056,-2.0519,-2.0519,-2.0539,-2.0532,-2.0519,-2.0451,-2.0519,-2.056,-2.0573,-2.0614,-2.0648,-2.0655,-2.1256,-2.1421,-2.1343,-2.1576,-2.1379,-2.091,-2.0763,-2.075,-2.0951,-2.1604,-2.2291,-2.2327,-2.3761,-2.4076,-2.4084,-2.4282,-2.4983,-2.5184,-2.5312,-2.5729,-2.5875,-2.6038,-2.6184,-2.6314,-2.6468,-2.6631,-2.6462,-2.6259,-2.607,-2.6227,-2.6089,-2.6159,-2.6696,-2.6768,-2.676,-2.6728,-2.6487,-2.6815,-2.7426,-2.7394,-2.7329,-2.7378,-2.7467,-2.7418,-2.7386,-2.7516,-2.7605,-1.9813,-1.9881,-2.0003,-2.0139,-2.0268,-2.0282,-2.0343,-2.0431,-2.0438,-2.0424,-2.0444,-2.0478,-2.0485,-2.0492,-2.0519,-2.0539,-2.0546,-2.0546,-2.0539,-2.0539,-2.0539,-2.0539,-2.0553,-2.0566,-2.0471,-2.039,-2.0444,-2.0417,-2.0587,-2.0901,-2.1455,-2.1462,-2.1462,-2.1975,-2.2279,-2.1888,-2.2215,-2.2537,-2.2419,-2.2241,-2.1989,-2.1773,-2.1548,-2.1541,-2.1624,-2.1617,-2.159,-2.1487,-2.1508,-2.1336,-2.0878,-2.075,-2.0722,-2.0661,-2.0614,-2.0594,-2.056,-2.0553,-2.0566,-2.0661,-2.0709,-2.0668,-2.0668,-2.0722,-2.0709,-2.0627,-2.0607,-2.0587,-2.0587,-2.0841,-2.0855,-2.0917,-2.1034,-2.0892,-2.1014,-2.1356,-2.185,-2.2587,-2.321,-2.3876,-2.4684,-2.52,-2.5073,-2.5441,-2.5705,-2.5505,-2.5634,-2.6078,-2.6233,-2.6387,-2.6484,-2.6582,-2.6655,-2.6785,-2.6582,-2.6101,-2.5902,-2.5686,-2.5514,-2.5856,-2.6385,-2.6728,-2.6503,-2.6542,-2.6566,-2.6895,-2.7508,-2.7548,-2.75,-2.7589,-2.7654,-2.7613,-2.7589,-2.7629,-2.7613,-2.0017,-2.0092,-2.0173,-2.0295,-2.0417,-2.0431,-2.0471,-2.0532,-2.0539,-2.0539,-2.0539,-2.0539,-2.0539,-2.0539,-2.0539,-2.0539,-2.056,-2.0621,-2.0655,-2.0675,-2.0716,-2.0763,-2.0756,-2.0729,-2.0655,-2.0492,-2.058,-2.0594,-2.0594,-2.0924,-2.127,-2.127,-2.1263,-2.1526,-2.1783,-2.1604,-2.1639,-2.1674,-2.1801,-2.1624,-2.1624,-2.1432,-2.1157,-2.1123,-2.1163,-2.1143,-2.1041,-2.1204,-2.1231,-2.1102,-2.0899,-2.0811,-2.0865,-2.0804,-2.0756,-2.0756,-2.0756,-2.0756,-2.079,-2.0817,-2.0845,-2.077,-2.077,-2.0722,-2.0682,-2.058,-2.0553,-2.0539,-2.0553,-2.0587,-2.0743,-2.0892,-2.1034,-2.1177,-2.1265,-2.1868,-2.2702,-2.3193,-2.3682,-2.4609,-2.5137,-2.5441,-2.581,-2.59,-2.5924,-2.5618,-2.6143,-2.633,-2.6517,-2.6655,-2.6728,-2.6801,-2.6834,-2.6907,-2.6711,-2.6227,-2.5453,-2.5219,-2.4984,-2.5567,-2.6112,-2.6214,-2.6048,-2.6331,-2.6879,-2.6943,-2.7556,-2.7605,-2.7662,-2.7703,-2.7751,-2.7784,-2.7784,-2.7727,-2.7719,-2.0207,-2.0329,-2.0349,-2.0431,-2.0532,-2.0532,-2.0532,-2.0539,-2.0539,-2.0539,-2.0539,-2.0539,-2.0539,-2.0539,-2.0539,-2.0546,-2.0621,-2.0729,-2.0804,-2.0817,-2.0899,-2.0939,-2.0953,-2.0933,-2.0851,-2.0648,-2.0743,-2.079,-2.0831,-2.0926,-2.1199,-2.098,-2.0987,-2.1205,-2.098,-2.1028,-2.1034,-2.1308,-2.1432,-2.1245,-2.1245,-2.1319,-2.1265,-2.1116,-2.1136,-2.1082,-2.1007,-2.1082,-2.1116,-2.0973,-2.0845,-2.0845,-2.0892,-2.0933,-2.0933,-2.0906,-2.0851,-2.0831,-2.0811,-2.0858,-2.0831,-2.0743,-2.0763,-2.0716,-2.0627,-2.0641,-2.0661,-2.0661,-2.0689,-2.079,-2.1007,-2.1143,-2.1279,-2.1394,-2.1448,-2.2062,-2.3221,-2.3791,-2.4234,-2.4968,-2.5481,-2.577,-2.5875,-2.5965,-2.5981,-2.6054,-2.6322,-2.6549,-2.672,-2.6825,-2.685,-2.689,-2.6899,-2.6727,-2.6545,-2.688,-2.6112,-2.5598,-2.5051,-2.5636,-2.6487,-2.6621,-2.6723,-2.6911,-2.7467,-2.7556,-2.7638,-2.7694,-2.7751,-2.7792,-2.78,-2.78,-2.78,-2.78,-2.78,-2.0309,-2.0343,-2.0458,-2.0519,-2.0539,-2.0539,-2.0539,-2.0539,-2.0539,-2.0539,-2.0539,-2.0539,-2.0539,-2.0546,-2.0546,-2.0607,-2.0743,-2.0885,-2.096,-2.0967,-2.1021,-2.1041,-2.1048,-2.1062,-2.0987,-2.0946,-2.0967,-2.098,-2.0967,-2.0994,-2.1055,-2.1021,-2.1028,-2.1028,-2.1068,-2.1109,-2.1177,-2.1197,-2.1306,-2.1374,-2.1367,-2.1292,-2.1157,-2.0967,-2.1028,-2.0994,-2.0906,-2.0953,-2.0967,-2.0824,-2.0783,-2.0729,-2.0709,-2.0682,-2.0675,-2.0661,-2.0702,-2.0736,-2.0702,-2.0661,-2.0621,-2.0607,-2.0716,-2.0777,-2.077,-2.0831,-2.0858,-2.0912,-2.0987,-2.1109,-2.117,-2.1313,-2.1401,-2.1469,-2.155,-2.2159,-2.325,-2.3777,-2.4043,-2.5062,-2.5545,-2.581,-2.5682,-2.5819,-2.5907,-2.5995,-2.6196,-2.6341,-2.6446,-2.651,-2.6801,-2.6858,-2.6907,-2.6505,-2.6369,-2.6696,-2.6752,-2.6534,-2.6292,-2.6652,-2.6975,-2.7378,-2.7686,-2.7589,-2.7597,-2.7703,-2.7759,-2.7784,-2.7784,-2.78,-2.78,-2.78,-2.78,-2.78,-2.78,-2.0438,-2.0444,-2.0512,-2.0539,-2.0539,-2.0539,-2.0539,-2.0539,-2.0539,-2.0539,-2.0539,-2.0546,-2.0587,-2.0641,-2.0661,-2.0743,-2.0892,-2.1041,-2.1102,-2.1116,-2.1184,-2.1224,-2.1218,-2.1218,-2.1231,-2.1224,-2.1224,-2.117,-2.1129,-2.1204,-2.1211,-2.1231,-2.1224,-2.1224,-2.1238,-2.1299,-2.1319,-2.1346,-2.1394,-2.1435,-2.1421,-2.1285,-2.1089,-2.0987,-2.1007,-2.1021,-2.0953,-2.1028,-2.1034,-2.0926,-2.0892,-2.0851,-2.0797,-2.0763,-2.0702,-2.0607,-2.0682,-2.0729,-2.0702,-2.0722,-2.0797,-2.0797,-2.0851,-2.0885,-2.0906,-2.0953,-2.1021,-2.1041,-2.1129,-2.1245,-2.1319,-2.1469,-2.1577,-2.1652,-2.1679,-2.2201,-2.2983,-2.3192,-2.4021,-2.4866,-2.5384,-2.5682,-2.5543,-2.5678,-2.5813,-2.5948,-2.6357,-2.6429,-2.6203,-2.6526,-2.685,-2.698,-2.7085,-2.696,-2.6823,-2.6879,-2.7177,-2.7217,-2.6975,-2.733,-2.767,-2.7751,-2.7768,-2.7711,-2.7768,-2.78,-2.78,-2.7792,-2.78,-2.78,-2.78,-2.78,-2.78,-2.78,-2.78,-2.0539,-2.0539,-2.0539,-2.0539,-2.0539,-2.0539,-2.0539,-2.0539,-2.0539,-2.0539,-2.0546,-2.0587,-2.0661,-2.0763,-2.0845,-2.0933,-2.1055,-2.119,-2.1252,-2.1279,-2.1353,-2.1428,-2.1435,-2.1441,-2.1408,-2.138,-2.1394,-2.1374,-2.1299,-2.1353,-2.1414,-2.1401,-2.1421,-2.1441,-2.1421,-2.1408,-2.1435,-2.1441,-2.1435,-2.1435,-2.1367,-2.1279,-2.115,-2.1021,-2.1109,-2.1102,-2.1007,-2.1075,-2.1082,-2.1014,-2.0987,-2.0994,-2.1001,-2.1028,-2.0912,-2.0729,-2.0878,-2.0899,-2.0885,-2.0899,-2.0953,-2.0953,-2.1021,-2.1041,-2.1062,-2.1095,-2.1129,-2.115,-2.1245,-2.1367,-2.1482,-2.1591,-2.1679,-2.1706,-2.1686,-2.1926,-2.242,-2.2939,-2.3272,-2.4111,-2.4929,-2.5298,-2.49,-2.5232,-2.5357,-2.5731,-2.5865,-2.651,-2.6282,-2.6638,-2.6996,-2.7167,-2.7313,-2.7467,-2.7306,-2.7094,-2.7386,-2.7394,-2.7402,-2.7442,-2.7759,-2.7792,-2.7784,-2.7768,-2.7784,-2.78,-2.78,-2.78,-2.78,-2.78,-2.78,-2.78,-2.78,-2.7523,-2.7523,-2.0539,-2.0539,-2.0539,-2.0539,-2.0539,-2.0539,-2.0539,-2.0539,-2.0546,-2.0539,-2.0573,-2.0682,-2.0756,-2.0845,-2.1062,-2.1157,-2.1224,-2.1319,-2.1387,-2.1394,-2.1421,-2.1441,-2.1441,-2.1441,-2.1441,-2.1441,-2.1441,-2.1435,-2.1401,-2.1421,-2.1441,-2.1441,-2.1441,-2.1441,-2.1441,-2.1441,-2.1441,-2.1441,-2.1441,-2.1374,-2.1272,-2.1231,-2.115,-2.1062,-2.1048,-2.1075,-2.1062,-2.1102,-2.1068,-2.1048,-2.1021,-2.1014,-2.1021,-2.1123,-2.1095,-2.1007,-2.098,-2.0994,-2.098,-2.1028,-2.1055,-2.1082,-2.1129,-2.1177,-2.1211,-2.1292,-2.1387,-2.1591,-2.1584,-2.1564,-2.1577,-2.1638,-2.1618,-2.1611,-2.1638,-2.1865,-2.2363,-2.2504,-2.2829,-2.3192,-2.4052,-2.442,-2.4276,-2.4571,-2.4616,-2.5262,-2.5637,-2.6007,-2.6671,-2.6767,-2.7207,-2.7386,-2.7475,-2.7613,-2.767,-2.7482,-2.7507,-2.78,-2.78,-2.7515,-2.78,-2.78,-2.78,-2.7792,-2.78,-2.78,-2.78,-2.78,-2.78,-2.78,-2.78,-2.78,-2.78,-2.7523,-2.7237,-2.0539,-2.0539,-2.0539,-2.0539,-2.0539,-2.0539,-2.0539,-2.056,-2.0634,-2.0668,-2.0702,-2.0838,-2.0939,-2.1048,-2.1252,-2.1333,-2.1353,-2.1408,-2.1441,-2.1441,-2.1441,-2.1441,-2.1441,-2.1441,-2.1441,-2.1441,-2.1441,-2.1441,-2.1441,-2.1441,-2.1441,-2.1441,-2.1441,-2.1441,-2.1441,-2.1441,-2.1441,-2.1441,-2.1428,-2.136,-2.1279,-2.1279,-2.1272,-2.1136,-2.1197,-2.1231,-2.1238,-2.1252,-2.1245,-2.1252,-2.1252,-2.1252,-2.1258,-2.1306,-2.1306,-2.1272,-2.1252,-2.1218,-2.115,-2.1204,-2.1218,-2.1245,-2.1299,-2.134,-2.136,-2.1394,-2.1455,-2.1523,-2.1536,-2.1543,-2.155,-2.1543,-2.1564,-2.1577,-2.1638,-2.1947,-2.2229,-2.2319,-2.2424,-2.2793,-2.3164,-2.3242,-2.3588,-2.4173,-2.4462,-2.4514,-2.5171,-2.5824,-2.6521,-2.696,-2.7145,-2.7638,-2.7686,-2.7727,-2.7751,-2.78,-2.7792,-2.78,-2.78,-2.78,-2.78,-2.78,-2.78,-2.78,-2.78,-2.78,-2.78,-2.78,-2.78,-2.78,-2.78,-2.7523,-2.7523,-2.7237,-2.6665,-2.0539,-2.0539,-2.0539,-2.0539,-2.0546,-2.058,-2.06,-2.0621,-2.0763,-2.0831,-2.0872,-2.0987,-2.1129,-2.1258,-2.1374,-2.1421,-2.1428,-2.1441,-2.1441,-2.1441,-2.1441,-2.1441,-2.1441,-2.1441,-2.1441,-2.1441,-2.1441,-2.1441,-2.1441,-2.1441,-2.1441,-2.1441,-2.1441,-2.1441,-2.1441,-2.1441,-2.1441,-2.1441,-2.1441,-2.138,-2.1319,-2.138,-2.1353,-2.134,-2.1367,-2.1441,-2.1441,-2.1428,-2.1421,-2.1414,-2.1408,-2.1394,-2.1408,-2.1455,-2.1455,-2.1435,-2.1428,-2.1441,-2.138,-2.1387,-2.1435,-2.1441,-2.1441,-2.1414,-2.1421,-2.1441,-2.1441,-2.1462,-2.1455,-2.1448,-2.1441,-2.1448,-2.1523,-2.1618,-2.1706,-2.1787,-2.1876,-2.1971,-2.2283,-2.2325,-2.2695,-2.2544,-2.2882,-2.3753,-2.4051,-2.4059,-2.4693,-2.5647,-2.6377,-2.7137,-2.7281,-2.7759,-2.7768,-2.7776,-2.7784,-2.78,-2.78,-2.78,-2.78,-2.78,-2.78,-2.78,-2.78,-2.78,-2.78,-2.78,-2.78,-2.78,-2.78,-2.78,-2.7515,-2.7245,-2.6959,-2.6673,-2.6093,-2.0539,-2.0539,-2.0546,-2.0546,-2.056,-2.0695,-2.075,-2.077,-2.0919,-2.0987,-2.1021,-2.1136,-2.1279,-2.1387,-2.1414,-2.1441,-2.1441,-2.1441,-2.1441,-2.1441,-2.1441,-2.1441,-2.1441,-2.1441,-2.1441,-2.1441,-2.1441,-2.1441,-2.1441,-2.1441,-2.1441,-2.1441,-2.1441,-2.1441,-2.1441,-2.1441,-2.1441,-2.1441,-2.1441,-2.1435,-2.1408,-2.1428,-2.1421,-2.1421,-2.1428,-2.1441,-2.1441,-2.1441,-2.1462,-2.1462,-2.1475,-2.1496,-2.153,-2.1604,-2.1597,-2.1557,-2.1604,-2.1625,-2.1611,-2.1489,-2.1435,-2.1441,-2.1448,-2.1462,-2.1441,-2.1441,-2.1441,-2.1462,-2.1482,-2.1482,-2.1469,-2.1455,-2.1557,-2.1706,-2.1821,-2.1889,-2.2004,-2.2167,-2.2194,-2.216,-2.2235,-2.2378,-2.2479,-2.3362,-2.4212,-2.4219,-2.5144,-2.6377,-2.6863,-2.7605,-2.7686,-2.7792,-2.7792,-2.7792,-2.78,-2.78,-2.78,-2.78,-2.78,-2.78,-2.78,-2.78,-2.78,-2.7808,-2.7808,-2.7808,-2.78,-2.7229,-2.7237,-2.7523,-2.7237,-2.6959,-2.6101,-2.5521,-2.5234,-2.0539,-2.0546,-2.0641,-2.0682,-2.0689,-2.0743,-2.0824,-2.0926,-2.1068,-2.119,-2.1265,-2.1333,-2.138,-2.1428,-2.1441,-2.1441,-2.1441,-2.1441,-2.1441,-2.1441,-2.1441,-2.1441,-2.1441,-2.1441,-2.1441,-2.1441,-2.1441,-2.1441,-2.1441,-2.1441,-2.1441,-2.1441,-2.1441,-2.1441,-2.1441,-2.1441,-2.1441,-2.1441,-2.1441,-2.1441,-2.1441,-2.1441,-2.1441,-2.1441,-2.1441,-2.1441,-2.1441,-2.1441,-2.1496,-2.155,-2.157,-2.1611,-2.1665,-2.1753,-2.174,-2.1686,-2.1753,-2.1781,-2.1747,-2.1591,-2.1441,-2.1462,-2.1516,-2.1536,-2.1455,-2.1441,-2.1502,-2.1543,-2.1577,-2.1577,-2.1692,-2.1645,-2.1672,-2.1842,-2.1943,-2.1991,-2.2106,-2.2269,-2.2364,-2.2316,-2.2405,-2.2527,-2.2615,-2.297,-2.3812,-2.4667,-2.5606,-2.6566,-2.7314,-2.7719,-2.7776,-2.78,-2.78,-2.78,-2.78,-2.78,-2.78,-2.78,-2.78,-2.78,-2.78,-2.78,-2.78,-2.7808,-2.7523,-2.7237,-2.6951,-2.6665,-2.6665,-2.6951,-2.6665,-2.6387,-2.5521,-2.4661,-2.4374,-2.0607,-2.0627,-2.0777,-2.0811,-2.0783,-2.0865,-2.096,-2.1075,-2.1218,-2.1333,-2.1441,-2.1441,-2.1441,-2.1441,-2.1441,-2.1441,-2.1441,-2.1441,-2.1441,-2.1441,-2.1441,-2.1441,-2.1441,-2.1441,-2.1441,-2.1441,-2.1441,-2.1441,-2.1441,-2.1441,-2.1441,-2.1441,-2.1441,-2.1441,-2.1441,-2.1441,-2.1441,-2.1441,-2.1441,-2.1441,-2.1441,-2.1441,-2.1441,-2.1441,-2.1441,-2.1441,-2.1441,-2.1448,-2.1516,-2.1604,-2.1672,-2.174,-2.1821,-2.1876,-2.1855,-2.1848,-2.1862,-2.1882,-2.1821,-2.1726,-2.155,-2.1557,-2.1597,-2.157,-2.1489,-2.1441,-2.1489,-2.1557,-2.1625,-2.172,-2.1835,-2.1753,-2.1815,-2.1977,-2.1998,-2.2052,-2.2188,-2.2337,-2.2425,-2.2479,-2.2561,-2.2615,-2.3087,-2.3445,-2.4293,-2.5155,-2.6369,-2.7014,-2.7394,-2.7776,-2.7784,-2.78,-2.78,-2.78,-2.78,-2.78,-2.78,-2.78,-2.78,-2.78,-2.78,-2.78,-2.78,-2.7808,-2.7523,-2.6959,-2.6387,-2.6379,-2.6101,-2.6101,-2.5815,-2.5521,-2.4661,-2.3793,-2.3793,-2.0763,-2.079,-2.0933,-2.0912,-2.0838,-2.1082,-2.1197,-2.1224,-2.1353,-2.1421,-2.1441,-2.1441,-2.1441,-2.1441,-2.1441,-2.1441,-2.1441,-2.1441,-2.1441,-2.1441,-2.1441,-2.1441,-2.1441,-2.1441,-2.1441,-2.1441,-2.1441,-2.1441,-2.1441,-2.1441,-2.1441,-2.1441,-2.1441,-2.1441,-2.1441,-2.1441,-2.1441,-2.1441,-2.1441,-2.1441,-2.1441,-2.1441,-2.1441,-2.1475,-2.1482,-2.1482,-2.153,-2.153,-2.1611,-2.1733,-2.1753,-2.1821,-2.1937,-2.195,-2.1896,-2.1801,-2.1876,-2.1909,-2.1889,-2.1876,-2.1815,-2.1699,-2.1726,-2.1679,-2.1523,-2.1462,-2.1496,-2.1604,-2.1645,-2.1692,-2.1747,-2.1815,-2.1964,-2.2072,-2.2099,-2.216,-2.231,-2.2445,-2.2547,-2.2656,-2.2642,-2.2669,-2.3487,-2.4217,-2.478,-2.5664,-2.6865,-2.749,-2.7792,-2.78,-2.78,-2.78,-2.78,-2.78,-2.78,-2.78,-2.78,-2.78,-2.78,-2.78,-2.78,-2.78,-2.78,-2.7808,-2.6951,-2.6387,-2.6101,-2.6093,-2.5521,-2.4948,-2.4661,-2.4374,-2.3513,-2.3219,-2.3219,-2.0831,-2.0933,-2.1082,-2.1109,-2.1082,-2.1163,-2.1265,-2.136,-2.1414,-2.1441,-2.1441,-2.1441,-2.1441,-2.1441,-2.1441,-2.1441,-2.1441,-2.1441,-2.1441,-2.1441,-2.1441,-2.1441,-2.1441,-2.1441,-2.1441,-2.1441,-2.1441,-2.1448,-2.1441,-2.1469,-2.1448,-2.1441,-2.1482,-2.1441,-2.1441,-2.1441,-2.1441,-2.1441,-2.1441,-2.1441,-2.1441,-2.1455,-2.1496,-2.1584,-2.1591,-2.1625,-2.1692,-2.1692,-2.1774,-2.1903,-2.1923,-2.2004,-2.212,-2.2154,-2.2133,-2.2093,-2.2167,-2.2127,-2.2106,-2.2086,-2.2059,-2.1943,-2.1876,-2.1855,-2.176,-2.1638,-2.1652,-2.1699,-2.1767,-2.1848,-2.1964,-2.2004,-2.2113,-2.2228,-2.2283,-2.2344,-2.2459,-2.2595,-2.2717,-2.2839,-2.2873,-2.292,-2.3375,-2.401,-2.4867,-2.5732,-2.6634,-2.7499,-2.78,-2.78,-2.78,-2.78,-2.78,-2.78,-2.78,-2.78,-2.78,-2.78,-2.78,-2.78,-2.78,-2.7808,-2.7523,-2.7237,-2.6379,-2.5807,-2.5234,-2.4948,-2.4374,-2.38,-2.3793,-2.3793,-2.3506,-2.3219,-2.3219,-2.098,-2.1089,-2.1231,-2.1292,-2.1292,-2.1285,-2.1353,-2.1428,-2.1441,-2.1441,-2.1441,-2.1441,-2.1441,-2.1441,-2.1441,-2.1441,-2.1441,-2.1441,-2.1441,-2.1441,-2.1441,-2.1441,-2.1441,-2.1441,-2.1441,-2.1455,-2.1502,-2.1523,-2.1536,-2.1577,-2.1611,-2.1618,-2.1591,-2.1625,-2.1604,-2.1577,-2.153,-2.155,-2.1577,-2.1625,-2.1618,-2.1625,-2.1652,-2.172,-2.1753,-2.1781,-2.1848,-2.1909,-2.1957,-2.2065,-2.2133,-2.2188,-2.2283,-2.2296,-2.2276,-2.2262,-2.2249,-2.2221,-2.2228,-2.2249,-2.2194,-2.2093,-2.2106,-2.2032,-2.1916,-2.1787,-2.1794,-2.1848,-2.1923,-2.2004,-2.2093,-2.2133,-2.2296,-2.2411,-2.2486,-2.2554,-2.2608,-2.2744,-2.2825,-2.2954,-2.3029,-2.311,-2.3185,-2.4059,-2.4639,-2.5506,-2.6379,-2.6951,-2.78,-2.78,-2.78,-2.78,-2.78,-2.78,-2.78,-2.78,-2.78,-2.78,-2.78,-2.7808,-2.7523,-2.7237,-2.6959,-2.6387,-2.5521,-2.4948,-2.4087,-2.38,-2.3506,-2.3506,-2.3506,-2.3219,-2.3219,-2.3219,-2.3219,-2.1211,-2.1245,-2.138,-2.1428,-2.1435,-2.1421,-2.1435,-2.1441,-2.1441,-2.1441,-2.1441,-2.1441,-2.1441,-2.1441,-2.1441,-2.1441,-2.1441,-2.1441,-2.1441,-2.1441,-2.1441,-2.1441,-2.1441,-2.1441,-2.1462,-2.1509,-2.157,-2.1638,-2.1679,-2.1747,-2.1815,-2.1862,-2.1815,-2.1828,-2.1808,-2.1774,-2.1706,-2.1713,-2.1747,-2.1781,-2.1781,-2.1821,-2.1842,-2.1876,-2.1896,-2.1923,-2.1957,-2.1977,-2.2032,-2.2093,-2.214,-2.2221,-2.2242,-2.2194,-2.2147,-2.2133,-2.2147,-2.2221,-2.2262,-2.2296,-2.2296,-2.2201,-2.2181,-2.2052,-2.1971,-2.193,-2.1916,-2.1964,-2.2038,-2.2086,-2.214,-2.2344,-2.2534,-2.2622,-2.2703,-2.2744,-2.2778,-2.2852,-2.292,-2.2988,-2.3035,-2.311,-2.3191,-2.38,-2.4367,-2.4948,-2.5807,-2.6665,-2.7237,-2.78,-2.78,-2.78,-2.78,-2.78,-2.78,-2.78,-2.7523,-2.7523,-2.7523,-2.7237,-2.6951,-2.6665,-2.6093,-2.5521,-2.4948,-2.4087,-2.38,-2.3506,-2.3219,-2.3219,-2.3219,-2.3219,-2.3219,-2.3219,-2.3219,-2.1279,-2.138,-2.1421,-2.1441,-2.1441,-2.1441,-2.1441,-2.1441,-2.1441,-2.1441,-2.1441,-2.1441,-2.1441,-2.1441,-2.1441,-2.1441,-2.1441,-2.1441,-2.1441,-2.1441,-2.1462,-2.1448,-2.1448,-2.1475,-2.1516,-2.1591,-2.1665,-2.1747,-2.1815,-2.1889,-2.1971,-2.2018,-2.1971,-2.1977,-2.2004,-2.2004,-2.1923,-2.1876,-2.1903,-2.1916,-2.1916,-2.1923,-2.1964,-2.2018,-2.2045,-2.2079,-2.2147,-2.2174,-2.2221,-2.2249,-2.2269,-2.2316,-2.2316,-2.2296,-2.2276,-2.2276,-2.2269,-2.2269,-2.2215,-2.2283,-2.231,-2.2255,-2.2235,-2.2276,-2.2194,-2.2106,-2.2052,-2.2113,-2.2188,-2.2249,-2.2357,-2.2534,-2.2683,-2.2764,-2.2846,-2.292,-2.2954,-2.3002,-2.3063,-2.3076,-2.3124,-2.3137,-2.3219,-2.3219,-2.3793,-2.4367,-2.5234,-2.6093,-2.6951,-2.7515,-2.78,-2.78,-2.78,-2.78,-2.78,-2.78,-2.7523,-2.7237,-2.6951,-2.6665,-2.6093,-2.5807,-2.5521,-2.4948,-2.4087,-2.38,-2.3219,-2.3219,-2.3219,-2.3219,-2.3219,-2.3219,-2.3219,-2.3219,-2.3219,-2.1353,-2.1435,-2.1441,-2.1441,-2.1441,-2.1441,-2.1441,-2.1441,-2.1441,-2.1441,-2.1441,-2.1441,-2.1441,-2.1441,-2.1441,-2.1441,-2.1441,-2.1441,-2.1469,-2.155,-2.153,-2.1591,-2.1591,-2.1611,-2.1679,-2.1747,-2.1821,-2.1909,-2.1971,-2.2052,-2.2133,-2.2181,-2.2093,-2.2127,-2.2174,-2.2188,-2.2154,-2.2099,-2.2079,-2.2059,-2.2052,-2.2052,-2.2127,-2.2167,-2.2194,-2.2255,-2.2323,-2.2337,-2.2344,-2.2344,-2.2344,-2.2303,-2.2276,-2.2242,-2.2296,-2.2296,-2.2323,-2.2289,-2.2255,-2.2296,-2.2276,-2.2249,-2.2283,-2.231,-2.231,-2.2242,-2.2255,-2.2303,-2.2378,-2.2459,-2.2581,-2.2703,-2.2791,-2.2879,-2.2981,-2.3083,-2.313,-2.3171,-2.3191,-2.3205,-2.3212,-2.3205,-2.3219,-2.3219,-2.3219,-2.3793,-2.4661,-2.5521,-2.6379,-2.7229,-2.7515,-2.78,-2.78,-2.78,-2.78,-2.7515,-2.6951,-2.6665,-2.6379,-2.6093,-2.5234,-2.4948,-2.4661,-2.4087,-2.3506,-2.3219,-2.3219,-2.3219,-2.3219,-2.3219,-2.3219,-2.3219,-2.3219,-2.3219,-2.3219,-2.1435,-2.1441,-2.1441,-2.1441,-2.1441,-2.1441,-2.1441,-2.1441,-2.1441,-2.1441,-2.1441,-2.1441,-2.1441,-2.1441,-2.1469,-2.1482,-2.1509,-2.153,-2.1604,-2.1686,-2.1686,-2.1726,-2.1801,-2.1876,-2.1848,-2.193,-2.2004,-2.2059,-2.2147,-2.2215,-2.2269,-2.2337,-2.231,-2.2303,-2.2296,-2.2303,-2.2276,-2.2262,-2.2255,-2.2269,-2.2289,-2.2323,-2.2344,-2.233,-2.2323,-2.2337,-2.2337,-2.2344,-2.2344,-2.2344,-2.2323,-2.2269,-2.2215,-2.2181,-2.2249,-2.2289,-2.2337,-2.233,-2.231,-2.233,-2.2337,-2.233,-2.235,-2.2378,-2.2384,-2.2378,-2.2398,-2.2472,-2.254,-2.2656,-2.2784,-2.29,-2.2995,-2.3035,-2.3097,-2.3158,-2.3178,-2.3205,-2.3212,-2.3219,-2.3219,-2.3219,-2.3219,-2.3219,-2.3219,-2.3506,-2.4374,-2.5234,-2.5807,-2.6658,-2.7229,-2.7515,-2.7523,-2.7523,-2.7237,-2.6951,-2.6665,-2.6093,-2.5807,-2.5234,-2.4374,-2.4087,-2.4087,-2.38,-2.3219,-2.3219,-2.3219,-2.3219,-2.3219,-2.3219,-2.3219,-2.3219,-2.3219,-2.3219,-2.3219,-2.1441,-2.1441,-2.1441,-2.1441,-2.1441,-2.1441,-2.1441,-2.1441,-2.1441,-2.1448,-2.1441,-2.1441,-2.1455,-2.1482,-2.1577,-2.1611,-2.1625,-2.1686,-2.1781,-2.1821,-2.1835,-2.1869,-2.1896,-2.1943,-2.1971,-2.2038,-2.2113,-2.2181,-2.2255,-2.2316,-2.2344,-2.2344,-2.2344,-2.2344,-2.2344,-2.2344,-2.2344,-2.2344,-2.2344,-2.2344,-2.2344,-2.2344,-2.2344,-2.2344,-2.2344,-2.2344,-2.2337,-2.233,-2.2337,-2.2344,-2.2344,-2.2316,-2.2289,-2.2276,-2.2296,-2.233,-2.2344,-2.2344,-2.2344,-2.2344,-2.235,-2.2391,-2.2425,-2.2479,-2.2506,-2.2506,-2.2547,-2.2628,-2.2723,-2.2846,-2.2968,-2.3076,-2.3164,-2.3178,-2.3191,-2.3205,-2.3219,-2.3219,-2.3219,-2.3219,-2.3219,-2.3219,-2.3219,-2.3219,-2.3219,-2.3506,-2.4087,-2.4661,-2.4948,-2.5807,-2.6665,-2.6951,-2.6959,-2.6959,-2.6665,-2.6379,-2.5807,-2.5234,-2.4948,-2.4374,-2.3513,-2.3513,-2.3506,-2.3506,-2.3219,-2.3219,-2.3219,-2.3219,-2.3219,-2.3219,-2.3219,-2.3219,-2.3219,-2.3219,-2.3219,-2.1441,-2.1441,-2.1441,-2.1441,-2.1441,-2.1441,-2.1475,-2.1536,-2.1543,-2.1577,-2.1618,-2.1577,-2.1577,-2.1625,-2.1733,-2.1767,-2.1774,-2.1835,-2.1909,-2.1957,-2.1991,-2.2045,-2.2052,-2.2065,-2.214,-2.2208,-2.2215,-2.2269,-2.233,-2.2344,-2.2344,-2.2344,-2.2344,-2.2344,-2.2344,-2.2344,-2.2344,-2.2344,-2.2344,-2.2344,-2.2344,-2.2344,-2.2344,-2.2344,-2.2344,-2.2344,-2.231,-2.2296,-2.2283,-2.2283,-2.2276,-2.2296,-2.2276,-2.2249,-2.2276,-2.2316,-2.2344,-2.2344,-2.2344,-2.2357,-2.2378,-2.2452,-2.2493,-2.2547,-2.2676,-2.2696,-2.2778,-2.2852,-2.2866,-2.2974,-2.3069,-2.3178,-2.3191,-2.3205,-2.3212,-2.3212,-2.3219,-2.3219,-2.3219,-2.3219,-2.3219,-2.3219,-2.3219,-2.3219,-2.3219,-2.3219,-2.38,-2.4374,-2.4661,-2.4661,-2.5807,-2.6379,-2.6093,-2.6101,-2.6093,-2.5521,-2.4948,-2.4661,-2.4087,-2.3793,-2.3506,-2.3219,-2.3219,-2.3219,-2.3219,-2.3219,-2.3219,-2.3219,-2.3219,-2.3219,-2.3219,-2.3219,-2.3219,-2.3219,-2.3219,-2.1441,-2.1441,-2.1441,-2.1441,-2.1448,-2.1462,-2.1543,-2.1658,-2.1686,-2.1774,-2.1876,-2.1781,-2.1808,-2.1848,-2.1909,-2.1909,-2.1937,-2.1998,-2.2059,-2.2113,-2.214,-2.2181,-2.2249,-2.231,-2.2303,-2.2303,-2.2316,-2.2316,-2.2337,-2.2344,-2.2344,-2.2344,-2.2344,-2.2344,-2.2344,-2.2344,-2.2344,-2.2344,-2.2344,-2.2344,-2.2344,-2.2344,-2.2344,-2.2344,-2.2344,-2.2344,-2.2296,-2.2242,-2.2215,-2.2242,-2.2249,-2.2276,-2.2283,-2.2262,-2.2276,-2.231,-2.2344,-2.2357,-2.2378,-2.2398,-2.2472,-2.2547,-2.2581,-2.2676,-2.2812,-2.2907,-2.2988,-2.3022,-2.3035,-2.3069,-2.3171,-2.3212,-2.3219,-2.3219,-2.3219,-2.3219,-2.3219,-2.3219,-2.3219,-2.3219,-2.3219,-2.3219,-2.3219,-2.3219,-2.3219,-2.3506,-2.3513,-2.4087,-2.4374,-2.4374,-2.4661,-2.4948,-2.4948,-2.4948,-2.5234,-2.4948,-2.4374,-2.4087,-2.3793,-2.3506,-2.3219,-2.3219,-2.3219,-2.3219,-2.3219,-2.3219,-2.3219,-2.3219,-2.3219,-2.3219,-2.3219,-2.3219,-2.3219,-2.3219,-2.3219,-2.1441,-2.1441,-2.1441,-2.1441,-2.1462,-2.157,-2.1645,-2.1686,-2.1801,-2.1923,-2.2032,-2.2045,-2.1998,-2.1896,-2.2025,-2.2065,-2.2086,-2.2147,-2.2228,-2.2289,-2.2269,-2.2303,-2.233,-2.2344,-2.2344,-2.2344,-2.2344,-2.2344,-2.2344,-2.2344,-2.2344,-2.2344,-2.2344,-2.2344,-2.2344,-2.2344,-2.2344,-2.2344,-2.2344,-2.2344,-2.2344,-2.2344,-2.2344,-2.2344,-2.2344,-2.2344,-2.2303,-2.2188,-2.2228,-2.2276,-2.231,-2.231,-2.2303,-2.2303,-2.2316,-2.235,-2.2371,-2.2439,-2.2472,-2.2506,-2.2595,-2.2723,-2.2778,-2.2879,-2.2995,-2.3069,-2.313,-2.3144,-2.3158,-2.3158,-2.3219,-2.3219,-2.3219,-2.3219,-2.3219,-2.3219,-2.3219,-2.3219,-2.3219,-2.3219,-2.3219,-2.3219,-2.3219,-2.3219,-2.3219,-2.3219,-2.3219,-2.3506,-2.3793,-2.3793,-2.38,-2.38,-2.4087,-2.4087,-2.4374,-2.4087,-2.3506,-2.3506,-2.3506,-2.3219,-2.3219,-2.3219,-2.3219,-2.3219,-2.3219,-2.3219,-2.3219,-2.3219,-2.3219,-2.3219,-2.3219,-2.3219,-2.3219,-2.3219,-2.3219]}]]